[[{"header":{"parameterUnit":"m.s-1","parameterCategory":1,"la1":30.6,"la2":29.2853,"lo1":-89.7004,"lo2":-87.6739,"dx":0.0162,"dy":0.0183,"nx":112,"ny":82,"refTime":"2022-12-13T18:00:00:Z","depth":0,"parameterNumber":2,"parameterNumberName":"U-component_of_WINDS"},"data":[0.0,0.0,0.0,0.0,0.0,0.0,0.0,0.0,0.0,0.0,0.0,0.0,0.0,0.0,0.0,0.0,0.0,0.0,0.0,0.0,0.0,0.0,0.0,0.0,0.0,0.0,0.0,0.0,0.0,0.0,0.0,0.0,0.0,0.0,0.0,0.0,0.0,0.0,0.0,0.0,0.0,0.0,0.0,0.0,0.0,0.0,0.0,0.0,0.0,0.0,0.0,0.0,0.0,0.0,0.0,0.0,0.0,0.0,0.0,0.0,0.0,0.0,0.0,0.0,0.0,0.0,0.0,0.0,0.0,0.0,0.0,0.0,0.0,0.0,0.0,0.0,0.0,0.0,0.0,0.0,0.0,0.0,0.0,0.0,0.0,0.0,0.0,0.0,0.0,0.0,-5.4251,-5.5508,-5.6047,-5.6248,-5.5948,-5.485,-5.2546,-4.8686,0.0,0.0,0.0,0.0,0.0,0.0,0.0,0.0,0.0,0.0,0.0,0.0,0.0,0.0,0.0,0.0,0.0,0.0,0.0,0.0,0.0,0.0,0.0,0.0,0.0,0.0,0.0,0.0,0.0,0.0,0.0,0.0,0.0,0.0,0.0,0.0,0.0,0.0,0.0,0.0,0.0,0.0,0.0,0.0,0.0,0.0,0.0,0.0,0.0,0.0,0.0,0.0,0.0,0.0,0.0,0.0,0.0,0.0,0.0,0.0,0.0,0.0,0.0,0.0,0.0,0.0,0.0,0.0,0.0,0.0,0.0,0.0,0.0,0.0,0.0,0.0,0.0,0.0,0.0,0.0,0.0,0.0,0.0,0.0,0.0,0.0,0.0,0.0,0.0,0.0,0.0,0.0,0.0,0.0,0.0,0.0,0.0,0.0,0.0,0.0,0.0,0.0,0.0,0.0,-5.3204,-5.7244,-5.7244,-5.6286,-5.464,-5.4311,-5.2755,-4.9389,0.0,0.0,0.0,0.0,0.0,0.0,0.0,0.0,0.0,0.0,0.0,0.0,0.0,0.0,0.0,0.0,0.0,0.0,0.0,0.0,0.0,0.0,0.0,0.0,0.0,0.0,0.0,0.0,0.0,0.0,0.0,0.0,0.0,0.0,0.0,0.0,0.0,0.0,0.0,0.0,0.0,0.0,0.0,0.0,0.0,0.0,0.0,0.0,0.0,0.0,0.0,0.0,0.0,0.0,0.0,0.0,0.0,0.0,0.0,0.0,0.0,0.0,0.0,0.0,0.0,0.0,0.0,0.0,0.0,0.0,0.0,0.0,0.0,0.0,0.0,0.0,0.0,0.0,0.0,0.0,0.0,0.0,0.0,0.0,0.0,0.0,0.0,0.0,0.0,0.0,0.0,0.0,0.0,0.0,0.0,0.0,0.0,0.0,0.0,0.0,0.0,0.0,0.0,-5.292,-5.4431,-5.7274,-5.6974,-5.6077,-5.485,-5.4072,-5.2396,-4.9509,-4.7698,0.0,0.0,0.0,0.0,0.0,0.0,0.0,0.0,0.0,0.0,0.0,0.0,0.0,0.0,0.0,0.0,0.0,0.0,0.0,0.0,0.0,0.0,0.0,0.0,0.0,0.0,0.0,0.0,0.0,0.0,0.0,0.0,0.0,0.0,0.0,0.0,0.0,0.0,0.0,0.0,0.0,0.0,0.0,0.0,0.0,0.0,0.0,0.0,0.0,0.0,0.0,0.0,0.0,0.0,0.0,0.0,0.0,0.0,0.0,0.0,0.0,0.0,0.0,0.0,0.0,0.0,0.0,0.0,0.0,0.0,0.0,0.0,0.0,0.0,0.0,0.0,0.0,0.0,0.0,0.0,0.0,0.0,0.0,0.0,0.0,0.0,0.0,0.0,0.0,0.0,0.0,0.0,0.0,0.0,0.0,0.0,0.0,0.0,0.0,0.0,0.0,0.0,-5.5448,-5.6496,-5.7453,-5.6855,-5.6077,-5.5269,-5.3952,-5.2055,-4.9269,-4.7339,0.0,0.0,0.0,0.0,0.0,0.0,0.0,0.0,0.0,0.0,0.0,0.0,0.0,0.0,0.0,0.0,0.0,0.0,0.0,0.0,0.0,0.0,0.0,0.0,0.0,0.0,0.0,0.0,0.0,0.0,0.0,0.0,0.0,0.0,0.0,0.0,0.0,0.0,0.0,0.0,0.0,0.0,0.0,0.0,0.0,0.0,0.0,0.0,0.0,0.0,0.0,0.0,0.0,0.0,0.0,0.0,0.0,0.0,0.0,0.0,0.0,0.0,0.0,0.0,0.0,0.0,0.0,0.0,0.0,0.0,0.0,0.0,0.0,0.0,0.0,0.0,0.0,0.0,0.0,0.0,0.0,0.0,0.0,0.0,0.0,0.0,0.0,0.0,0.0,0.0,0.0,0.0,0.0,0.0,0.0,0.0,0.0,0.0,0.0,0.0,0.0,0.0,-5.6166,-5.886,-5.8949,-5.7812,-5.6526,-5.5299,-5.3952,-5.1798,-4.8566,-4.707,0.0,0.0,0.0,0.0,0.0,0.0,0.0,0.0,0.0,0.0,0.0,0.0,0.0,0.0,0.0,0.0,0.0,0.0,0.0,0.0,0.0,0.0,0.0,0.0,0.0,0.0,0.0,0.0,0.0,0.0,0.0,0.0,0.0,0.0,0.0,0.0,0.0,0.0,0.0,0.0,0.0,0.0,0.0,0.0,0.0,0.0,0.0,0.0,0.0,0.0,0.0,0.0,0.0,0.0,0.0,0.0,0.0,0.0,0.0,0.0,0.0,0.0,0.0,0.0,0.0,0.0,0.0,0.0,0.0,0.0,0.0,0.0,0.0,0.0,0.0,0.0,0.0,0.0,0.0,0.0,0.0,0.0,0.0,0.0,0.0,0.0,0.0,0.0,0.0,0.0,0.0,0.0,0.0,0.0,0.0,0.0,0.0,0.0,0.0,0.0,0.0,0.0,-5.6909,-5.9747,-5.9643,-5.9603,-5.892,-5.7125,-5.5409,-5.3025,-4.9703,0.0,0.0,0.0,0.0,0.0,0.0,0.0,0.0,0.0,0.0,0.0,0.0,0.0,0.0,0.0,0.0,0.0,0.0,0.0,0.0,0.0,0.0,0.0,0.0,0.0,0.0,0.0,0.0,0.0,0.0,0.0,0.0,0.0,0.0,0.0,0.0,0.0,0.0,0.0,0.0,0.0,0.0,0.0,0.0,0.0,0.0,0.0,0.0,0.0,0.0,0.0,0.0,0.0,0.0,0.0,0.0,0.0,0.0,0.0,0.0,0.0,0.0,0.0,0.0,0.0,0.0,0.0,0.0,0.0,0.0,0.0,0.0,0.0,0.0,0.0,0.0,0.0,0.0,0.0,0.0,0.0,0.0,0.0,0.0,0.0,0.0,0.0,0.0,0.0,0.0,0.0,0.0,0.0,0.0,0.0,0.0,0.0,0.0,0.0,0.0,0.0,0.0,-5.3755,-5.8293,-6.137,-6.1221,-6.1571,-6.0952,-5.8869,-5.7106,-5.4401,-5.0152,0.0,0.0,0.0,0.0,0.0,0.0,0.0,0.0,0.0,0.0,0.0,0.0,0.0,0.0,0.0,0.0,0.0,0.0,0.0,0.0,0.0,0.0,0.0,0.0,0.0,0.0,0.0,0.0,0.0,0.0,0.0,0.0,0.0,0.0,0.0,0.0,0.0,0.0,0.0,0.0,0.0,0.0,0.0,0.0,0.0,0.0,0.0,0.0,0.0,0.0,0.0,0.0,0.0,0.0,0.0,0.0,0.0,0.0,0.0,0.0,0.0,0.0,0.0,0.0,0.0,0.0,0.0,0.0,0.0,0.0,0.0,0.0,0.0,0.0,0.0,0.0,0.0,0.0,0.0,0.0,0.0,0.0,0.0,0.0,0.0,0.0,0.0,0.0,0.0,0.0,0.0,0.0,0.0,0.0,0.0,0.0,0.0,0.0,0.0,0.0,0.0,0.0,-5.5426,-6.0503,-6.4126,-6.4126,-6.3565,-6.2331,-6.0322,-5.8985,-5.567,0.0,0.0,0.0,0.0,0.0,0.0,0.0,0.0,0.0,0.0,0.0,0.0,0.0,0.0,0.0,0.0,0.0,0.0,0.0,0.0,0.0,0.0,0.0,0.0,0.0,0.0,0.0,0.0,0.0,0.0,0.0,0.0,0.0,0.0,0.0,0.0,0.0,0.0,0.0,0.0,0.0,0.0,0.0,0.0,0.0,0.0,0.0,0.0,0.0,0.0,0.0,0.0,0.0,0.0,0.0,0.0,0.0,0.0,0.0,0.0,0.0,0.0,0.0,0.0,0.0,0.0,0.0,0.0,0.0,0.0,0.0,0.0,0.0,0.0,0.0,0.0,0.0,0.0,0.0,0.0,0.0,0.0,0.0,0.0,0.0,0.0,0.0,0.0,0.0,0.0,0.0,0.0,0.0,0.0,0.0,0.0,0.0,0.0,0.0,0.0,0.0,0.0,0.0,-5.7745,-6.3574,-6.731,-6.6249,-6.6508,-6.6039,-6.4377,-6.1814,-5.8186,-5.3141,0.0,0.0,0.0,0.0,0.0,0.0,0.0,0.0,0.0,0.0,0.0,0.0,0.0,0.0,0.0,0.0,0.0,0.0,0.0,0.0,0.0,0.0,0.0,0.0,0.0,0.0,0.0,0.0,0.0,0.0,0.0,0.0,0.0,0.0,0.0,0.0,0.0,0.0,0.0,0.0,0.0,0.0,0.0,0.0,0.0,0.0,0.0,0.0,0.0,0.0,0.0,0.0,0.0,0.0,0.0,0.0,0.0,0.0,0.0,0.0,0.0,0.0,0.0,0.0,0.0,0.0,0.0,0.0,0.0,0.0,0.0,0.0,0.0,0.0,0.0,0.0,0.0,0.0,0.0,0.0,0.0,0.0,0.0,0.0,0.0,0.0,0.0,0.0,0.0,0.0,0.0,0.0,0.0,0.0,0.0,0.0,0.0,0.0,0.0,0.0,0.0,0.0,-5.9545,-6.5705,-6.981,-6.9244,-6.9623,-6.9204,-6.7466,-6.4833,-6.1106,-5.6185,0.0,0.0,0.0,0.0,0.0,0.0,0.0,0.0,0.0,0.0,0.0,0.0,0.0,0.0,0.0,0.0,0.0,0.0,0.0,0.0,0.0,0.0,0.0,0.0,0.0,0.0,0.0,0.0,0.0,0.0,0.0,0.0,0.0,0.0,0.0,0.0,0.0,0.0,0.0,0.0,0.0,0.0,0.0,0.0,0.0,0.0,0.0,0.0,0.0,0.0,0.0,0.0,0.0,0.0,0.0,0.0,0.0,0.0,0.0,0.0,0.0,0.0,0.0,0.0,0.0,0.0,0.0,0.0,0.0,0.0,0.0,0.0,0.0,0.0,0.0,0.0,0.0,0.0,0.0,0.0,0.0,0.0,0.0,0.0,0.0,0.0,0.0,0.0,0.0,0.0,0.0,0.0,0.0,0.0,0.0,0.0,0.0,0.0,0.0,0.0,0.0,0.0,-6.0845,-6.7141,-7.1751,-7.2326,-7.2462,-7.1745,-6.9978,-6.7752,-6.4293,-5.9203,0.0,0.0,0.0,0.0,0.0,0.0,0.0,0.0,0.0,0.0,0.0,0.0,0.0,0.0,0.0,0.0,0.0,0.0,0.0,0.0,0.0,0.0,0.0,0.0,0.0,0.0,0.0,0.0,0.0,0.0,0.0,0.0,0.0,0.0,0.0,0.0,0.0,0.0,0.0,0.0,0.0,0.0,0.0,0.0,0.0,0.0,0.0,0.0,0.0,0.0,0.0,0.0,0.0,0.0,0.0,0.0,0.0,0.0,0.0,0.0,-5.3796,-5.0424,0.0,0.0,0.0,0.0,0.0,0.0,0.0,0.0,0.0,0.0,0.0,0.0,0.0,0.0,0.0,0.0,0.0,0.0,0.0,0.0,0.0,0.0,0.0,0.0,0.0,0.0,0.0,0.0,0.0,0.0,0.0,0.0,0.0,0.0,0.0,0.0,0.0,0.0,0.0,0.0,-6.1975,-6.8475,-7.2868,-7.2462,-7.2902,-7.308,-7.2645,-6.9697,-6.6479,-6.3195,-5.782,0.0,0.0,0.0,0.0,0.0,0.0,0.0,0.0,0.0,0.0,0.0,0.0,0.0,0.0,0.0,0.0,0.0,0.0,0.0,0.0,0.0,0.0,0.0,0.0,0.0,0.0,0.0,0.0,0.0,0.0,0.0,0.0,0.0,0.0,0.0,0.0,0.0,0.0,0.0,0.0,0.0,0.0,0.0,0.0,0.0,0.0,0.0,0.0,0.0,0.0,0.0,0.0,0.0,0.0,0.0,0.0,0.0,0.0,0.0,-5.7124,-5.4851,0.0,0.0,0.0,0.0,0.0,0.0,0.0,0.0,0.0,0.0,0.0,0.0,0.0,0.0,0.0,0.0,0.0,0.0,0.0,0.0,0.0,0.0,0.0,0.0,0.0,0.0,0.0,0.0,0.0,0.0,0.0,0.0,0.0,0.0,0.0,0.0,0.0,0.0,0.0,0.0,-6.2245,-6.8876,-7.3477,-7.3477,-7.4119,-7.4559,-7.4559,-7.1986,-6.9302,-6.6906,-6.1376,0.0,0.0,0.0,0.0,0.0,0.0,0.0,0.0,0.0,0.0,0.0,0.0,0.0,0.0,0.0,0.0,0.0,0.0,0.0,0.0,0.0,0.0,0.0,0.0,0.0,0.0,0.0,0.0,0.0,0.0,0.0,0.0,0.0,0.0,0.0,0.0,0.0,0.0,0.0,0.0,0.0,0.0,0.0,0.0,0.0,0.0,0.0,0.0,0.0,0.0,0.0,0.0,0.0,-5.5465,-5.5053,-5.5087,-5.6318,-5.7502,-5.8673,-5.8653,-5.8006,-5.6628,-5.3667,0.0,0.0,0.0,0.0,0.0,0.0,0.0,0.0,0.0,0.0,0.0,0.0,0.0,0.0,0.0,0.0,0.0,0.0,0.0,0.0,0.0,0.0,-5.7654,-5.6773,-5.7459,-5.6692,-5.0569,0.0,0.0,0.0,0.0,0.0,0.0,0.0,0.0,0.0,0.0,0.0,-6.2922,-6.9316,-7.3916,-7.4559,-7.5405,-7.5912,-7.5912,-7.4122,-7.2157,-7.0272,-6.4682,-6.0496,0.0,0.0,0.0,0.0,0.0,0.0,0.0,0.0,0.0,0.0,0.0,0.0,0.0,0.0,0.0,0.0,0.0,0.0,0.0,0.0,0.0,0.0,0.0,0.0,0.0,0.0,0.0,0.0,0.0,0.0,0.0,0.0,-5.3775,-5.4715,0.0,0.0,0.0,0.0,0.0,0.0,0.0,0.0,0.0,0.0,0.0,0.0,0.0,-5.8349,-5.7954,-5.926,-5.946,-5.8592,-6.0381,-6.1221,-6.1221,-6.1434,-6.1637,-6.1801,-6.1816,0.0,-5.8589,-5.8124,0.0,0.0,0.0,0.0,0.0,0.0,0.0,0.0,0.0,0.0,0.0,0.0,0.0,0.0,0.0,0.0,0.0,0.0,0.0,0.0,0.0,0.0,-6.0905,-5.914,-5.842,-5.7691,-5.6163,-5.3585,-5.1398,-5.1144,-5.1637,-5.1574,0.0,0.0,0.0,0.0,0.0,0.0,-6.5865,-7.1041,-7.4492,-7.4593,-7.5879,-7.6758,-7.6758,-7.5305,-7.4009,-7.3098,-6.8806,-6.5134,-6.261,-6.1267,0.0,0.0,0.0,0.0,0.0,0.0,0.0,0.0,0.0,0.0,0.0,0.0,0.0,0.0,0.0,0.0,0.0,0.0,0.0,0.0,0.0,0.0,0.0,0.0,0.0,0.0,0.0,0.0,0.0,-5.3004,-5.4693,-5.55,-5.5251,-5.4148,0.0,0.0,0.0,0.0,0.0,0.0,0.0,0.0,0.0,-6.1105,-6.12,-6.1487,-6.1954,-6.2158,-6.1798,-6.0926,-6.1907,-6.2381,-6.2415,-6.2995,-6.3232,-6.3266,-6.3497,-6.3057,-6.1975,-5.9877,-5.8051,-5.6427,0.0,0.0,0.0,0.0,-5.4093,-5.4093,-5.6393,-5.6934,-5.6528,-5.6122,0.0,0.0,0.0,0.0,0.0,0.0,0.0,-5.7845,-5.8819,-5.9912,-6.0805,-6.1173,-6.0547,-5.9825,-5.984,-5.8339,-5.6537,-5.4851,-5.4964,-5.4507,-5.166,-5.4002,0.0,0.0,0.0,-6.5662,-6.7827,-7.1921,-7.4931,-7.5811,-7.6487,-7.7063,-7.7468,-7.6573,-7.5622,-7.4889,-7.2741,-7.0599,-6.8603,-6.6445,-6.3523,0.0,0.0,0.0,0.0,0.0,0.0,0.0,0.0,0.0,0.0,0.0,0.0,0.0,0.0,0.0,0.0,0.0,0.0,0.0,0.0,0.0,0.0,0.0,0.0,0.0,0.0,0.0,0.0,-5.506,-5.6161,-5.6748,-5.7052,-5.6145,0.0,0.0,0.0,0.0,0.0,0.0,-5.9673,-6.0084,-6.134,-6.3567,-6.3876,-6.4321,-6.4964,-6.4533,-6.3775,-6.2685,-6.2854,-6.2956,-6.299,-6.374,-6.4085,-6.4079,-6.4444,-6.4613,-6.4377,-6.1603,-6.0216,-5.9708,-5.7848,-5.69,-5.663,-5.7374,-5.7306,-5.7239,-6.0013,-6.0622,-6.0114,-5.9742,-5.9607,-5.9201,-5.6968,0.0,0.0,0.0,0.0,-5.9231,-6.0283,-6.0425,-6.0794,-6.2617,-6.23,-6.1747,-6.2183,-6.1814,-6.0674,-5.8237,-5.8195,-5.7621,-5.4434,-5.7341,0.0,-5.7806,-6.2983,-6.7861,-6.9958,-7.28,-7.5202,-7.6758,-7.6893,-7.7198,-7.7942,-7.7502,-7.6941,-7.6417,-7.5525,-7.4504,-7.3231,-7.1153,-6.9171,-6.721,0.0,0.0,0.0,0.0,0.0,0.0,0.0,0.0,0.0,0.0,0.0,0.0,0.0,0.0,0.0,0.0,0.0,0.0,0.0,0.0,0.0,0.0,0.0,0.0,0.0,0.0,0.0,0.0,0.0,-6.0162,-5.9704,0.0,0.0,0.0,0.0,-5.7806,-5.8512,-5.9673,-6.1188,-6.2797,-6.4462,-6.6151,-6.702,-6.6642,-6.5032,-6.5642,-6.5122,-6.3463,-6.414,-6.4478,-6.4478,-6.4546,-6.4546,-6.458,-6.458,-6.4613,-6.458,-6.441,-6.3497,-6.2144,-6.1332,-6.0114,-5.893,-5.9674,-5.9911,-6.0216,-6.255,-6.3328,-6.3396,-6.4038,-6.2854,-6.1163,-6.1028,-6.0013,0.0,0.0,-6.0355,-6.1371,-6.1133,-6.1511,-6.2208,-6.2915,-6.3056,-6.2981,-6.3056,-6.2538,-6.1871,-6.1017,-6.1395,-6.1181,-5.9111,0.0,-6.2812,-6.3613,-6.6088,-6.9147,-7.28,-7.4052,-7.5202,-7.6758,-7.6893,-7.7198,-7.7942,-7.7942,-7.7942,-7.7878,-7.652,-7.545,-7.4705,-7.5134,-7.2976,-6.7774,-6.909,0.0,0.0,0.0,0.0,0.0,0.0,0.0,0.0,0.0,0.0,0.0,0.0,0.0,0.0,0.0,0.0,0.0,0.0,0.0,0.0,0.0,0.0,0.0,0.0,0.0,0.0,0.0,0.0,-6.0461,-5.9835,0.0,-5.8866,-6.099,-6.2249,-6.1867,-6.197,-6.2537,-6.366,-6.4266,-6.5171,-6.6338,-6.7741,-6.7579,-6.5709,-6.6488,-6.5962,-6.4208,-6.4478,-6.4613,-6.4613,-6.5087,-6.529,-6.5324,-6.5831,-6.6034,-6.6034,-6.6034,-6.5155,-6.3802,-6.3531,-6.3091,-6.2651,-6.2888,-6.299,-6.3125,-6.3937,-6.4208,-6.4343,-6.5053,-6.4749,-6.4208,-6.4715,-6.4478,-6.4139,-6.4747,-6.5325,-6.5625,-6.5087,-6.5203,-6.546,-6.5606,-6.5404,-6.532,-6.6123,-6.5834,-6.5448,-6.57,-6.374,-6.1889,-6.1255,-6.4392,-6.6827,-6.6395,-6.9662,-7.3071,-7.5371,-7.5912,-7.6657,-7.8179,-7.7468,-7.7198,-7.7942,-7.7976,-7.8179,-7.8686,-7.8691,-7.8537,-7.8269,-7.8068,-7.6994,-7.5089,-7.4686,-7.1312,0.0,0.0,0.0,0.0,0.0,0.0,0.0,0.0,0.0,0.0,0.0,0.0,0.0,0.0,0.0,0.0,0.0,0.0,0.0,0.0,0.0,0.0,0.0,0.0,0.0,-6.119,-6.2739,-6.1306,-6.154,-6.1458,-6.0535,-6.2556,-6.3954,-6.3954,-6.3799,-6.4076,-6.4915,-6.5556,-6.6388,-6.7559,-6.869,-6.8677,-6.7451,-6.7614,-6.6912,-6.5449,-6.5352,-6.5358,-6.5358,-6.5831,-6.6068,-6.6102,-6.6609,-6.6812,-6.6812,-6.6812,-6.6237,-6.5324,-6.5053,-6.4952,-6.4952,-6.4681,-6.4613,-6.4647,-6.4884,-6.5121,-6.5425,-6.5899,-6.6068,-6.6203,-6.6948,-6.7184,-6.7235,-6.752,-6.7841,-6.7823,-6.6737,-6.6856,-6.7181,-6.6874,-6.7021,-6.7344,-6.7737,-6.8044,-6.829,-6.8312,-6.6094,-6.4351,-6.4925,-6.7796,-6.9751,-6.8917,-7.2069,-7.4965,-7.6014,-7.6352,-7.6961,-7.8213,-7.7232,-7.6792,-7.7536,-7.713,-7.7502,-7.9025,-7.9092,-7.9431,-8.0175,-7.9025,-7.8247,-7.7976,-7.6017,-7.2083,-6.6105,0.0,0.0,0.0,0.0,0.0,0.0,0.0,0.0,0.0,0.0,0.0,0.0,0.0,0.0,0.0,0.0,0.0,0.0,0.0,0.0,0.0,0.0,0.0,-6.2071,-6.3172,-6.3943,-6.3012,-6.4992,-6.5436,-6.3005,-6.3328,-6.3755,-6.379,-6.379,-6.4138,-6.4975,-6.667,-6.8378,-6.9926,-7.0069,-7.0062,-6.9967,-6.9089,-6.815,-6.7153,-6.695,-6.6854,-6.6854,-6.6846,-6.6846,-6.6846,-6.6846,-6.6846,-6.6846,-6.6812,-6.6812,-6.6745,-6.6,-6.573,-6.5628,-6.4918,-6.4681,-6.4783,-6.5493,-6.6203,-6.6812,-6.6846,-6.6846,-6.6981,-6.7726,-6.7929,-6.7849,-6.7372,-6.765,-6.7761,-6.5884,-6.6374,-6.7189,-6.6534,-6.7867,-6.8927,-6.7655,-6.8958,-7.001,-6.875,-6.8524,-6.8941,-7.0236,-7.1076,-7.154,-7.149,-7.3313,0.0,-7.4728,-7.5303,-7.6014,-7.6792,-7.6149,-7.598,-7.6758,-7.5473,-7.5912,-7.8855,-7.7705,-7.7908,-8.0073,-7.8111,-7.6589,-7.5811,-7.286,-6.991,-6.6954,0.0,0.0,0.0,0.0,0.0,0.0,0.0,0.0,0.0,0.0,0.0,0.0,0.0,0.0,0.0,0.0,0.0,0.0,0.0,0.0,0.0,-6.3209,-6.5742,-6.4457,-6.6182,-6.7058,-6.5589,-6.5981,-6.5838,-6.45,-6.4511,-6.4877,-6.5475,-6.551,-6.6169,-6.765,-6.8206,-6.8947,-7.0054,-7.0446,-7.023,-6.9269,-7.0682,-7.0332,-6.8253,-6.7985,-6.7827,-6.7787,-6.7664,-6.759,-6.759,-6.759,-6.759,-6.7557,-6.7015,-6.6812,-6.6779,-6.6576,-6.6508,-6.6474,-6.6271,-6.6203,-6.6237,-6.644,-6.6643,-6.6914,-6.7421,-6.759,-6.776,-6.8538,-6.8774,-6.8866,-6.9267,-6.9872,-7.0284,-6.9775,-7.0316,-7.077,-7.0036,-7.0716,-7.1425,-7.1064,-7.1821,-7.2666,-7.2834,-7.2886,-7.2694,-7.2077,-7.259,-7.3524,-7.51,-7.5875,-7.6454,-7.6995,-7.6792,-7.642,-7.6082,-7.5371,-7.4999,-7.5236,-7.5337,-7.6014,-7.7435,-7.7638,-7.8213,-7.9363,-7.8822,-7.8416,-7.8179,-7.4107,-7.0848,0.0,0.0,0.0,0.0,0.0,0.0,0.0,0.0,0.0,0.0,0.0,0.0,0.0,0.0,0.0,0.0,0.0,0.0,0.0,0.0,0.0,0.0,-6.6586,-6.8752,-6.7944,-6.8458,-6.855,-6.7578,-6.7157,-6.6729,-6.6181,-6.6128,-6.6264,-6.676,-6.7118,-6.788,-6.925,-6.9521,-7.0274,-7.1578,-7.1586,-7.1428,-7.1132,-7.2001,-7.1906,-7.0975,-7.0196,-6.9817,-6.9815,-6.9279,-6.9062,-6.902,-6.8583,-6.8402,-6.8368,-6.7963,-6.776,-6.7726,0.0,0.0,0.0,0.0,-6.7015,-6.7252,-6.7252,-6.7489,-6.7827,-6.8267,-6.8402,-6.8538,-6.9316,-6.9553,-6.9722,-7.0432,-7.0973,-7.1312,-7.1312,-7.1616,-7.1683,-7.0675,-7.1454,-7.2223,-7.1647,-7.2801,-7.4086,-7.4525,-7.4864,0.0,-7.4052,-7.4505,-7.5321,-7.6256,-7.669,-7.6927,-7.7029,-7.6657,-7.6217,-7.5743,-7.5337,-7.5067,-7.5067,-7.4897,0.0,0.0,0.0,-7.6758,-7.7198,-7.6927,0.0,0.0,0.0,-7.1123,-7.055,-6.7684,0.0,0.0,-6.3694,-6.3728,0.0,0.0,0.0,0.0,0.0,0.0,0.0,0.0,0.0,0.0,0.0,0.0,0.0,0.0,0.0,0.0,-7.0403,-7.2275,-7.1541,-7.0146,-6.9155,-6.9045,-6.8311,-6.7871,-6.7944,-6.7833,-6.7849,-6.7994,-6.8681,-6.9441,-7.0237,-7.08,0.0,0.0,0.0,-7.3083,-7.392,-7.3083,-7.3269,-7.4446,-7.2973,-7.2263,-7.2227,-7.1326,-7.0809,-7.0684,-6.9756,-6.9345,-6.9214,-6.9147,-6.9113,-6.8977,-6.759,-6.7083,-6.7083,-6.7083,-6.7489,-6.803,-6.803,0.0,0.0,-6.9214,-6.9214,-6.935,-7.0094,-7.0297,-7.0466,-7.1142,-7.1312,-7.1312,-7.1312,-7.1312,-7.1007,-6.9727,-7.1038,-7.2186,-7.0921,-7.2826,-7.4728,-7.4728,-7.527,-7.5709,-7.5709,-7.6454,-7.6792,-7.6082,-7.6657,-7.686,-7.6048,-7.5879,-7.5811,-7.5709,-7.5642,0.0,-7.5676,-7.4424,-7.4525,-7.6623,-7.5574,-7.4864,-7.4864,-7.4289,-7.4289,-7.4864,-7.2196,-7.1392,-7.2645,-7.1002,-6.9603,-6.8454,-6.5753,-6.5609,0.0,0.0,0.0,0.0,0.0,0.0,0.0,0.0,0.0,0.0,0.0,0.0,0.0,0.0,0.0,-6.7604,-7.0403,-7.2459,-7.2312,-7.1468,-7.0624,-6.9963,-6.9155,-6.8935,-6.9559,-6.9017,-6.9189,-7.047,-7.0726,-7.1165,-7.1963,-7.2116,-7.2386,-7.2716,-7.3406,-7.3487,-7.2812,-7.4292,-7.5599,-7.6674,-7.4316,0.0,-7.3207,-7.2866,-7.2283,-7.148,-7.1276,-7.072,-6.9925,-6.935,-6.9113,-6.9079,-6.8774,-6.8673,-6.8673,-6.8673,-6.8741,-6.8876,-6.8876,-6.8977,-6.9214,-6.9789,-6.9992,-7.0128,-7.0872,-7.1109,0.0,-7.1278,-7.1312,-7.1312,-7.1312,-7.1312,-7.1222,-7.0961,-7.211,-7.3228,-7.2928,-7.4249,-7.5473,-7.5473,-7.5608,-7.5709,-7.5709,-7.686,-7.7705,-7.757,-7.8179,-7.8416,-7.7638,-7.7029,-7.642,-7.5777,-7.5168,-7.5067,-7.5642,-7.4897,-7.483,-7.5879,-7.6251,-7.6454,-7.6454,-7.6893,-7.6927,-7.6454,-7.5254,-7.4201,-7.337,-7.1206,-7.066,-7.1491,-7.0295,-6.9988,0.0,0.0,0.0,0.0,0.0,0.0,0.0,0.0,0.0,0.0,0.0,-6.4035,-6.3966,0.0,-6.8678,-6.9889,-7.1468,-7.2496,-7.2496,-7.2165,-7.1615,-7.0807,-7.0367,-7.0257,-7.066,-7.1064,-7.1468,-7.1872,-7.2275,-7.2496,-7.2496,-7.301,-7.3259,-7.3083,-7.428,-7.4617,-7.4118,-7.5315,-7.6367,-7.7266,-7.6011,-7.5393,-7.5398,-7.4789,-7.4224,-7.3706,-7.2694,-7.1988,-7.1431,-7.0551,-7.0195,-7.0195,-7.0195,-6.9755,-6.9113,-6.9113,-6.9316,-6.9654,-6.9654,-6.9891,-7.0263,-7.0635,-7.0737,-7.0804,-7.121,-7.1312,-7.1312,-7.1312,-7.1312,-7.1312,-7.1312,-7.1312,-7.1413,-7.1751,-7.2699,-7.3578,-7.395,-7.4931,-7.5709,-7.5709,-7.5709,-7.5709,-7.5709,-7.6657,-7.7435,-7.7435,-7.8077,-7.8416,-7.8044,-7.7671,-7.7299,-7.6893,-7.6521,-7.6454,-7.6826,-7.6183,-7.5912,-7.6284,-7.6284,-7.6487,-7.6893,-7.686,-7.7029,-7.7435,-7.6323,-7.5187,-7.4177,-7.2639,-7.1932,-7.1932,-7.2252,-7.2348,0.0,0.0,0.0,0.0,0.0,0.0,0.0,-6.2328,-6.3105,-6.3482,-6.5214,-6.6875,-6.7389,-6.8661,-7.0257,-7.2202,-7.2496,-7.2496,-7.2496,-7.2496,-7.2312,-7.1835,-7.1651,-7.1688,-7.1953,-7.3046,-7.345,-7.287,-7.3523,-7.3634,-7.301,-7.392,-7.4434,-7.4397,-7.5602,-7.608,-7.5719,-7.6276,-7.6821,-7.7316,-7.7298,-7.7273,-7.7273,-7.6465,-7.5993,-7.5684,-7.3655,-7.2797,-7.2714,-7.1732,-7.1312,-7.1312,-7.1312,-7.0567,-6.9519,-6.9519,-6.9891,-7.0398,-7.0398,-7.0904,-7.159,-7.1356,-7.1412,-7.1546,-7.1356,-7.1312,-7.1312,-7.1312,-7.1413,-7.1481,-7.1345,-7.1515,-7.1853,-7.2293,-7.3071,-7.3883,-7.4492,-7.5202,-7.5709,-7.5709,-7.5709,-7.5709,-7.5709,-7.6251,-7.6724,-7.6893,-7.7638,-7.8145,-7.801,-7.8111,-7.8213,-7.8213,-7.8077,-7.7976,-7.7976,-7.7435,-7.7096,-7.7096,-7.6352,-7.6284,-7.7063,-7.6352,-7.6521,-7.7739,-7.6555,-7.5598,-7.4867,-7.4181,-7.3351,-7.2476,-7.3403,-7.3632,-6.1851,-6.0676,-6.0713,-6.1961,-6.2989,-6.4787,0.0,-6.9009,-6.8688,-7.0804,-7.1484,-7.1733,-7.1793,-7.1961,-7.2202,-7.2459,-7.2496,-7.2496,-7.2496,-7.2496,-7.2716,-7.334,-7.2789,-7.2936,-7.4368,-7.4001,-7.3751,-7.3912,-7.4448,-7.4735,-7.4661,-7.5432,-7.616,-7.6875,-7.7806,-7.7426,-7.5727,-7.7426,-7.7965,-7.7304,-7.7304,-7.7273,-7.731,-7.7181,-7.6628,-7.5684,-7.3655,-7.2797,-7.2714,-7.1732,-7.1312,-7.1312,-7.1312,-7.121,-7.1075,-7.1075,-7.1109,-7.1176,-7.1176,-7.1805,-7.2456,-7.1556,-7.1917,-7.2456,-7.1556,-7.1312,-7.1312,-7.1312,-7.1785,-7.2124,-7.1481,-7.2259,-7.3105,-7.2529,-7.3477,-7.4525,-7.4593,-7.5202,-7.5709,-7.5709,-7.5709,-7.5709,-7.5709,-7.5777,-7.6082,-7.6792,-7.8111,-7.8754,-7.8077,-7.8585,-7.8991,-7.8991,-7.8382,-7.7976,-7.7976,-7.7908,-7.7874,-7.7874,-7.7164,-7.7096,-7.7841,-7.7164,-7.686,-7.7029,-7.686,-7.6405,-7.5619,-7.4904,-7.5152,-7.6286,-7.5101,-7.4206,-6.71,-6.5962,-6.5044,-6.6659,-6.7687,-6.8715,-7.0257,-7.0073,-6.9969,-7.1393,-7.2101,-7.2314,-7.1794,-7.213,-7.2496,-7.2496,-7.2899,-7.3193,-7.3193,-7.3597,-7.4221,-7.4992,-7.4808,-7.4882,-7.5542,-7.5726,-7.5622,-7.5292,-7.5903,-7.608,-7.5616,-7.6387,-7.7157,-7.8027,-7.8877,-7.8888,-7.8092,-7.8411,-7.8405,-7.8075,-7.7561,-7.7818,-7.8736,-7.8259,-7.7523,-7.6403,-7.4983,-7.3757,-7.2714,-7.1732,-7.1312,-7.1312,-7.1312,-7.1312,-7.1312,-7.1312,-7.1312,-7.1401,-7.2004,-7.2456,-7.2838,-7.3003,-7.2921,-7.2818,-7.2794,-7.239,-7.2022,-7.2462,-7.28,-7.2969,-7.2665,-7.3037,-7.351,-7.3646,-7.4153,-7.4728,-7.5168,-7.5473,-7.5709,-7.5709,-7.5709,-7.5709,-7.5709,-7.5709,-7.5811,-7.6149,-7.713,-7.7874,-7.7976,-7.8653,-7.9261,-7.9701,-7.9464,-7.9261,-7.9261,-7.8889,-7.8653,-7.8653,-7.7942,-7.7874,-7.8619,-7.7908,-7.7739,-7.8179,-7.7773,-7.7367,-7.7029,-7.6758,-7.7128,-7.8179,-7.7565,-7.7346,-6.8752,-6.8531,-6.8128,-6.9963,-7.1394,-7.2092,-7.1284,-7.1101,-7.1178,-7.1422,-7.2041,-7.2285,-7.1604,-7.2041,-7.2569,-7.2789,-7.3303,-7.378,-7.4001,-7.4551,-7.5212,-7.6019,-7.6093,-7.6203,-7.6423,-7.6943,-7.7053,-7.6497,-7.7182,-7.7439,-7.6931,-7.7818,-7.8626,-7.925,-8.0021,-8.0351,-8.0131,-7.9543,-7.914,-7.8919,-7.8295,-7.8736,-8.0094,-7.9286,-7.8528,-7.7683,-7.6445,-7.5009,-7.3444,-7.245,-7.176,-7.1312,-7.1312,-7.1312,-7.1312,-7.1312,-7.1312,-7.1457,-7.2456,-7.3142,-7.3687,-7.4399,-7.4463,-7.4272,-7.4254,-7.3731,-7.3186,-7.34,-7.3646,-7.3747,-7.3544,-7.395,-7.4458,-7.4593,-7.4931,-7.5337,-7.5642,-7.5879,-7.6014,-7.6014,-7.6183,-7.6318,-7.6318,-7.6318,-7.6318,-7.6318,-7.6826,-7.7401,-7.7908,-7.8822,-7.9634,-8.0141,-8.0209,-8.0209,-8.0209,-7.9701,-7.9397,-7.9397,-7.872,-7.8619,-7.9397,-7.8686,-7.8551,-7.9092,-7.8585,-7.8179,-7.7976,-7.8382,-7.8889,-7.9431,-7.9634,-8.0107,-6.4494,-6.5962,-6.8274,-7.0697,-7.3017,-7.4588,-7.378,-7.3597,-7.3377,-7.2614,-7.2467,-7.2496,-7.2467,-7.2467,-7.2753,-7.3523,-7.367,-7.3964,-7.4771,-7.4882,-7.5212,-7.6019,-7.6093,-7.6423,-7.7163,-7.7273,-7.7273,-7.7273,-7.8081,-7.8662,-7.8877,-8.0167,-8.0901,-8.0938,-8.1709,-8.1746,-8.0975,-8.0938,-8.0534,-7.9764,-7.9727,-8.0167,-8.0938,-8.0131,-7.9764,-7.9627,-7.7754,-7.6374,-7.5331,-7.4333,-7.2889,-7.1312,-7.1312,-7.1312,-7.1312,-7.1312,-7.1312,-7.1457,-7.2456,-7.3982,-7.5407,-7.5446,-7.6619,-7.7667,-7.5691,-7.5015,-7.4792,-7.381,-7.4018,-7.439,-7.368,-7.5134,-7.642,-7.4965,-7.5743,-7.6623,-7.5845,-7.6318,-7.686,-7.686,-7.7435,-7.7908,-7.7908,-7.7908,-7.7908,-7.7908,-7.7942,-7.7942,-7.7976,-7.9261,-8.0175,-8.0209,-8.0209,-8.0209,-8.0209,-8.0175,-8.0175,-8.0175,-7.9464,-7.9397,-8.0141,-7.9464,-7.9092,-7.9126,-7.9092,-7.872,-7.7976,-7.9431,-8.0141,-8.0175,-8.0885,-8.1629,-6.8238,-6.9853,-7.1578,-7.4522,-7.5506,-7.5616,-7.5359,-7.4478,-7.378,-7.4037,-7.323,-7.2679,-7.3193,-7.2863,-7.2753,-7.356,-7.4147,-7.4771,-7.5579,-7.6166,-7.6576,-7.6864,-7.69,-7.698,-7.7273,-7.7273,-7.7273,-7.7273,-7.8259,-7.9061,-7.9501,-8.0461,-8.1232,-8.1782,-8.2039,-8.2076,-8.1782,-8.1269,-8.1122,-8.1415,-8.248,-8.2553,-8.1819,-8.2627,-8.2113,-8.0539,-7.9201,-7.8135,-7.7199,-7.5617,-7.4632,-7.3985,-7.2789,-7.2279,-7.239,-7.2914,-7.3086,-7.3257,-7.4227,-7.5776,-7.7416,-7.8122,-7.8267,-7.8134,-7.7978,-7.6951,-7.5872,-7.5987,-7.572,-7.5405,-7.5676,-7.6318,-7.6758,-7.6251,-7.6893,-7.7401,-7.6657,-7.7096,-7.7638,-7.7638,-7.7807,-7.7976,-7.7976,-7.7976,-7.7976,-7.7976,-7.8416,-7.872,-7.872,-7.96,-8.0209,-8.0209,-8.0209,-8.0209,-8.0209,-8.0209,-8.0209,-8.0209,-7.9972,-7.9938,-8.0175,-7.9972,-7.9837,-7.9837,-7.9837,-7.9701,-7.9464,-8.0445,-8.119,-8.1697,-8.2408,-8.3152,-7.066,-7.2129,-7.3266,-7.6503,-7.6937,-7.646,-7.6166,-7.5285,-7.4625,-7.4845,-7.3634,-7.2753,-7.356,-7.3046,-7.2863,-7.3964,-7.4808,-7.5616,-7.6423,-7.6974,-7.7273,-7.7273,-7.7273,-7.7273,-7.7273,-7.7671,-7.7855,-7.7781,-7.8699,-7.9543,-8.0204,-8.0975,-8.1672,-8.2186,-8.2186,-8.2186,-8.2186,-8.1966,-8.226,-8.3067,-8.4095,-8.3911,-8.2663,-8.3398,-8.2884,-8.1383,-8.0451,-7.9677,-7.8999,-7.7841,-7.6925,-7.6222,-7.4738,-7.4216,-7.4251,-7.4461,-7.5164,-7.6023,-7.6356,-7.7415,-7.8849,-7.991,-7.9958,-7.9636,-7.9792,-7.8864,-7.7703,-7.7381,-7.6792,-7.6377,-7.6787,-7.7096,-7.7299,-7.7299,-7.7841,-7.8179,-7.7435,-7.7874,-7.8382,-7.8382,-7.8619,-7.8788,-7.8788,-7.8788,-7.8855,-7.9126,-7.9566,-7.9803,-7.9532,-8.0378,-8.0987,-8.0987,-8.075,-8.0581,-8.0581,-8.0344,-8.0209,-8.0209,-8.0209,-8.0209,-8.0209,-8.0209,-8.0209,-8.0209,-8.0209,-8.0209,-8.0209,-8.0919,-8.1663,-8.2441,-8.3152,-8.3896,-7.1505,-7.2642,-7.3487,-7.654,-7.7273,-7.709,-7.635,-7.613,-7.5873,-7.5028,-7.356,-7.2642,-7.334,-7.2899,-7.2973,-7.4515,-7.5506,-7.6387,-7.7163,-7.7273,-7.7273,-7.7273,-7.7273,-7.731,-7.7347,-7.8363,-7.8914,-7.8736,-7.9407,-8.0177,-8.0975,-8.1746,-8.2186,-8.2186,-8.2186,-8.2186,-8.2186,-8.303,-8.3838,-8.4609,-8.4679,-8.4272,-8.3427,-8.2688,-8.232,-8.2215,-8.148,-8.1023,-8.084,-8.084,-7.9787,-7.809,-7.7231,-7.6876,-7.6769,-7.6057,-7.7336,-7.9395,-7.8672,-7.896,-7.9788,-8.0751,-8.1562,-8.1985,-8.1018,-8.0623,-8.0144,-7.8077,-7.7424,-7.7347,-7.7074,-7.7517,-7.8044,-7.8044,-7.8619,-7.8957,-7.8213,-7.8653,-7.916,-7.916,-7.9735,-8.0209,-8.0209,-8.0209,-8.0445,-8.119,-8.1325,-8.1088,-8.0412,-8.1528,-8.2408,-8.2408,-8.1765,-8.1359,-8.1359,-8.0682,-8.0242,-8.0242,-8.0209,-8.0209,-8.0209,-8.0209,-8.0209,-8.0209,-8.0209,-8.0209,-8.0209,-8.0919,-8.1663,-8.2441,-8.3152,-8.3896,-7.2936,-7.4698,-7.6246,-7.709,-7.7273,-7.7237,-7.7017,-7.6533,-7.5689,-7.4294,-7.2753,-7.1321,-7.033,-7.0954,-7.1945,-7.2973,-7.4632,-7.6136,-7.7163,-7.7273,-7.7273,-7.7273,-7.7273,-7.7567,-7.8191,-7.8516,-7.9176,-8.0314,-8.0576,-8.0759,-8.1012,-8.1746,-8.2186,-8.2186,-8.2186,-8.2186,-8.2186,-8.3581,-8.4389,-8.4609,-8.5704,-8.5503,-8.416,-8.4442,-8.3975,-8.2972,-8.3351,-8.3224,-8.2696,-8.2696,-8.2413,-8.1843,-8.0298,-7.9285,-7.8818,-7.9214,-7.9432,-7.9646,-8.0776,-8.1307,-8.1556,-8.1827,-8.2039,-8.2154,-8.1885,-8.123,-8.0477,-7.9918,-7.8999,-7.8321,-7.8799,-7.8859,-7.8822,-7.8822,-7.9397,-7.9735,-7.8991,-7.9397,-7.9938,-7.9938,-8.0073,-8.0209,-8.0209,-8.0209,-8.0445,-8.119,-8.1765,-8.2069,-8.1866,-8.2171,-8.2408,-8.2408,-8.2238,-8.2137,-8.2137,-8.1426,-8.1021,-8.1021,-8.0513,-8.0209,-8.0209,-8.0209,-8.0209,-8.0209,-8.0209,-8.0209,-8.0209,-8.0919,-8.1663,-8.2441,-8.3152,-8.3896,-7.4882,-7.6276,-7.7273,-7.7273,-7.751,-7.7393,-7.6006,-7.5588,-7.4764,-7.2141,-7.0587,-6.9449,-6.8531,-7.0,-7.1403,-7.1749,-7.4382,-7.6613,-7.72,-7.7273,-7.7273,-7.7273,-7.7745,-7.8222,-7.8736,-7.9612,-8.0383,-8.0975,-8.1012,-8.1158,-8.1525,-8.1929,-8.2186,-8.2186,-8.2186,-8.2553,-8.3251,-8.4168,-8.4792,-8.5123,-8.5893,-8.5805,-8.4932,-8.4865,-8.4625,-8.4261,-8.4381,-8.4423,-8.4462,-8.4462,-8.4462,-8.4318,-8.2963,-8.2135,-8.1698,-8.1443,-8.1298,-8.1294,-8.1949,-8.2186,-8.2186,-8.2186,-8.2186,-8.2186,-8.2186,-8.1782,-8.1267,-8.1165,-8.0548,-8.0069,-8.0727,-8.0363,-7.9939,-8.0281,-8.0285,-8.0073,-7.9667,-7.9904,-8.0209,-8.0209,-8.0209,-8.0209,-8.0209,-8.0209,-8.0547,-8.1629,-8.2137,-8.2644,-8.3287,-8.3389,-8.3389,-8.3389,-8.3084,-8.2881,-8.2881,-8.2205,-8.1629,-8.1291,-8.0885,-8.0547,-8.0209,-8.0209,-8.0209,-8.0209,-8.0209,-8.0209,-8.0209,-8.0615,-8.119,-8.1934,-8.2678,-8.3422,-7.6723,-7.7273,-7.7273,-7.7273,-7.7826,-7.7523,-7.4543,-7.4218,-7.3387,-6.9392,-6.7944,-6.7283,-6.7063,-6.9119,-7.0824,-7.0959,-7.4529,-7.7298,-7.7304,-7.7273,-7.7347,-7.7494,-7.84,-7.9024,-7.9244,-8.0961,-8.1806,-8.1195,-8.1158,-8.1452,-8.215,-8.2186,-8.2186,-8.2186,-8.2186,-8.2957,-8.4572,-8.4609,-8.5006,-8.5765,-8.5781,-8.5665,-8.5508,-8.4795,-8.4858,-8.5562,-8.4973,-8.5108,-8.5783,-8.593,-8.5967,-8.5894,-8.5196,-8.4866,-8.4572,-8.3177,-8.2994,-8.3324,-8.259,-8.237,-8.2333,-8.2223,-8.2186,-8.2186,-8.2186,-8.226,-8.2315,-8.2069,-8.2033,-8.2204,-8.2593,-8.1926,-8.1353,-8.1978,-8.127,-8.0426,-8.0426,-8.0326,-8.0209,-8.0209,-8.0209,-8.0209,-8.0209,-8.0209,-8.0716,-8.2205,-8.2408,-8.2949,-8.4437,-8.464,-8.464,-8.464,-8.4031,-8.3659,-8.3659,-8.2983,-8.2272,-8.1629,-8.1393,-8.0987,-8.0378,-8.0242,-8.0242,-8.0344,-8.0344,-8.0378,-8.0479,-8.0378,-8.0716,-8.146,-8.2103,-8.2813,-7.7163,-7.7273,-7.7273,-7.7273,-7.7826,-7.7672,-7.5242,-7.4144,-7.2334,-6.7847,-6.6292,-6.5301,-6.3906,-6.6219,-6.8972,-7.0926,-7.4661,-7.7296,-7.7304,-7.7273,-7.7671,-7.8589,-7.8699,-7.9181,-8.0511,-8.0979,-8.1415,-8.1929,-8.2003,-8.2039,-8.2186,-8.2186,-8.2186,-8.2186,-8.2186,-8.2957,-8.4572,-8.4609,-8.4972,-8.5632,-8.6189,-8.5989,-8.5225,-8.559,-8.5634,-8.5447,-8.6011,-8.6064,-8.5857,-8.6518,-8.6811,-8.6775,-8.6664,-8.6187,-8.5563,-8.527,-8.4425,-8.3398,-8.3251,-8.3214,-8.3104,-8.2406,-8.2186,-8.2186,-8.2186,-8.2663,-8.3181,-8.3124,-8.341,-8.3725,-8.3786,-8.3453,-8.3144,-8.3285,-8.2436,-8.1582,-8.1582,-8.0868,-8.0209,-8.0209,-8.0209,-8.0209,-8.0209,-8.0209,-8.0716,-8.2205,-8.2408,-8.2949,-8.4437,-8.464,-8.464,-8.464,-8.4505,-8.4437,-8.4437,-8.3727,-8.3253,-8.3118,-8.1968,-8.1224,-8.1088,-8.0513,-8.0479,-8.1088,-8.1088,-8.1393,-8.2035,-8.1393,-8.1494,-8.2205,-8.234,-8.2813,-7.7273,-7.7273,-7.7273,-7.7273,-7.8035,-7.7704,-7.3707,-7.2385,-7.0444,-6.4884,-6.3211,-6.2511,-6.1704,-6.4468,-6.743,-6.9155,-7.3873,-7.7105,-7.6546,-7.6949,-7.7671,-7.8662,-7.9066,-7.9695,-8.0874,-8.1383,-8.1782,-8.215,-8.2186,-8.2186,-8.2186,-8.2186,-8.2186,-8.2186,-8.2186,-8.2957,-8.4572,-8.4609,-8.4926,-8.5619,-8.6277,-8.6308,-8.579,-8.6068,-8.6371,-8.6656,-8.6701,-8.6578,-8.6444,-8.6848,-8.6995,-8.6995,-8.6995,-8.6775,-8.6334,-8.549,-8.4682,-8.3985,-8.3581,-8.3398,-8.3434,-8.3434,-8.3434,-8.3434,-8.3434,-8.3728,-8.4132,-8.4535,-8.4814,-8.5082,-8.5519,-8.5064,-8.4492,-8.4492,-8.3585,-8.2616,-8.2014,-8.1474,-8.0917,-8.0326,-8.0209,-8.0209,-8.0209,-8.0209,-8.0716,-8.2205,-8.2408,-8.2949,-8.4437,-8.464,-8.464,-8.464,-8.464,-8.464,-8.464,-8.4302,-8.393,-8.3524,-8.2847,-8.2272,-8.19,-8.1528,-8.1528,-8.1866,-8.1866,-8.2069,-8.2408,-8.2035,-8.2069,-8.2408,-8.2408,-8.2813,-7.768,-7.751,-7.7365,-7.7651,-7.8473,-7.7838,-7.2505,-7.0917,-6.8867,-6.2724,-6.0863,-6.0378,-6.0627,-6.3257,-6.6009,-6.7898,-7.2556,-7.5905,-7.5794,-7.6515,-7.7488,-7.8699,-7.9396,-8.0167,-8.1158,-8.1819,-8.2186,-8.2186,-8.2186,-8.2186,-8.2186,-8.2186,-8.2186,-8.2186,-8.2186,-8.2957,-8.4572,-8.4609,-8.5023,-8.5843,-8.6358,-8.6422,-8.6112,-8.6244,-8.6662,-8.7324,-8.6964,-8.6905,-8.6995,-8.6995,-8.6995,-8.6995,-8.6995,-8.6995,-8.6848,-8.56,-8.5013,-8.4756,-8.4132,-8.3911,-8.4022,-8.4646,-8.4756,-8.4609,-8.4609,-8.4719,-8.4976,-8.56,-8.593,-8.6187,-8.6848,-8.632,-8.5582,-8.5391,-8.4613,-8.3628,-8.2527,-8.206,-8.1629,-8.0755,-8.0376,-8.0209,-8.0209,-8.0209,-8.0716,-8.2205,-8.2408,-8.2949,-8.4437,-8.464,-8.464,-8.464,-8.464,-8.464,-8.464,-8.464,-8.437,-8.3761,-8.3592,-8.3253,-8.2678,-8.2509,-8.2475,-8.2644,-8.2644,-8.2712,-8.2881,-8.2712,-8.2644,-8.2644,-8.2644,-8.305,-7.8865,-7.819,-7.7563,-7.8716,-7.9128,-7.8081,-7.3769,-7.1465,-6.8745,-6.3385,-6.1055,-6.0262,-6.1287,-6.2365,-6.4567,-6.9127,-7.079,-7.2569,-7.5611,-7.6142,-7.7078,-7.9396,-7.9727,-8.0388,-8.1929,-8.215,-8.2186,-8.2186,-8.2186,-8.2186,-8.2186,-8.2186,-8.2186,-8.2186,-8.2186,-8.2957,-8.4572,-8.4609,-8.5232,-8.6515,-8.6555,-8.6095,-8.5235,-8.5977,-8.6123,-8.5819,-8.6512,-8.6873,-8.6995,-8.6995,-8.6995,-8.6995,-8.6995,-8.6995,-8.6995,-8.6848,-8.6334,-8.5673,-8.56,-8.5563,-8.56,-8.5673,-8.5196,-8.4609,-8.4609,-8.5123,-8.571,-8.5783,-8.6334,-8.6921,-8.6995,-8.6925,-8.6571,-8.5544,-8.5201,-8.4812,-8.3706,-8.2616,-8.1875,-8.177,-8.0917,-8.0209,-8.0209,-8.0209,-8.0716,-8.2205,-8.2408,-8.2949,-8.4437,-8.464,-8.464,-8.464,-8.464,-8.464,-8.464,-8.464,-8.4606,-8.4539,-8.3862,-8.3456,-8.3389,-8.278,-8.2712,-8.3389,-8.3389,-8.3727,-8.4437,-8.3727,-8.3389,-8.3389,-8.3389,-8.3795,-7.8978,-7.8816,-7.8576,-7.9081,-7.9091,-7.7883,-7.3667,-7.1401,-6.8913,-6.4264,-6.1506,-6.0385,-6.1819,-6.1945,-6.3344,-6.7894,-6.9926,-7.1606,-7.3648,-7.4778,-7.6093,-7.8075,-7.8772,-7.991,-8.2003,-8.2186,-8.2186,-8.2186,-8.2186,-8.2186,-8.2186,-8.2663,-8.292,-8.292,-8.3398,-8.4168,-8.5306,-8.4829,-8.5049,-8.5976,-8.5976,-8.5745,-8.5309,-8.6178,-8.6499,-8.6334,-8.6767,-8.697,-8.6995,-8.6995,-8.6995,-8.6995,-8.6995,-8.6995,-8.6958,-8.6444,-8.6077,-8.5783,-8.5783,-8.5783,-8.5857,-8.6371,-8.6297,-8.604,-8.604,-8.6261,-8.6518,-8.6518,-8.6775,-8.6995,-8.6995,-8.6995,-8.6891,-8.6427,-8.632,-8.6028,-8.4888,-8.4289,-8.3755,-8.306,-8.2014,-8.1222,-8.1222,-8.0656,-8.0716,-8.2205,-8.2408,-8.2949,-8.4437,-8.464,-8.464,-8.464,-8.464,-8.464,-8.464,-8.464,-8.464,-8.464,-8.4336,-8.4167,-8.4167,-8.3896,-8.3862,-8.4167,-8.4167,-8.4336,-8.464,-8.4336,-8.4167,-8.4167,-8.3693,-8.4133,-7.9094,-7.928,-7.929,-7.968,-7.9129,-7.7512,-7.3649,-7.1363,-6.8893,-6.4741,-6.2033,-6.081,-6.2151,-6.1715,-6.2511,-6.6684,-6.863,-7.0275,-7.2239,-7.3487,-7.4882,-7.6754,-7.7488,-7.8809,-8.1232,-8.1929,-8.2186,-8.2186,-8.2186,-8.2186,-8.2186,-8.2957,-8.3398,-8.3398,-8.4168,-8.4976,-8.5783,-8.5233,-8.5295,-8.5954,-8.5954,-8.5797,-8.5478,-8.6375,-8.669,-8.6523,-8.6863,-8.6995,-8.6995,-8.6995,-8.6995,-8.6995,-8.6995,-8.6995,-8.6921,-8.6371,-8.6151,-8.6151,-8.6151,-8.6283,-8.6557,-8.688,-8.7166,-8.7261,-8.7064,-8.6995,-8.6995,-8.6995,-8.6995,-8.6995,-8.6995,-8.6995,-8.7068,-8.7325,-8.7362,-8.7224,-8.6609,-8.6231,-8.5696,-8.4681,-8.3244,-8.2199,-8.191,-8.0966,-8.0716,-8.2205,-8.2408,-8.2949,-8.4437,-8.464,-8.4708,-8.4945,-8.4979,-8.4877,-8.464,-8.4843,-8.4877,-8.464,-8.464,-8.4766,-8.5118,-8.5118,-8.5118,-8.5118,-8.5118,-8.4943,-8.464,-8.464,-8.464,-8.4606,-8.3862,-8.4065,-7.939,-7.9515,-7.9491,-8.0788,-7.9327,-7.6878,-7.4143,-7.1538,-6.8611,-6.4688,-6.2574,-6.1609,-6.2296,-6.1672,-6.2279,-6.5939,-6.6544,-6.7944,-7.1945,-7.2532,-7.3413,-7.5836,-7.613,-7.7084,-7.958,-8.1269,-8.2186,-8.2186,-8.2186,-8.2186,-8.2186,-8.2957,-8.3398,-8.3398,-8.4168,-8.4976,-8.5783,-8.5783,-8.6107,-8.678,-8.678,-8.6363,-8.5619,-8.6438,-8.6455,-8.5854,-8.6664,-8.6995,-8.6995,-8.6995,-8.6995,-8.6995,-8.6995,-8.6995,-8.6995,-8.6995,-8.6995,-8.6995,-8.6995,-8.7456,-8.7954,-8.7231,-8.7489,-8.7923,-8.7231,-8.6995,-8.6995,-8.6995,-8.6995,-8.6995,-8.6995,-8.6995,-8.7215,-8.7986,-8.8206,-8.839,-8.9198,-8.8467,-8.7447,-8.6613,-8.4624,-8.2823,-8.2014,-8.0966,-8.0716,-8.2205,-8.2408,-8.2949,-8.4437,-8.464,-8.4911,-8.5689,-8.5757,-8.5452,-8.4674,-8.5317,-8.5452,-8.4674,-8.464,-8.517,-8.6316,-8.6365,-8.6365,-8.6365,-8.6365,-8.5786,-8.464,-8.464,-8.464,-8.4606,-8.3862,-8.349,-7.6893,-7.7544,-7.7854,-7.7647,-7.6602,-7.4927,-7.2332,-7.0667,-6.8871,-6.5882,-6.414,-6.3242,-6.371,-6.2786,-6.3134,-6.6732,-6.731,-6.8348,-7.1284,-7.2614,-7.4008,-7.5873,-7.8552,-8.0571,-8.1342,-8.1893,-8.2186,-8.2186,-8.2186,-8.2186,-8.2186,-8.2957,-8.3654,-8.4205,-8.5013,-8.582,-8.6628,-8.5527,-8.5367,-8.6111,-8.5558,-8.5447,-8.5742,-8.6554,-8.6792,-8.6628,-8.6885,-8.6995,-8.6995,-8.6995,-8.6995,-8.6995,-8.6995,-8.6995,-8.6995,-8.6995,-8.6995,-8.6995,-8.6995,-8.7456,-8.8046,-8.7836,-8.822,-8.8636,-8.7954,-8.7394,-8.6995,-8.6995,-8.6995,-8.6995,-8.6995,-8.7435,-8.7876,-8.8133,-8.861,-8.9087,-8.9308,-8.913,-8.8618,-8.7815,-8.643,-8.5067,-8.4001,-8.2871,-8.2379,-8.3071,-8.3152,-8.3524,-8.4505,-8.508,-8.552,-8.5757,-8.6704,-8.6771,-8.552,-8.5655,-8.5452,-8.4674,-8.464,-8.517,-8.6365,-8.6414,-8.6769,-8.7585,-8.6817,-8.6217,-8.5836,-8.4961,-8.464,-8.464,-8.4911,-8.4776,-7.4476,-7.5899,-7.6669,-7.613,-7.4861,-7.3245,-7.1321,-6.9783,-6.8167,-6.6282,-6.4972,-6.4267,-6.4596,-6.3728,-6.3811,-6.6486,-6.7013,-6.8129,-7.1165,-7.2307,-7.3604,-7.5836,-7.9433,-8.1636,-8.1305,-8.2113,-8.2517,-8.2223,-8.2186,-8.2186,-8.2186,-8.27,-8.3324,-8.4132,-8.5233,-8.604,-8.6554,-8.5857,-8.5747,-8.6261,-8.5747,-8.5783,-8.6261,-8.6775,-8.6995,-8.6995,-8.6995,-8.6995,0.0,-8.6995,-8.6995,-8.6995,-8.6995,-8.7163,-8.7394,-8.7098,-8.7163,-8.7427,-8.7427,-8.7709,-8.8137,-8.8426,-8.8972,-8.9404,-8.8383,-8.7586,-8.6995,-8.6995,-8.6995,-8.7068,-8.7362,-8.7839,-8.8353,-8.8977,-8.9491,-8.9968,-9.0262,-9.0335,-9.0005,-8.8867,-8.7993,-8.6957,-8.5621,-8.4297,-8.3597,-8.4113,-8.4165,-8.4438,-8.5189,-8.6405,-8.7313,-8.7588,-8.8726,-8.8759,-8.7104,-8.6486,-8.5757,-8.4708,-8.464,-8.5344,-8.7008,-8.7104,-8.7631,-8.8841,-8.8178,-8.7573,-8.7104,-8.5887,-8.5155,-8.4865,-8.5211,-8.4945,0.0,-7.4245,-7.5553,-7.5476,-7.3668,-7.1706,-7.0821,-6.8783,0.0,-6.5974,-6.5166,-6.4718,-6.51,-6.4451,-6.4253,-6.571,-6.6111,-6.7654,-7.169,-7.2105,-7.312,-7.6093,-7.9286,-8.0938,-8.0131,-8.2076,-8.3104,-8.2333,-8.2223,-8.2186,-8.2186,-8.2186,-8.2553,-8.3287,-8.4866,-8.5747,-8.5783,-8.6554,-8.6958,-8.6995,-8.6958,-8.6958,-8.6995,-8.6995,-8.6995,-8.6995,-8.6995,-8.6995,-8.6995,-8.6995,-8.6995,-8.7031,-8.7064,-8.7526,-8.8015,-8.7328,-8.7521,-8.8167,-8.8107,-8.8167,-8.8367,-8.9118,-8.9855,-9.0227,-8.877,-8.7794,-8.7137,-8.7031,-8.7066,-8.7355,-8.809,-8.8347,-8.8825,-9.0332,-9.0665,-9.0886,-9.1657,-9.1803,-9.1326,-8.9821,-8.9234,-8.8541,-8.6941,-8.5489,-8.476,-8.5415,-8.552,-8.5763,-8.6457,-8.8311,-8.9862,-9.0524,-9.135,-9.1022,-8.9105,-8.7791,-8.6339,-8.4708,-8.466,-8.5735,-8.8088,-8.8268,-8.8884,-9.0087,-9.0155,-8.9576,-8.8284,-8.7148,-8.6206,-8.543,-8.4932,-8.4302,-6.7244,0.0,-7.1014,-7.036,-6.9744,-6.9052,0.0,-6.7513,-6.6667,-6.5205,-6.4743,-6.491,-6.5902,-6.4832,-6.5014,-6.8808,-6.8909,-6.9798,-7.3403,-7.672,-7.8993,-7.9764,-8.215,-8.3434,-8.2627,-8.3067,-8.3324,-8.3141,-8.2553,-8.2186,-8.2186,-8.2186,-8.2296,-8.248,-8.4058,-8.5159,-8.5783,-8.5967,-8.6407,-8.6995,-8.6371,-8.6407,-8.6995,-8.6995,-8.6995,-8.6995,-8.6995,-8.6995,-8.6995,-8.6995,-8.6995,-8.7064,-8.7618,-8.796,-8.8076,-8.7929,-8.8279,-8.8774,-8.8279,-8.8774,-8.9854,-9.1271,-9.1472,-9.1131,-9.0868,-8.9839,-8.852,-8.7347,-8.7833,-8.879,-8.9013,-8.9947,-9.0987,-9.1358,-9.1489,-9.1583,-9.1767,-9.1803,-9.151,-9.0519,-9.0264,-8.9784,-8.8465,-8.7972,-8.7665,-8.7518,-8.7523,-8.7558,-8.7734,-8.9279,-9.0383,-9.056,-9.1268,-9.1305,-9.0294,-8.9086,-8.7263,-8.4761,-8.5464,-8.6658,-8.8133,-8.9093,-9.0127,-9.136,-9.1136,-9.0443,-8.9189,-8.8558,-8.785,-8.7107,-8.6041,-8.5114,-6.4474,-6.7167,-6.9667,-6.959,-6.9283,-6.8859,-6.8398,-6.7398,-6.6282,-6.5397,-6.5205,-6.55,-6.6524,-6.6916,-6.7645,-6.9473,-7.1116,-7.2868,-7.493,-7.8578,-8.1012,-8.1012,-8.3141,-8.4425,-8.3985,-8.3948,-8.3801,-8.3434,-8.2663,-8.2186,-8.2186,-8.2186,-8.237,-8.2737,-8.3948,-8.4792,-8.5233,-8.5967,-8.6591,-8.6995,-8.6554,-8.6591,-8.6995,-8.6995,-8.6995,-8.6995,-8.6995,-8.6995,-8.6995,-8.6995,-8.7197,-8.7521,-8.7923,-8.8475,-8.899,-8.8663,-8.899,-8.9525,-8.911,-8.9982,-9.1354,-9.2275,-9.2811,-9.2856,-9.1887,-9.1028,-8.9959,-8.8069,-8.8405,-8.9367,-8.974,-9.1021,-9.2249,-9.2262,-9.2332,-9.2227,-9.1875,-9.1803,-9.1546,-9.0776,-9.0922,-9.0814,-8.9778,-8.9531,-8.9333,-8.9064,-8.9371,-8.9629,-8.9629,-9.1534,-9.2839,-9.2839,-9.3193,-9.2906,-9.1567,-9.055,-8.8885,-8.642,-8.6865,-8.7769,-8.8971,-8.9677,-9.0816,-9.2354,-9.2231,-9.201,-9.1727,-9.0918,-8.9965,-8.9008,-8.7432,-8.6125,-6.3397,-6.6705,-6.9898,-6.9937,-6.9706,-6.9436,-6.9167,-6.7436,-6.5859,-6.5743,-6.582,-6.632,-6.7628,-6.9242,-7.0354,-7.015,-7.3391,-7.6144,-7.6891,-7.9606,-8.1562,-8.1562,-8.3581,-8.4939,-8.4792,-8.4792,-8.4462,-8.3654,-8.2847,-8.2333,-8.2186,-8.2186,-8.2517,-8.3214,-8.4132,-8.4609,-8.4609,-8.6224,-8.6995,-8.6995,-8.6995,-8.6995,-8.6995,-8.6995,-8.6995,-8.6995,-8.6995,-8.6995,-8.6995,-8.6995,-8.7427,-8.8107,-8.819,-8.9016,-8.999,-8.9377,-8.9597,-9.0284,-9.0436,-9.1355,-9.2561,-9.2957,-9.3848,-9.4427,-9.2392,-9.1601,-9.099,-8.8827,-8.891,-8.9803,-9.0482,-9.1893,-9.3186,-9.332,-9.314,-9.283,-9.2124,-9.1875,-9.1583,-9.0922,-9.1326,-9.1583,-9.0922,-9.0545,-9.0393,-9.0465,-9.1121,-9.1627,-9.1736,-9.4056,-9.5658,-9.5511,-9.5511,-9.4763,-9.294,-9.1917,-9.0604,-8.8833,-8.8579,-8.9014,-9.0208,-9.032,-9.1227,-9.3051,-9.3235,-9.3675,-9.4483,-9.3397,-9.2245,-9.1012,-8.8899,-8.7245,-6.4859,-6.8052,-6.9898,-6.6436,-6.709,-6.8244,-6.6821,-6.6167,-6.5705,-6.4936,-6.5397,-6.7013,-7.0744,-6.9574,-6.9823,-7.5339,-7.7122,-7.8505,-8.0654,-8.275,-8.4058,-8.4058,-8.56,-8.6371,-8.5673,-8.56,-8.527,-8.4499,-8.3691,-8.292,-8.2223,-8.2186,-8.226,-8.237,-8.3838,-8.4609,-8.4609,-8.6224,-8.6995,-8.6995,-8.6995,-8.6995,-8.6995,-8.6995,-8.6995,-8.6995,-8.6995,-8.6995,-8.6995,-8.6995,-8.7427,-8.8167,-8.8719,-8.9426,-8.999,-8.9377,-8.9916,-9.1141,-9.1871,-9.231,-9.2731,-9.4176,-9.4309,-9.3717,-9.2885,-9.1676,-9.0248,-8.8646,-8.969,-9.1278,-9.1391,-9.31,-9.4834,-9.4853,-9.3907,-9.2955,-9.2826,-9.2262,-9.1767,-9.1657,-9.173,-9.1767,-9.1657,-9.1584,-9.1802,-9.2535,-9.2754,-9.3084,-9.3743,-9.5435,-9.6245,-9.5584,-9.5511,-9.5106,-9.4111,-9.2608,-9.1581,-9.1249,-9.0284,-9.0284,-9.1472,-9.1546,-9.2023,-9.3088,-9.3749,-9.452,-9.5327,-9.4736,-9.3999,-9.3143,-9.0055,-8.82,-6.4051,-6.6628,-6.859,-6.7628,-7.0369,-7.3198,-7.2803,-7.1456,-7.012,-6.9519,-6.9433,-7.0287,-7.3048,-7.3484,-7.5132,-8.033,-7.9635,-7.9261,-8.1662,-8.278,-8.3618,-8.4499,-8.5637,-8.6371,-8.6444,-8.604,-8.5453,-8.4646,-8.3875,-8.3067,-8.2223,-8.2627,-8.3067,-8.3471,-8.4646,-8.5453,-8.5894,-8.6628,-8.6995,-8.6995,-8.6995,-8.6995,-8.6995,-8.6995,-8.6995,-8.6995,-8.6995,-8.6995,-8.7029,-8.7427,-8.8015,-8.8691,-8.9364,-8.9832,-9.0073,-8.9763,-9.0355,-9.147,-9.2735,-9.3441,-9.4057,-9.5288,-9.5095,-9.4273,-9.3578,-9.225,-9.0726,-8.9733,-9.049,-9.159,-9.159,-9.3669,-9.57,-9.5295,-9.4372,-9.3507,-9.3083,-9.2735,-9.2501,-9.2501,-9.2831,-9.3015,-9.2574,-9.2868,-9.3125,-9.3125,-9.3859,-9.4703,-9.5474,-9.6612,-9.7052,-9.6245,-9.5768,-9.4997,-9.3749,-9.2501,-9.1803,-9.1803,-9.1249,-9.1211,-9.1803,-9.1803,-9.2391,-9.3712,-9.3675,-9.4263,-9.5511,-9.5264,-9.4632,-9.3579,-9.0995,-8.9479,-6.4243,-6.6205,-6.8398,-7.0167,-7.3204,-7.6135,-7.7578,-7.5437,-7.3347,-7.3975,-7.3707,-7.3827,-7.5311,-7.7555,-8.0006,-8.2645,-8.1168,-8.0461,-8.2733,-8.303,-8.3581,-8.5013,-8.571,-8.6334,-8.6958,-8.6444,-8.5673,-8.4682,-8.4022,-8.3251,-8.226,-8.2957,-8.3691,-8.4315,-8.527,-8.6077,-8.6701,-8.6921,-8.6995,-8.6995,-8.6995,-8.6995,-8.6995,-8.6995,-8.6995,-8.6995,-8.6995,-8.7098,-8.7295,-8.7867,-8.8589,-8.9402,-8.9901,-8.999,-8.9878,-9.0013,-9.0562,-9.14,-9.3122,-9.4249,-9.5095,-9.5788,-9.5403,-9.4541,-9.3841,-9.2595,-9.1301,-9.0887,-9.1451,-9.2101,-9.1945,-9.4067,-9.6155,-9.5576,-9.4891,-9.4157,-9.3417,-9.33,-9.3307,-9.3125,-9.3749,-9.4079,-9.3492,-9.3896,-9.4153,-9.3749,-9.4887,-9.6061,-9.6869,-9.7676,-9.7787,-9.6795,-9.5988,-9.4777,-9.2941,-9.217,-9.1803,-9.1803,-9.1803,-9.1803,-9.1803,-9.1803,-9.2574,-9.4263,-9.3529,-9.3896,-9.5511,-9.5327,-9.4721,-9.3737,-9.1734,-9.0737,-6.759,-6.9321,-7.1052,-7.2783,-7.1911,-7.1603,-7.5311,-7.3303,-7.163,-7.5104,-7.5944,-7.6479,-7.7939,-7.9842,-8.0887,-7.9893,-8.1522,-8.3499,-8.5294,-8.5527,-8.5857,-8.6738,-8.6885,-8.6958,-8.6995,-8.6958,-8.6261,-8.4719,-8.4535,-8.3838,-8.226,-8.2957,-8.3434,-8.3508,-8.4976,-8.582,-8.5894,-8.6628,-8.6995,-8.6995,-8.6995,-8.6995,-8.6995,-8.6995,-8.6995,-8.6995,-8.6995,-8.7394,-8.8015,-8.8076,-8.8856,-9.0013,-9.0095,-8.974,-8.9276,-8.9878,-9.0248,-9.0764,-9.2966,-9.4249,-9.5018,-9.5057,-9.448,-9.3657,-9.2984,-9.216,-9.1416,-9.1494,-9.2594,-9.3578,-9.2893,-9.4502,-9.6269,-9.6232,-9.5678,-9.4915,-9.4184,-9.4084,-9.3928,-9.3235,-9.3749,-9.4263,-9.4226,-9.4263,-9.452,-9.5217,-9.6061,-9.6906,-9.7713,-9.8521,-9.8411,-9.6869,-9.5988,-9.452,-9.2097,-9.184,-9.1803,-9.1803,-9.1803,-9.1803,-9.1803,-9.1803,-9.2574,-9.4263,-9.3529,-9.3896,-9.5511,-9.474,-9.4335,-9.4223,-9.2224,-9.1649,-6.6667,-6.8821,-7.1321,-7.3053,-7.3383,-7.4295,-7.8285,-7.79,-7.7225,-7.8999,-7.949,-7.9709,-8.0043,-8.2526,-8.384,-8.1834,-8.3321,-8.4933,-8.5698,-8.5783,-8.6077,-8.6921,-8.6995,-8.6995,-8.6995,-8.6995,-8.6554,-8.5416,-8.4866,-8.4315,-8.3728,-8.3985,-8.4389,-8.4866,-8.5967,-8.6554,-8.6554,-8.6848,-8.7252,-8.7729,-8.7252,-8.6995,-8.6995,-8.6995,-8.6995,-8.6995,-8.6995,-8.7129,-8.7456,-8.8359,-8.9043,-8.9538,-9.0006,-8.9522,-8.8635,-8.9817,-9.0638,-9.1394,-9.31,-9.4249,-9.498,-9.498,-9.4057,-9.2982,-9.3275,-9.2737,-9.2217,-9.2855,-9.3775,-9.44,-9.3692,-9.4866,-9.6288,-9.6288,-9.5385,-9.4424,-9.4157,-9.378,-9.345,-9.3162,-9.3749,-9.4153,-9.3639,-9.3969,-9.441,-9.4703,-9.5437,-9.6612,-9.8411,-9.8043,-9.7383,-9.6759,-9.4593,-9.2831,-9.1877,-9.2281,-9.2391,-9.184,-9.1803,-9.1803,-9.1803,-9.1803,-9.2574,-9.4263,-9.2978,-9.3088,-9.474,-9.3932,-9.3565,-9.3491,-9.1211,-9.0855,-6.7975,-6.9744,-7.2129,-7.386,-7.4708,-7.6188,-8.019,-8.0406,-8.0368,-8.2453,-8.2086,-8.1703,-8.2518,-8.4031,-8.4777,-8.3761,-8.5097,-8.6244,-8.6173,-8.6187,-8.6371,-8.6921,-8.6995,-8.6995,-8.6995,-8.6995,-8.6664,-8.5857,-8.5049,-8.4609,-8.4609,-8.4609,-8.4976,-8.5747,-8.6591,-8.6995,-8.6995,-8.6995,-8.7399,-8.8206,-8.7655,-8.7399,-8.7399,-8.7399,-8.7252,-8.6995,-8.6995,-8.7095,-8.746,-8.8608,-8.9402,-8.9831,-8.9916,-8.9523,-8.9018,-9.0248,-9.1234,-9.2189,-9.3598,-9.4672,-9.5365,-9.5095,-9.4018,-9.3018,-9.3864,-9.3518,-9.3138,-9.43,-9.502,-9.529,-9.4801,-9.5462,-9.6251,-9.6,-9.5166,-9.4319,-9.385,-9.3593,-9.3378,-9.3162,-9.3749,-9.4116,-9.3565,-9.3932,-9.4299,-9.4299,-9.5217,-9.6502,-9.8154,-9.7383,-9.6392,-9.5658,-9.3308,-9.1803,-9.1803,-9.2611,-9.2721,-9.184,-9.206,-9.2097,-9.1803,-9.206,-9.2868,-9.4263,-9.2905,-9.2905,-9.4299,-9.3235,-9.2684,-9.2647,-9.0995,-9.0859,-7.236,-7.2822,-7.3937,-7.5553,-7.554,-7.6137,-8.0213,-7.9495,-7.9578,-8.4984,-8.3478,-8.217,-8.5478,-8.4055,-8.3001,-8.4981,-8.6706,-8.7614,-8.7087,-8.6995,-8.6995,-8.6995,-8.6995,-8.6995,-8.6995,-8.6995,-8.6664,-8.5857,-8.5049,-8.4609,-8.4646,-8.4609,-8.4976,-8.5783,-8.6591,-8.6995,-8.6995,-8.6995,-8.7435,-8.8206,-8.8206,-8.8206,-8.8206,-8.8206,-8.7766,-8.6995,-8.7031,-8.7427,-8.8167,-8.8801,-8.9993,-9.1256,-8.9854,-8.979,-9.059,-9.1339,-9.2102,-9.2995,-9.4479,-9.5557,-9.6134,-9.5249,-9.4403,-9.3826,-9.4711,-9.4364,-9.4057,-9.5826,-9.6288,-9.6288,-9.6288,-9.6288,-9.6117,-9.5363,-9.5189,-9.4793,-9.3326,-9.3588,-9.3958,-9.3235,-9.3712,-9.4263,-9.4263,-9.4263,-9.4263,-9.4299,-9.5621,-9.6685,-9.6685,-9.6685,-9.5768,-9.3345,-9.2317,-9.1803,-9.1803,-9.2611,-9.2721,-9.184,-9.2611,-9.2721,-9.184,-9.2648,-9.3492,-9.4263,-9.3529,-9.3492,-9.4299,-9.2611,-9.1803,-9.1803,-9.1803,-9.201,-6.8321,-7.1437,-7.498,-7.3827,-7.6977,-8.0712,-8.1984,-8.0954,-8.078,-8.4611,-8.5131,-8.5149,-8.5967,-8.6582,-8.6587,-8.5474,-8.6834,-8.7779,-8.7095,-8.6995,-8.6995,-8.6995,-8.6995,-8.6995,-8.6995,-8.6995,-8.6921,-8.6664,-8.538,-8.5343,-8.7031,-8.5527,-8.549,-8.7435,-8.7178,-8.6995,-8.6995,-8.6995,-8.7692,-8.905,-8.905,-8.8757,-8.8206,-8.8206,-8.7766,-8.7031,-8.7619,-8.7647,-8.7394,-8.81,-8.899,-8.992,-9.0086,-8.9628,-8.9156,-9.1554,-9.2593,-9.2995,-9.4479,-9.5172,-9.5249,-9.4364,-9.3518,-9.3018,-9.3826,-9.3903,-9.4057,-9.5826,-9.6288,-9.6288,-9.6288,-9.5902,-9.549,-9.5234,-9.4398,-9.353,-9.3114,-9.2717,-9.2422,-9.2243,-9.2391,-9.2537,-9.2537,-9.2537,-9.2758,-9.3345,-9.3859,-9.4189,-9.4189,-9.4666,-9.4299,-9.2391,-9.195,-9.1803,-9.1803,-9.2611,-9.2721,-9.184,-9.2611,-9.2721,-9.184,-9.2648,-9.3492,-9.4263,-9.3529,-9.3492,-9.4299,-9.2611,-9.1803,-9.1803,-9.0945,-9.046,-7.2476,-7.5399,-7.8416,-7.8007,-7.9838,-8.196,-8.2723,-8.3111,-8.3974,-8.6468,-8.6643,-8.6699,-8.7927,-8.7983,-8.7649,-8.6908,-8.753,-8.7836,-8.7098,-8.6995,-8.6995,-8.6995,-8.6995,-8.6995,-8.6995,-8.6995,-8.6995,-8.6995,-8.582,-8.5857,-8.7619,-8.6334,-8.6371,-8.8133,-8.8059,-8.7949,-8.7949,-8.7655,-8.828,-8.9895,-8.9529,-8.916,-8.8683,-8.8683,-8.8243,-8.7509,-8.7986,-8.8267,-8.8384,-8.8211,-8.8987,-9.028,-9.0448,-9.0199,-8.9958,-9.2405,-9.331,-9.3487,-9.4594,-9.498,-9.4864,-9.398,-9.3172,-9.271,-9.3864,-9.398,-9.4057,-9.5826,-9.6288,-9.6232,-9.5961,-9.5318,-9.4768,-9.4768,-9.385,-9.2987,-9.2987,-9.2365,-9.1875,-9.2229,-9.2019,-9.1803,-9.1803,-9.1803,-9.1987,-9.2501,-9.2868,-9.3088,-9.3088,-9.3529,-9.3161,-9.151,-9.1913,-9.217,-9.184,-9.2905,-9.3235,-9.2354,-9.2831,-9.2721,-9.184,-9.2941,-9.3786,-9.4299,-9.3822,-9.3822,-9.4299,-9.2611,-9.1803,-9.1803,-9.1022,-9.0516,-8.0477,-8.1708,-8.2731,-8.5005,-8.3188,-8.1357,-8.3134,-8.57,-8.8121,-8.9417,-8.8021,-8.7517,-9.0633,-8.8692,-8.7192,-8.8847,-8.8532,-8.7836,-8.7098,-8.6995,-8.6995,-8.6995,-8.6995,-8.6995,-8.6995,-8.6995,-8.6995,-8.6995,-8.6261,-8.6224,-8.7178,-8.7031,-8.7325,-8.828,-8.8904,-8.9162,-8.9162,-8.8463,-8.8904,-9.0482,-8.9711,-8.9308,-8.9382,-8.9382,-8.9014,-8.8316,-8.8316,-8.9206,-9.0605,-8.8993,-8.9646,-9.1613,-9.0875,-9.1069,-9.1909,-9.3492,-9.4102,-9.4205,-9.4901,-9.5095,-9.498,-9.4095,-9.3364,-9.3133,-9.4557,-9.448,-9.4249,-9.5865,-9.6288,-9.6136,-9.549,-9.4768,-9.4211,-9.4211,-9.3559,-9.3019,-9.3083,-9.2465,-9.2124,-9.2863,-9.2331,-9.1803,-9.1803,-9.1803,-9.1803,-9.1803,-9.2464,-9.2978,-9.2978,-9.3051,-9.2501,-9.0886,-9.2134,-9.2758,-9.1877,-9.3272,-9.3859,-9.3161,-9.3088,-9.2758,-9.195,-9.3455,-9.4299,-9.4299,-9.4299,-9.4299,-9.4299,-9.2611,-9.1803,-9.1803,-9.1803,-9.1573,-7.3514,-7.7284,-8.1359,-8.1383,-8.294,-8.4898,-8.6355,-8.7781,-8.8653,-8.8176,-8.917,-9.0325,-9.1056,-9.0147,-8.9231,-8.9112,-8.8532,-8.7836,-8.7098,-8.6995,-8.6995,-8.6995,-8.6995,-8.6995,-8.6995,-8.6995,-8.6995,-8.6995,-8.6261,-8.6701,-8.8793,-8.7105,-8.6995,-8.9087,-8.8096,-8.7545,-8.7545,-8.7362,-8.8096,-8.9674,-8.883,-8.8793,-8.9382,-8.9382,-8.9344,-8.916,-8.916,-9.0442,-9.235,-9.0076,-9.0185,-9.1723,-9.0921,-9.0702,-9.11,-9.3305,-9.4102,-9.4281,-9.557,-9.6019,-9.5865,-9.498,-9.5057,-9.5403,-9.5095,-9.5365,-9.5826,-9.6211,-9.6288,-9.6251,-9.6117,-9.5533,-9.4939,-9.4939,-9.3963,-9.3177,-9.3735,-9.3264,-9.2798,-9.2955,-9.2331,-9.1803,-9.1803,-9.1803,-9.1803,-9.1803,-9.195,-9.206,-9.206,-9.2684,-9.2721,-9.1657,-9.2501,-9.2758,-9.1877,-9.2758,-9.3272,-9.3125,-9.3088,-9.3015,-9.2831,-9.3749,-9.4299,-9.4299,-9.4299,-9.4299,-9.4299,-9.2611,-9.1803,-9.1803,-9.1803,-9.1611,-7.5707,-7.8977,-8.1788,-8.2359,-8.4311,-8.6277,-8.6999,-8.8166,-8.9037,-8.8841,-9.0091,-9.121,-9.121,-9.0606,-8.9878,-8.9187,-8.8532,-8.7836,-8.7098,-8.6995,-8.6995,-8.6995,-8.6995,-8.6995,-8.6995,-8.6995,-8.6995,-8.6995,-8.6628,-8.7105,-8.8757,-8.8023,-8.8096,-8.9345,-8.8977,-8.8536,-8.8169,-8.7766,-8.8206,-8.9382,-8.8573,-8.861,-8.9382,-8.9382,-8.9638,-8.9968,-8.9968,-9.1179,-9.2978,-9.1253,-9.1289,-9.2391,-9.195,-9.1797,-9.1943,-9.3527,-9.4319,-9.4793,-9.5902,-9.6019,-9.5672,-9.5634,-9.5634,-9.5672,-9.5634,-9.5942,-9.6288,-9.6288,-9.6288,-9.6232,-9.5862,-9.549,-9.5189,-9.5189,-9.4345,-9.3618,-9.4019,-9.35,-9.2987,-9.2987,-9.2331,-9.1803,-9.1803,-9.1803,-9.1803,-9.1803,-9.1803,-9.195,-9.2354,-9.2464,-9.2281,-9.184,-9.2574,-9.2758,-9.1877,-9.2611,-9.3272,-9.3639,-9.3308,-9.3272,-9.3675,-9.4446,-9.4703,-9.4299,-9.4299,-9.4299,-9.4299,-9.2611,-9.1803,-9.1803,-9.2244,-9.2351,-7.8823,-8.1208,-8.2666,-8.494,-8.6153,-8.6806,-8.6952,-8.8166,-8.9476,-9.0138,-9.0762,-9.121,-9.121,-9.0723,-9.0028,-8.925,-8.8645,-8.7985,-8.7132,-8.6995,-8.6995,-8.6995,-8.6995,-8.6995,-8.6995,-8.6995,-8.6995,-8.6995,-8.7142,-8.7582,-8.8353,-8.905,-8.9455,-8.9565,-9.0005,-8.9895,-8.9234,-8.839,-8.839,-8.9197,-8.8683,-8.8904,-8.9821,-8.9821,-9.0188,-9.0812,-9.1106,-9.2097,-9.3455,-9.2427,-9.2537,-9.3272,-9.2978,-9.2857,-9.2891,-9.3793,-9.4476,-9.5142,-9.6154,-9.6019,-9.5557,-9.6442,-9.6365,-9.5942,-9.6365,-9.6596,-9.6673,-9.6365,-9.6288,-9.6155,-9.5555,-9.5385,-9.5385,-9.5385,-9.4842,-9.4292,-9.4292,-9.3589,-9.2987,-9.2987,-9.2331,-9.1803,-9.1803,-9.1803,-9.1803,-9.1803,-9.1803,-9.2097,-9.2978,-9.2574,-9.217,-9.2024,-9.2794,-9.2905,-9.1877,-9.2611,-9.3455,-9.4226,-9.3675,-9.3675,-9.4483,-9.5144,-9.518,-9.452,-9.452,-9.4446,-9.4299,-9.2758,-9.2024,-9.2024,-9.2758,-9.3272,-7.2168,-7.6746,-8.2192,-8.6142,-8.7274,-8.7638,-8.827,-8.9203,-9.016,-9.0895,-9.1118,-9.121,-9.121,-9.1118,-9.0606,-8.9327,-8.9043,-8.8494,-8.7197,-8.6995,-8.6995,-8.6995,-8.6995,-8.6995,-8.6995,-8.6995,-8.6995,-8.6995,-8.7655,-8.839,-8.9234,-8.9308,-8.9748,-9.0445,-8.9197,-8.8463,-8.8353,-8.7582,-8.7582,-8.839,-8.8977,-9.0041,-9.1473,-9.1473,-9.1546,-9.173,-9.3161,-9.4336,-9.507,-9.3565,-9.3418,-9.4006,-9.2537,-9.195,-9.2124,-9.3589,-9.4157,-9.4564,-9.6608,-9.725,-9.7326,-9.8173,-9.8904,-9.9135,-9.775,-9.7865,-9.8173,-9.6711,-9.6288,-9.6269,-9.6155,-9.6136,-9.6136,-9.6136,-9.5576,-9.5072,-9.5072,-9.3963,-9.2987,-9.2987,-9.2331,-9.1803,-9.1803,-9.1803,-9.1803,-9.1803,-9.1803,-9.2097,-9.2978,-9.3602,-9.3712,-9.3015,-9.3639,-9.3492,-9.1913,-9.2611,-9.3455,-9.4226,-9.4189,-9.4483,-9.5327,-9.5437,-9.5474,-9.5364,-9.5364,-9.4997,-9.4299,-9.3382,-9.2941,-9.2941,-9.3051,-9.3859,-7.3976,-7.84,-8.267,-8.644,-8.7868,-8.8374,-8.8644,-8.9439,-9.0305,-9.1026,-9.121,-9.121,-9.121,-9.121,-9.0858,-8.9832,-8.9377,-8.8746,-8.7773,-8.7265,-8.7178,-8.7619,-8.7655,-8.7876,-8.8316,-8.7949,-8.7655,-8.7655,-8.7986,-8.8573,-8.9345,-8.9858,-9.0225,-9.0592,-8.9491,-8.8683,-8.8206,-8.7399,-8.7655,-8.8904,-9.0188,-9.1613,-9.3202,-9.4057,-9.4036,-9.3235,-9.3969,-9.4777,-9.5437,-9.4263,-9.3969,-9.4189,-9.2978,-9.2495,-9.2599,-9.3706,-9.4636,-9.5665,-9.7572,-9.8211,-9.8442,-9.9788,-10.0212,-9.9942,-9.9173,-9.9211,-9.9173,-9.7442,-9.698,-9.6865,-9.6442,-9.6288,-9.6288,-9.6288,-9.5407,-9.4579,-9.4579,-9.3735,-9.2896,-9.2434,-9.2018,-9.1803,-9.1803,-9.1803,-9.1803,-9.1803,-9.2207,-9.2831,-9.3675,-9.4079,-9.4153,-9.3822,-9.3675,-9.3125,-9.1913,-9.2134,-9.2721,-9.3565,-9.4042,-9.4666,-9.5474,-9.5511,-9.5511,-9.5511,-9.5511,-9.5107,-9.4299,-9.3492,-9.2868,-9.2391,-9.2868,-9.3492,-7.5053,-7.8284,-8.0823,-8.5324,-8.7004,-8.7829,-8.8777,-8.9535,-9.026,-9.1062,-9.121,-9.121,-9.121,-9.121,-9.0895,-9.0006,-8.9451,-8.8801,-8.7923,-8.7512,-8.7545,-8.8133,-8.839,-8.8757,-8.9308,-8.8683,-8.8206,-8.8206,-8.839,-8.8793,-8.9345,-9.0372,-9.0922,-9.0922,-8.9931,-8.9234,-8.8793,-8.8206,-8.8647,-9.0041,-9.151,-9.3113,-9.4845,-9.6038,-9.608,-9.5184,-9.5184,-9.5295,-9.5437,-9.463,-9.4189,-9.3896,-9.3088,-9.2853,-9.3083,-9.3821,-9.5084,-9.6616,-9.8229,-9.8942,-9.9365,-10.0789,-10.0904,-10.0404,-10.0173,-10.0096,-9.975,-9.798,-9.7519,-9.7326,-9.6519,-9.6288,-9.6288,-9.6288,-9.5166,-9.3991,-9.3618,-9.3077,-9.2535,-9.1912,-9.1803,-9.1803,-9.1803,-9.1803,-9.1803,-9.1803,-9.2537,-9.3382,-9.4189,-9.4299,-9.4299,-9.4299,-9.3565,-9.2758,-9.1877,-9.1803,-9.217,-9.3051,-9.3859,-9.4666,-9.5474,-9.5511,-9.5511,-9.5511,-9.529,-9.4813,-9.3969,-9.3382,-9.2758,-9.2134,-9.3015,-9.3529,-7.1321,-7.2629,-7.4514,-8.1939,-8.3846,-8.4907,-8.8923,-8.9867,-9.0175,-9.1018,-9.121,-9.121,-9.121,-9.121,-9.0743,-8.9377,-8.911,-8.8608,-8.7265,-8.769,-8.8133,-8.8206,-8.8867,-8.9345,-8.9382,-8.8683,-8.8206,-8.8206,-8.8904,-8.9345,-8.9382,-9.0886,-9.173,-9.173,-9.0225,-8.9748,-9.0482,-9.0445,-9.0849,-9.1693,-9.2611,-9.4222,-9.6485,-9.6526,-9.694,-9.7617,-9.7617,-9.6797,-9.5437,-9.463,-9.3859,-9.3088,-9.2207,-9.2299,-9.3083,-9.3821,-9.5084,-9.6616,-9.8229,-9.9327,-10.0173,-10.1019,-10.1289,-10.1096,-10.0289,-10.0096,-9.975,-9.798,-9.7519,-9.7326,-9.6519,-9.6288,-9.6288,-9.6288,-9.5166,-9.3706,-9.2227,-9.1875,-9.1876,-9.1803,-9.1803,-9.1803,-9.1803,-9.1803,-9.1803,-9.1803,-9.2537,-9.3382,-9.4189,-9.4299,-9.4299,-9.4299,-9.3565,-9.2758,-9.1877,-9.1803,-9.217,-9.3051,-9.3859,-9.4666,-9.5474,-9.5511,-9.5511,-9.5474,-9.474,-9.3969,-9.3161,-9.3125,-9.3088,-9.3051,-9.3859,-9.4666,-7.1052,-7.2206,-7.336,-7.8323,-8.2016,-8.4824,-8.6363,-8.8786,-9.0979,-9.1864,-9.1595,-9.121,-9.121,-9.121,-9.0876,-8.9878,-8.9364,-8.8774,-8.7836,-8.7995,-8.839,-8.894,-8.9674,-9.0372,-9.0886,-8.9748,-8.9197,-8.9711,-8.9528,-8.9602,-9.0152,-9.1216,-9.1803,-9.1803,-9.0739,-9.0335,-9.0592,-9.1106,-9.2274,-9.4123,-9.4938,-9.6596,-9.8864,-9.8379,-9.829,-9.8522,-9.7498,-9.646,-9.5437,-9.463,-9.3822,-9.3015,-9.2134,-9.2296,-9.3083,-9.3821,-9.5084,-9.654,-9.7614,-9.8519,-9.9288,-9.9596,-10.0096,-10.0481,-10.0173,-10.0481,-10.0519,-9.8827,-9.8327,-9.8019,-9.6634,-9.6288,-9.604,-9.5119,-9.4476,-9.3677,-9.2159,-9.1803,-9.1803,-9.1803,-9.1803,-9.1803,-9.1803,-9.1803,-9.1803,-9.1803,-9.2537,-9.3198,-9.3492,-9.3969,-9.4079,-9.3565,-9.3272,-9.2758,-9.1877,-9.1803,-9.1913,-9.2244,-9.3051,-9.3675,-9.3969,-9.3969,-9.3969,-9.3969,-9.3125,-9.2831,-9.3088,-9.3088,-9.3088,-9.3125,-9.3418,-9.3969,-6.9321,-7.0283,-7.1514,-7.5784,-7.8784,-8.167,-8.567,-8.7902,-8.9825,-9.2364,-9.2441,-9.1964,-9.1721,-9.1683,-9.1237,-8.9992,-8.9629,-8.9187,-8.8238,-8.8659,-8.9197,-8.9748,-9.0519,-9.1216,-9.173,-9.0335,-8.9748,-9.0555,-8.9858,-8.9784,-9.0555,-9.1363,-9.1546,-9.1033,-9.1289,-9.1287,-9.1011,-9.2598,-9.4376,-9.6194,-9.6718,-9.7944,-9.9758,-9.8668,-9.8145,-9.8102,-9.6751,-9.5793,-9.5034,-9.4226,-9.3418,-9.2611,-9.2024,-9.2296,-9.3083,-9.3821,-9.5084,-9.6501,-9.723,-9.8057,-9.8788,-9.8788,-9.9365,-10.0096,-10.0096,-10.0481,-10.0596,-9.89,-9.8224,-9.7687,-9.6306,-9.6117,-9.5941,-9.445,-9.4102,-9.3677,-9.2159,-9.1803,-9.1803,-9.1803,-9.1803,-9.1803,-9.1803,-9.1803,-9.1803,-9.1803,-9.2537,-9.3088,-9.3088,-9.3565,-9.3675,-9.3161,-9.2831,-9.2427,-9.184,-9.1803,-9.1803,-9.1803,-9.2611,-9.3088,-9.3088,-9.3088,-9.3088,-9.3088,-9.2244,-9.206,-9.2648,-9.2648,-9.2831,-9.3125,-9.3382,-9.4373,0.0,0.0,0.0,-7.4245,-7.3976,-7.5245,-8.6786,-8.7017,-8.644,-9.2326,-9.3518,-9.3332,-9.2744,-9.2595,-9.1857,-8.9527,-8.9812,-8.9817,-8.8412,-8.9601,-9.0592,-9.0592,-9.1326,-9.1803,-9.1803,-9.0335,-8.9748,-9.0592,-8.9895,-8.9784,-9.0592,-9.1363,-9.1069,-8.9492,-9.1876,-9.2746,-9.1895,-9.5064,-9.7049,-9.7857,-9.7762,-9.8177,-9.8923,-9.7243,-9.6501,-9.6489,-9.5707,-9.4941,-9.4227,-9.3418,-9.2574,-9.1803,-9.1803,-9.2296,-9.3083,-9.3821,-9.5046,-9.6463,-9.723,-9.8019,-9.8711,-9.8711,-9.9327,-10.0115,-9.9981,-10.0115,-9.9768,-9.8105,-9.7043,-9.6203,-9.5417,-9.5741,-9.5941,-9.445,-9.4102,-9.3677,-9.2159,-9.1803,-9.1803,-9.1767,-9.1767,-9.1803,-9.1767,-9.1767,-9.1803,-9.1803,-9.2537,-9.3051,-9.3051,-9.3051,-9.3051,-9.3051,-9.2281,-9.1803,-9.1803,-9.1803,-9.1803,-9.1803,-9.2611,-9.3051,-9.3051,-9.3051,-9.3051,-9.3051,-9.2244,-9.1803,-9.1803,-9.1803,-9.2244,-9.3161,-9.3969,-9.6061,-6.5897,0.0,0.0,0.0,0.0,0.0,-7.7284,-8.0169,-8.3478,-8.8171,-8.9133,-9.0021,-9.2872,-9.2954,-9.2237,-9.1076,-9.0653,-9.0131,-8.9191,-8.9968,-9.0592,-9.0592,-9.1326,-9.1803,-9.1803,-9.0335,-8.9968,-9.1363,-9.0188,-9.0005,-9.14,-9.1693,-9.1583,-9.1143,-9.2954,-9.4057,-9.4398,-9.6417,-9.8149,-9.953,-9.8345,-9.8221,-9.8922,-9.6718,-9.571,-9.567,-9.4323,-9.392,-9.4194,-9.3417,-9.2574,-9.1803,-9.1803,-9.2296,-9.3083,-9.3821,-9.4705,-9.5623,-9.6385,-9.6788,-9.698,-9.698,-9.798,-9.9019,-9.8404,-9.9096,-9.9614,-9.7394,-9.6585,-9.6203,-9.5417,-9.5741,-9.5941,-9.445,-9.4102,-9.3677,-9.2159,-9.1803,-9.162,-9.1033,-9.14,-9.162,-9.1033,-9.14,-9.1803,-9.1803,-9.2024,-9.217,-9.217,-9.217,-9.217,-9.217,-9.195,-9.1803,-9.1803,-9.1803,-9.1803,-9.1803,-9.2024,-9.217,-9.217,-9.217,-9.217,-9.217,-9.1913,-9.1803,-9.1803,-9.1803,-9.2537,-9.4006,-9.5401,-9.6832,-6.659,-6.6667,-6.7128,-6.7821,0.0,0.0,-7.713,-7.9746,-8.3016,-8.9748,-9.1095,-9.1754,-9.3926,-9.3961,-9.3359,-9.2354,-9.1844,-9.1177,-9.0038,-9.0592,-9.1106,-9.1106,-9.151,-9.1803,-9.1803,-9.0665,-9.0445,-9.1693,-9.0629,-9.0482,-9.173,-9.1803,-9.1657,-9.1326,-9.3193,-9.4596,-9.5381,-9.6931,-9.8529,-10.0098,-9.8148,-9.7475,-9.7895,-9.548,-9.4392,-9.439,-9.3474,-9.3273,-9.37,-9.357,-9.3207,-9.2728,-9.2397,-9.2566,-9.3083,-9.3821,-9.4372,-9.4891,-9.5961,-9.6288,-9.6288,-9.6288,-9.7173,-9.8173,-9.7634,-9.8211,-9.8614,-9.652,-9.5717,-9.5338,-9.4857,-9.5533,-9.5941,-9.445,-9.4102,-9.3677,-9.2159,-9.1803,-9.1657,-9.1179,-9.1473,-9.1657,-9.1179,-9.1473,-9.1803,-9.1803,-9.1803,-9.1803,-9.1803,-9.1803,-9.1803,-9.1803,-9.1803,-9.1803,-9.1803,-9.1803,-9.1803,-9.1803,-9.1803,-9.195,-9.2317,-9.2354,-9.2501,-9.2831,-9.2831,-9.2868,-9.2831,-9.2134,-9.2648,-9.4336,-9.5951,-9.7126,-6.7936,-6.8013,-6.8975,-7.0167,-6.9129,0.0,-8.0631,-8.1554,-8.2862,-9.2133,-9.4134,-9.4158,-9.3955,-9.3937,-9.3476,-9.2069,-9.2213,-9.2124,-9.0919,-9.1363,-9.1803,-9.1803,-9.1803,-9.1803,-9.1803,-9.1069,-9.0922,-9.173,-9.1214,-9.114,-9.1767,-9.1875,-9.1581,-9.0882,-9.3107,-9.4744,-9.5653,-9.7032,-9.8528,-10.0096,-9.7604,-9.6375,-9.63,-9.403,-9.2977,-9.2941,-9.2966,-9.2987,-9.3083,-9.3878,-9.4184,-9.4047,-9.3295,-9.2987,-9.3083,-9.3735,-9.4047,-9.4292,-9.57,-9.6232,-9.6288,-9.6288,-9.6826,-9.748,-9.7403,-9.7442,-9.7152,-9.5589,-9.4603,-9.3991,-9.4075,-9.5142,-9.5841,-9.4528,-9.4157,-9.3706,-9.2262,-9.1839,-9.184,-9.1913,-9.1877,-9.1803,-9.1803,-9.1803,-9.1803,-9.1803,-9.1803,-9.1803,-9.1803,-9.1803,-9.1803,-9.1803,-9.1803,-9.1803,-9.1803,-9.1803,-9.1803,-9.1803,-9.1877,-9.2244,-9.2941,-9.3125,-9.3529,-9.4153,-9.4337,-9.4374,-9.4301,-9.2978,-9.3051,-9.4446,-9.5988,-9.7089,-7.0206,-6.9783,-7.0014,-6.8282,-7.0052,0.0,-7.0821,-7.286,-7.5938,-7.9285,-8.0516,-8.1984,-8.5284,-8.5934,-8.5714,-8.4727,-8.7487,-9.0221,-9.1395,-9.1693,-9.1803,-9.1803,-9.1803,-9.1803,-9.1803,-9.1069,-9.0922,-9.173,-9.2251,-9.2316,-9.1803,-9.2434,-9.2691,-9.2542,-9.4175,-9.5777,-9.7257,-9.8134,-9.9076,-10.0096,-9.7604,-9.6096,-9.546,-9.3768,-9.2643,-9.2096,-9.2707,-9.2987,-9.3114,-9.4424,-9.4668,-9.4047,-9.3295,-9.2987,-9.3019,-9.3177,-9.3589,-9.4238,-9.5119,-9.5821,-9.6288,-9.6288,-9.6826,-9.7365,-9.6749,-9.698,-9.7075,-9.4945,-9.379,-9.3356,-9.3963,-9.4768,-9.5341,-9.5072,-9.4528,-9.385,-9.2955,-9.2264,-9.2024,-9.2721,-9.2281,-9.1803,-9.1803,-9.1803,-9.1803,-9.1803,-9.1803,-9.1803,-9.1803,-9.1803,-9.1803,-9.1803,-9.1803,-9.1803,-9.1803,-9.1803,-9.1803,-9.1803,-9.2464,-9.2611,-9.206,-9.3345,-9.3822,-9.3345,-9.4595,-9.4963,-9.43,-9.5254,-9.5547,-9.5292,-9.6245,-9.6795,-7.1552,-7.0591,-7.0706,-6.986,-7.0321,0.0,0.0,-7.3476,-7.5168,-7.9015,-8.0131,-8.1093,-8.3208,-8.3662,-8.3563,-8.3229,-8.6374,-8.8657,-8.7965,-9.0807,-9.295,-9.295,-9.2595,-9.2399,-9.2399,-9.1686,-9.1542,-9.2328,-9.2798,-9.2987,-9.295,-9.3319,-9.353,-9.353,-9.4643,-9.602,-9.7691,-9.7611,-9.8173,-9.9404,-9.697,-9.5596,-9.5211,-9.3687,-9.2987,-9.2982,-9.3349,-9.3764,-9.4184,-9.5295,-9.5533,-9.5096,-9.3991,-9.353,-9.353,-9.353,-9.3793,-9.4265,-9.5363,-9.6,-9.6288,-9.6288,-9.6557,-9.6826,-9.6442,-9.6069,-9.5496,-9.3991,-9.3295,-9.3177,-9.3907,-9.4668,-9.5189,-9.5036,-9.4529,-9.3794,-9.2661,-9.2442,-9.2684,-9.3529,-9.3345,-9.2905,-9.2501,-9.2097,-9.1803,-9.1803,-9.1803,-9.1803,-9.1803,-9.1803,-9.1803,-9.1803,-9.1803,-9.1803,-9.1803,-9.1803,-9.1987,-9.2427,-9.2868,-9.3272,-9.3602,-9.4446,-9.4887,-9.4887,-9.6065,-9.6285,-9.5511,-9.6722,-9.6685,-9.5511,-9.6318,-9.6685,-7.3553,-7.2245,-7.2283,-7.2014,-7.0898,-7.0975,0.0,0.0,0.0,-7.9746,-8.0669,-8.0669,-8.0669,-8.0939,-8.108,-8.085,-8.4342,-8.599,-8.2831,-8.8115,-9.229,-9.214,-9.2661,-9.2726,-9.2061,-9.1293,-9.1378,-9.2886,-9.2523,-9.2763,-9.4037,-9.4238,-9.4319,-9.4319,-9.5043,-9.6211,-9.7914,-9.6998,-9.7288,-9.8788,-9.6504,-9.5341,-9.5166,-9.3963,-9.3677,-9.4102,-9.4265,-9.4553,-9.5072,-9.5961,-9.6232,-9.5961,-9.4604,-9.4102,-9.4102,-9.3935,-9.3991,-9.4292,-9.5657,-9.6174,-9.6288,-9.6288,-9.6288,-9.6269,-9.6136,-9.5142,-9.3963,-9.3202,-9.2858,-9.2987,-9.3878,-9.4642,-9.5186,-9.5111,-9.4819,-9.4161,-9.2703,-9.2878,-9.3565,-9.4373,-9.441,-9.4153,-9.3639,-9.2868,-9.2207,-9.206,-9.206,-9.1987,-9.1803,-9.195,-9.206,-9.206,-9.2207,-9.228,-9.228,-9.228,-9.2611,-9.3272,-9.3602,-9.4227,-9.5217,-9.5438,-9.5878,-9.6685,-9.746,-9.7497,-9.6685,-9.753,-9.7163,-9.5768,-9.6392,-9.6685,-7.813,-7.7092,-7.6592,-7.2129,-7.3091,-7.3937,-6.9436,0.0,-7.1091,-7.0283,0.0,-7.0129,-7.0129,0.0,0.0,-7.0392,-7.6156,-7.9905,-7.7269,-8.2105,-8.5704,-8.5147,-8.9735,-9.1801,-8.8772,-8.7687,-8.8795,-9.2726,-9.0695,-9.0697,-9.3941,-9.4743,-9.5072,-9.5072,-9.5852,-9.7025,-9.8673,-9.7789,-9.7865,-9.8788,-9.7039,-9.5841,-9.5189,-9.5048,-9.463,-9.413,-9.4793,-9.4768,-9.4345,-9.572,-9.5902,-9.5234,-9.4424,-9.4102,-9.4019,-9.3356,-9.353,-9.4211,-9.5048,-9.5741,-9.6288,-9.6288,-9.6288,-9.6155,-9.5533,-9.4768,-9.3963,-9.3202,-9.2502,-9.2262,-9.3735,-9.4713,-9.5425,-9.6015,-9.6162,-9.5923,-9.4792,-9.4351,-9.441,-9.5217,-9.4777,-9.4484,-9.5108,-9.4522,-9.3749,-9.3051,-9.2941,-9.2684,-9.1877,-9.2464,-9.2941,-9.2941,-9.3603,-9.4044,-9.4044,-9.4044,-9.4043,-9.4154,-9.5478,-9.5736,-9.4483,-9.5109,-9.588,-9.6685,-9.746,-9.7497,-9.6685,-9.7497,-9.7423,-9.6575,-9.6649,-9.6685,-7.8361,-7.8246,-7.84,-7.4745,-7.4938,-7.5091,-7.1629,-7.0514,-7.0014,-6.9321,0.0,0.0,0.0,0.0,0.0,0.0,-7.463,-7.7476,-7.4899,-8.0092,-8.4059,-8.3771,-8.5606,-8.7155,-8.7698,-8.7056,-8.8757,-9.3909,-9.0879,-9.0727,-9.5134,-9.5678,-9.5841,-9.5841,-9.6148,-9.7152,-9.8788,-9.7942,-9.7942,-9.8788,-9.7557,-9.6597,-9.5841,-9.5385,-9.5234,-9.5363,-9.5234,-9.5273,-9.5407,-9.604,-9.6117,-9.5762,-9.5048,-9.4743,-9.4718,-9.4398,-9.4476,-9.4842,-9.5576,-9.602,-9.6288,-9.6288,-9.5924,-9.532,-9.4755,-9.4047,-9.3295,-9.2498,-9.2053,-9.2053,-9.3171,-9.4394,-9.5798,-9.7767,-9.7715,-9.6956,-9.6072,-9.5769,-9.5619,-9.5514,-9.5584,-9.5806,-9.6173,-9.5147,-9.4043,-9.3235,-9.3088,-9.2978,-9.261,-9.2904,-9.3272,-9.3747,-9.4113,-9.4297,-9.4297,-9.4741,-9.5184,-9.5625,-9.6763,-9.6907,-9.5731,-9.6026,-9.6356,-9.6685,-9.7017,-9.7054,-9.6685,-9.7054,-9.7274,-9.7383,-9.7383,-9.7163,-8.0266,-8.0299,-8.03,-7.6657,-7.5677,-7.5014,-7.2629,-7.1052,-6.9975,-6.9744,-7.0052,0.0,0.0,0.0,-7.0167,-7.0514,0.0,-7.5091,-7.2783,-7.7092,-8.0554,-8.0785,-8.1001,-8.238,-8.5675,-8.4615,-8.6437,-9.2962,-8.969,-8.9994,-9.6,-9.6288,-9.6288,-9.6288,-9.6519,-9.7326,-9.8788,-9.7942,-9.7942,-9.8788,-9.7673,-9.6865,-9.6269,-9.5741,-9.5783,-9.6269,-9.572,-9.5821,-9.6288,-9.6288,-9.6288,-9.6251,-9.572,-9.5511,-9.549,-9.5257,-9.5189,-9.5318,-9.604,-9.6288,-9.6288,-9.6288,-9.5609,-9.4706,-9.4243,-9.3559,-9.2826,-9.2055,-9.195,-9.2314,-9.3132,-9.4647,-9.6615,-9.9016,-9.8959,-9.8133,-9.7213,-9.6986,-9.6703,-9.5956,-9.6318,-9.6685,-9.6685,-9.5734,-9.4669,-9.386,-9.375,-9.3676,-9.3455,-9.3603,-9.4079,-9.488,-9.5137,-9.5395,-9.5616,-9.6174,-9.6728,-9.7353,-9.7493,-9.7415,-9.7054,-9.6795,-9.6794,-9.701,-9.6794,-9.6795,-9.7017,-9.6795,-9.7126,-9.7897,-9.7897,-9.7713,-8.6041,-8.4846,-8.3187,-7.6653,-7.4912,-7.3668,-6.9513,-6.9744,-7.0629,-6.986,-7.0975,-7.186,-7.0975,-7.0821,-7.0629,-6.986,-7.1206,0.0,0.0,-7.1398,-7.286,-7.3707,-7.6032,-7.8635,-8.1332,-7.8539,-8.0023,-8.8374,-8.5741,-8.7423,-9.5865,-9.6288,-9.6288,-9.6288,-9.7057,-9.7904,-9.8788,-9.7942,-9.7942,-9.8788,-9.7134,-9.6326,-9.6288,-9.6269,-9.6269,-9.6288,-9.6269,-9.6269,-9.6288,-9.6288,-9.6288,-9.6288,-9.6269,-9.6269,-9.6155,-9.5451,-9.5189,-9.5318,-9.604,-9.6288,-9.6288,-9.6288,-9.5609,-9.4706,-9.4243,-9.3559,-9.2826,-9.2055,-9.2391,-9.3234,-9.3954,-9.593,-9.8025,-9.9287,-9.9865,-9.9746,-9.8423,-9.7961,-9.7557,-9.6802,-9.6685,-9.6685,-9.6685,-9.6649,-9.6317,-9.5543,-9.5405,-9.511,-9.4338,-9.4924,-9.5726,-9.6537,-9.7313,-9.8088,-9.8864,-9.8976,-9.9005,-9.9016,-9.7599,-9.7091,-9.7829,-9.7091,-9.7083,-9.7831,-9.712,-9.7091,-9.7829,-9.7091,-9.7126,-9.7894,-9.7894,-9.8298,-8.7874,-8.9319,-8.9281,-8.2087,-8.0997,-7.9995,-7.3474,-7.2315,-7.2206,-7.0783,-7.186,-7.2629,-7.1168,-7.136,-7.1475,-7.0629,-7.1437,-7.1783,0.0,-7.0975,-7.1437,-7.1745,-7.4656,-7.7132,-7.8559,-7.9705,-8.291,-8.9075,-8.8451,-9.0287,-9.598,-9.6288,-9.6288,-9.6288,-9.6557,-9.7096,-9.7942,-9.7634,-9.7634,-9.7942,-9.7365,-9.6826,-9.6288,-9.6288,-9.6288,-9.6288,-9.6288,-9.6288,-9.6288,-9.6288,-9.6288,-9.6288,-9.6288,-9.6288,-9.6269,-9.602,-9.5941,-9.5981,-9.6232,-9.6288,-9.6288,-9.6288,-9.5162,-9.3868,-9.4071,-9.3196,-9.227,-9.2537,-9.2868,-9.3272,-9.4078,-9.6009,-9.7885,-9.8313,-9.9315,-9.9936,-9.8952,-9.7811,-9.6963,-9.6729,-9.6282,-9.6061,-9.6612,-9.6685,-9.6427,-9.5616,-9.5473,-9.5402,-9.5107,-9.5325,-9.6021,-9.735,-9.7745,-9.8214,-9.9029,-9.9102,-9.8846,-9.8337,-9.7827,-9.7386,-9.7128,-9.6832,-9.7085,-9.7881,-9.7628,-9.7635,-9.7899,-9.7644,-9.7899,-9.8665,-9.8699,-9.8809,-9.0492,-9.206,-9.2382,-8.6409,-8.5665,-8.4543,-7.763,-7.6436,-7.6262,-7.4427,-7.4476,-7.5245,-7.6515,-7.4514,-7.2976,-7.3899,-7.2745,-7.1552,0.0,-7.0898,-7.0898,-7.0898,-7.2907,-7.5102,-7.71,-7.7713,-8.1262,-8.929,-8.8209,-8.9863,-9.598,-9.6288,-9.6288,-9.6288,-9.6288,-9.6673,-9.748,-9.7211,-9.7211,-9.7519,-9.7211,-9.6788,-9.6288,-9.6288,-9.6288,-9.6288,-9.6288,-9.6288,-9.6288,-9.6288,-9.6288,-9.6288,-9.6288,-9.6288,-9.6288,-9.6288,-9.6288,-9.6288,-9.6288,-9.6288,-9.6288,-9.6288,-9.4952,-9.3443,-9.4291,-9.3461,-9.2427,-9.3272,-9.3749,-9.4079,-9.4593,-9.6452,-9.8243,-9.8243,-9.9247,-9.9974,-9.9179,-9.7736,-9.6591,-9.6692,-9.6061,-9.5768,-9.6575,-9.6685,-9.65,-9.6021,-9.5948,-9.5948,-9.5948,-9.5948,-9.6427,-9.7755,-9.7884,-9.8237,-9.9013,-9.8836,-9.8445,-9.7902,-9.7645,-9.7239,-9.6722,-9.6981,-9.764,-9.873,-9.8434,-9.8476,-9.8741,-9.8195,-9.8195,-9.8668,-9.8995,-9.9252]},{"header":{"parameterUnit":"m.s-1","parameterCategory":1,"la1":30.6,"la2":29.2853,"lo1":-89.7004,"lo2":-87.6739,"dx":0.0162,"dy":0.0183,"nx":112,"ny":82,"refTime":"2022-12-13T18:00:00:Z","depth":0,"parameterNumber":3,"parameterNumberName":"V-component_of_WINDS"},"data":[0.0,0.0,0.0,0.0,0.0,0.0,0.0,0.0,0.0,0.0,0.0,0.0,0.0,0.0,0.0,0.0,0.0,0.0,0.0,0.0,0.0,0.0,0.0,0.0,0.0,0.0,0.0,0.0,0.0,0.0,0.0,0.0,0.0,0.0,0.0,0.0,0.0,0.0,0.0,0.0,0.0,0.0,0.0,0.0,0.0,0.0,0.0,0.0,0.0,0.0,0.0,0.0,0.0,0.0,0.0,0.0,0.0,0.0,0.0,0.0,0.0,0.0,0.0,0.0,0.0,0.0,0.0,0.0,0.0,0.0,0.0,0.0,0.0,0.0,0.0,0.0,0.0,0.0,0.0,0.0,0.0,0.0,0.0,0.0,0.0,0.0,0.0,0.0,0.0,0.0,4.5522,4.6577,4.7029,4.7093,4.6842,4.6024,4.4091,4.0852,0.0,0.0,0.0,0.0,0.0,0.0,0.0,0.0,0.0,0.0,0.0,0.0,0.0,0.0,0.0,0.0,0.0,0.0,0.0,0.0,0.0,0.0,0.0,0.0,0.0,0.0,0.0,0.0,0.0,0.0,0.0,0.0,0.0,0.0,0.0,0.0,0.0,0.0,0.0,0.0,0.0,0.0,0.0,0.0,0.0,0.0,0.0,0.0,0.0,0.0,0.0,0.0,0.0,0.0,0.0,0.0,0.0,0.0,0.0,0.0,0.0,0.0,0.0,0.0,0.0,0.0,0.0,0.0,0.0,0.0,0.0,0.0,0.0,0.0,0.0,0.0,0.0,0.0,0.0,0.0,0.0,0.0,0.0,0.0,0.0,0.0,0.0,0.0,0.0,0.0,0.0,0.0,0.0,0.0,0.0,0.0,0.0,0.0,0.0,0.0,0.0,0.0,0.0,0.0,4.4644,4.8033,4.8033,4.723,4.5849,4.5573,4.4267,4.1351,0.0,0.0,0.0,0.0,0.0,0.0,0.0,0.0,0.0,0.0,0.0,0.0,0.0,0.0,0.0,0.0,0.0,0.0,0.0,0.0,0.0,0.0,0.0,0.0,0.0,0.0,0.0,0.0,0.0,0.0,0.0,0.0,0.0,0.0,0.0,0.0,0.0,0.0,0.0,0.0,0.0,0.0,0.0,0.0,0.0,0.0,0.0,0.0,0.0,0.0,0.0,0.0,0.0,0.0,0.0,0.0,0.0,0.0,0.0,0.0,0.0,0.0,0.0,0.0,0.0,0.0,0.0,0.0,0.0,0.0,0.0,0.0,0.0,0.0,0.0,0.0,0.0,0.0,0.0,0.0,0.0,0.0,0.0,0.0,0.0,0.0,0.0,0.0,0.0,0.0,0.0,0.0,0.0,0.0,0.0,0.0,0.0,0.0,0.0,0.0,0.0,0.0,0.0,4.3334,4.5673,4.8058,4.7807,4.7054,4.6024,4.5372,4.3966,4.1451,4.0023,0.0,0.0,0.0,0.0,0.0,0.0,0.0,0.0,0.0,0.0,0.0,0.0,0.0,0.0,0.0,0.0,0.0,0.0,0.0,0.0,0.0,0.0,0.0,0.0,0.0,0.0,0.0,0.0,0.0,0.0,0.0,0.0,0.0,0.0,0.0,0.0,0.0,0.0,0.0,0.0,0.0,0.0,0.0,0.0,0.0,0.0,0.0,0.0,0.0,0.0,0.0,0.0,0.0,0.0,0.0,0.0,0.0,0.0,0.0,0.0,0.0,0.0,0.0,0.0,0.0,0.0,0.0,0.0,0.0,0.0,0.0,0.0,0.0,0.0,0.0,0.0,0.0,0.0,0.0,0.0,0.0,0.0,0.0,0.0,0.0,0.0,0.0,0.0,0.0,0.0,0.0,0.0,0.0,0.0,0.0,0.0,0.0,0.0,0.0,0.0,0.0,0.0,4.6527,4.7405,4.8209,4.7707,4.7054,4.6376,4.5271,4.3582,4.125,3.9722,0.0,0.0,0.0,0.0,0.0,0.0,0.0,0.0,0.0,0.0,0.0,0.0,0.0,0.0,0.0,0.0,0.0,0.0,0.0,0.0,0.0,0.0,0.0,0.0,0.0,0.0,0.0,0.0,0.0,0.0,0.0,0.0,0.0,0.0,0.0,0.0,0.0,0.0,0.0,0.0,0.0,0.0,0.0,0.0,0.0,0.0,0.0,0.0,0.0,0.0,0.0,0.0,0.0,0.0,0.0,0.0,0.0,0.0,0.0,0.0,0.0,0.0,0.0,0.0,0.0,0.0,0.0,0.0,0.0,0.0,0.0,0.0,0.0,0.0,0.0,0.0,0.0,0.0,0.0,0.0,0.0,0.0,0.0,0.0,0.0,0.0,0.0,0.0,0.0,0.0,0.0,0.0,0.0,0.0,0.0,0.0,0.0,0.0,0.0,0.0,0.0,0.0,4.7129,4.9389,4.9464,4.851,4.7431,4.6401,4.5271,4.3463,4.0752,3.9496,0.0,0.0,0.0,0.0,0.0,0.0,0.0,0.0,0.0,0.0,0.0,0.0,0.0,0.0,0.0,0.0,0.0,0.0,0.0,0.0,0.0,0.0,0.0,0.0,0.0,0.0,0.0,0.0,0.0,0.0,0.0,0.0,0.0,0.0,0.0,0.0,0.0,0.0,0.0,0.0,0.0,0.0,0.0,0.0,0.0,0.0,0.0,0.0,0.0,0.0,0.0,0.0,0.0,0.0,0.0,0.0,0.0,0.0,0.0,0.0,0.0,0.0,0.0,0.0,0.0,0.0,0.0,0.0,0.0,0.0,0.0,0.0,0.0,0.0,0.0,0.0,0.0,0.0,0.0,0.0,0.0,0.0,0.0,0.0,0.0,0.0,0.0,0.0,0.0,0.0,0.0,0.0,0.0,0.0,0.0,0.0,0.0,0.0,0.0,0.0,0.0,0.0,4.5981,4.7312,4.7442,4.7304,4.6657,4.5337,4.5473,4.4493,4.1706,0.0,0.0,0.0,0.0,0.0,0.0,0.0,0.0,0.0,0.0,0.0,0.0,0.0,0.0,0.0,0.0,0.0,0.0,0.0,0.0,0.0,0.0,0.0,0.0,0.0,0.0,0.0,0.0,0.0,0.0,0.0,0.0,0.0,0.0,0.0,0.0,0.0,0.0,0.0,0.0,0.0,0.0,0.0,0.0,0.0,0.0,0.0,0.0,0.0,0.0,0.0,0.0,0.0,0.0,0.0,0.0,0.0,0.0,0.0,0.0,0.0,0.0,0.0,0.0,0.0,0.0,0.0,0.0,0.0,0.0,0.0,0.0,0.0,0.0,0.0,0.0,0.0,0.0,0.0,0.0,0.0,0.0,0.0,0.0,0.0,0.0,0.0,0.0,0.0,0.0,0.0,0.0,0.0,0.0,0.0,0.0,0.0,0.0,0.0,0.0,0.0,0.0,4.3047,4.473,4.5515,4.5716,4.5768,4.5619,4.507,4.5424,4.4546,4.2082,0.0,0.0,0.0,0.0,0.0,0.0,0.0,0.0,0.0,0.0,0.0,0.0,0.0,0.0,0.0,0.0,0.0,0.0,0.0,0.0,0.0,0.0,0.0,0.0,0.0,0.0,0.0,0.0,0.0,0.0,0.0,0.0,0.0,0.0,0.0,0.0,0.0,0.0,0.0,0.0,0.0,0.0,0.0,0.0,0.0,0.0,0.0,0.0,0.0,0.0,0.0,0.0,0.0,0.0,0.0,0.0,0.0,0.0,0.0,0.0,0.0,0.0,0.0,0.0,0.0,0.0,0.0,0.0,0.0,0.0,0.0,0.0,0.0,0.0,0.0,0.0,0.0,0.0,0.0,0.0,0.0,0.0,0.0,0.0,0.0,0.0,0.0,0.0,0.0,0.0,0.0,0.0,0.0,0.0,0.0,0.0,0.0,0.0,0.0,0.0,0.0,0.0,4.1201,4.3456,4.4693,4.4693,4.4199,4.446,4.587,4.4853,4.3396,0.0,0.0,0.0,0.0,0.0,0.0,0.0,0.0,0.0,0.0,0.0,0.0,0.0,0.0,0.0,0.0,0.0,0.0,0.0,0.0,0.0,0.0,0.0,0.0,0.0,0.0,0.0,0.0,0.0,0.0,0.0,0.0,0.0,0.0,0.0,0.0,0.0,0.0,0.0,0.0,0.0,0.0,0.0,0.0,0.0,0.0,0.0,0.0,0.0,0.0,0.0,0.0,0.0,0.0,0.0,0.0,0.0,0.0,0.0,0.0,0.0,0.0,0.0,0.0,0.0,0.0,0.0,0.0,0.0,0.0,0.0,0.0,0.0,0.0,0.0,0.0,0.0,0.0,0.0,0.0,0.0,0.0,0.0,0.0,0.0,0.0,0.0,0.0,0.0,0.0,0.0,0.0,0.0,0.0,0.0,0.0,0.0,0.0,0.0,0.0,0.0,0.0,0.0,4.1,4.3083,4.4026,4.3435,4.3397,4.34,4.3219,4.491,4.4547,4.1239,0.0,0.0,0.0,0.0,0.0,0.0,0.0,0.0,0.0,0.0,0.0,0.0,0.0,0.0,0.0,0.0,0.0,0.0,0.0,0.0,0.0,0.0,0.0,0.0,0.0,0.0,0.0,0.0,0.0,0.0,0.0,0.0,0.0,0.0,0.0,0.0,0.0,0.0,0.0,0.0,0.0,0.0,0.0,0.0,0.0,0.0,0.0,0.0,0.0,0.0,0.0,0.0,0.0,0.0,0.0,0.0,0.0,0.0,0.0,0.0,0.0,0.0,0.0,0.0,0.0,0.0,0.0,0.0,0.0,0.0,0.0,0.0,0.0,0.0,0.0,0.0,0.0,0.0,0.0,0.0,0.0,0.0,0.0,0.0,0.0,0.0,0.0,0.0,0.0,0.0,0.0,0.0,0.0,0.0,0.0,0.0,0.0,0.0,0.0,0.0,0.0,0.0,3.9693,4.1758,4.2779,4.2432,4.2561,4.272,4.2774,4.4976,4.5216,4.2339,0.0,0.0,0.0,0.0,0.0,0.0,0.0,0.0,0.0,0.0,0.0,0.0,0.0,0.0,0.0,0.0,0.0,0.0,0.0,0.0,0.0,0.0,0.0,0.0,0.0,0.0,0.0,0.0,0.0,0.0,0.0,0.0,0.0,0.0,0.0,0.0,0.0,0.0,0.0,0.0,0.0,0.0,0.0,0.0,0.0,0.0,0.0,0.0,0.0,0.0,0.0,0.0,0.0,0.0,0.0,0.0,0.0,0.0,0.0,0.0,0.0,0.0,0.0,0.0,0.0,0.0,0.0,0.0,0.0,0.0,0.0,0.0,0.0,0.0,0.0,0.0,0.0,0.0,0.0,0.0,0.0,0.0,0.0,0.0,0.0,0.0,0.0,0.0,0.0,0.0,0.0,0.0,0.0,0.0,0.0,0.0,0.0,0.0,0.0,0.0,0.0,0.0,3.7744,3.9945,4.1426,4.1758,4.1836,4.2366,4.3621,4.527,4.5543,4.4109,0.0,0.0,0.0,0.0,0.0,0.0,0.0,0.0,0.0,0.0,0.0,0.0,0.0,0.0,0.0,0.0,0.0,0.0,0.0,0.0,0.0,0.0,0.0,0.0,0.0,0.0,0.0,0.0,0.0,0.0,0.0,0.0,0.0,0.0,0.0,0.0,0.0,0.0,0.0,0.0,0.0,0.0,0.0,0.0,0.0,0.0,0.0,0.0,0.0,0.0,0.0,0.0,0.0,0.0,0.0,0.0,0.0,0.0,0.0,0.0,2.9285,2.6811,0.0,0.0,0.0,0.0,0.0,0.0,0.0,0.0,0.0,0.0,0.0,0.0,0.0,0.0,0.0,0.0,0.0,0.0,0.0,0.0,0.0,0.0,0.0,0.0,0.0,0.0,0.0,0.0,0.0,0.0,0.0,0.0,0.0,0.0,0.0,0.0,0.0,0.0,0.0,0.0,3.6324,3.9834,4.207,4.1836,4.209,4.2406,4.2685,4.5586,4.6441,4.4456,4.5276,0.0,0.0,0.0,0.0,0.0,0.0,0.0,0.0,0.0,0.0,0.0,0.0,0.0,0.0,0.0,0.0,0.0,0.0,0.0,0.0,0.0,0.0,0.0,0.0,0.0,0.0,0.0,0.0,0.0,0.0,0.0,0.0,0.0,0.0,0.0,0.0,0.0,0.0,0.0,0.0,0.0,0.0,0.0,0.0,0.0,0.0,0.0,0.0,0.0,0.0,0.0,0.0,0.0,0.0,0.0,0.0,0.0,0.0,0.0,3.1177,2.955,0.0,0.0,0.0,0.0,0.0,0.0,0.0,0.0,0.0,0.0,0.0,0.0,0.0,0.0,0.0,0.0,0.0,0.0,0.0,0.0,0.0,0.0,0.0,0.0,0.0,0.0,0.0,0.0,0.0,0.0,0.0,0.0,0.0,0.0,0.0,0.0,0.0,0.0,0.0,0.0,3.5937,3.9766,4.2422,4.2422,4.2793,4.3047,4.3047,4.542,4.6745,4.6306,4.6355,0.0,0.0,0.0,0.0,0.0,0.0,0.0,0.0,0.0,0.0,0.0,0.0,0.0,0.0,0.0,0.0,0.0,0.0,0.0,0.0,0.0,0.0,0.0,0.0,0.0,0.0,0.0,0.0,0.0,0.0,0.0,0.0,0.0,0.0,0.0,0.0,0.0,0.0,0.0,0.0,0.0,0.0,0.0,0.0,0.0,0.0,0.0,0.0,0.0,0.0,0.0,0.0,0.0,3.2753,3.2835,3.2855,3.2844,3.345,3.4389,3.2931,3.2568,3.2777,2.9519,0.0,0.0,0.0,0.0,0.0,0.0,0.0,0.0,0.0,0.0,0.0,0.0,0.0,0.0,0.0,0.0,0.0,0.0,0.0,0.0,0.0,0.0,3.8797,3.8565,4.0796,4.1855,3.7848,0.0,0.0,0.0,0.0,0.0,0.0,0.0,0.0,0.0,0.0,0.0,3.6328,4.0019,4.2676,4.3047,4.3535,4.3828,4.3828,4.5311,4.6747,4.7959,4.721,4.7053,0.0,0.0,0.0,0.0,0.0,0.0,0.0,0.0,0.0,0.0,0.0,0.0,0.0,0.0,0.0,0.0,0.0,0.0,0.0,0.0,0.0,0.0,0.0,0.0,0.0,0.0,0.0,0.0,0.0,0.0,0.0,0.0,1.9573,1.9847,0.0,0.0,0.0,0.0,0.0,0.0,0.0,0.0,0.0,0.0,0.0,0.0,0.0,2.4993,2.7024,2.9707,3.1949,3.3828,3.4949,3.5524,3.5524,3.5469,3.5586,3.577,3.551,0.0,3.3912,3.3389,0.0,0.0,0.0,0.0,0.0,0.0,0.0,0.0,0.0,0.0,0.0,0.0,0.0,0.0,0.0,0.0,0.0,0.0,0.0,0.0,0.0,0.0,4.6523,4.7571,4.7838,4.7557,4.64,4.1303,3.6916,3.6734,3.6917,3.6534,0.0,0.0,0.0,0.0,0.0,0.0,3.8027,4.1016,4.3008,4.3066,4.3808,4.4316,4.4316,4.6147,4.7262,4.7018,4.9306,4.9866,4.8151,4.5129,0.0,0.0,0.0,0.0,0.0,0.0,0.0,0.0,0.0,0.0,0.0,0.0,0.0,0.0,0.0,0.0,0.0,0.0,0.0,0.0,0.0,0.0,0.0,0.0,0.0,0.0,0.0,0.0,0.0,1.9292,1.9907,2.0201,1.9973,1.9575,0.0,0.0,0.0,0.0,0.0,0.0,0.0,0.0,0.0,2.4147,2.496,2.6496,2.889,3.116,3.3292,3.5176,3.5742,3.6016,3.6035,3.6279,3.6415,3.6435,3.666,3.6406,3.5781,3.457,3.3516,3.2578,0.0,0.0,0.0,0.0,3.123,3.123,3.2559,3.2871,3.2637,3.2402,0.0,0.0,0.0,0.0,0.0,0.0,0.0,3.8015,4.0899,4.4333,4.6974,4.6622,4.8377,4.9756,4.8134,4.6509,4.457,4.1899,4.0578,3.9149,3.7019,3.6596,0.0,0.0,0.0,3.791,3.916,4.1523,4.3262,4.3769,4.416,4.4492,4.4726,4.533,4.6228,4.748,4.849,4.9205,4.9387,4.5666,4.2948,0.0,0.0,0.0,0.0,0.0,0.0,0.0,0.0,0.0,0.0,0.0,0.0,0.0,0.0,0.0,0.0,0.0,0.0,0.0,0.0,0.0,0.0,0.0,0.0,0.0,0.0,0.0,0.0,2.004,2.0441,2.0655,2.1189,2.1271,0.0,0.0,0.0,0.0,0.0,0.0,2.5869,2.5504,2.5643,2.6493,2.6051,2.722,3.0293,3.1824,3.382,3.6191,3.6289,3.6348,3.6367,3.6708,3.6813,3.6903,3.7207,3.7305,3.7168,3.5566,3.4766,3.4473,3.3398,3.2851,3.2695,3.3125,3.3086,3.3047,3.4648,3.5,3.4707,3.4492,3.4414,3.418,3.2891,0.0,0.0,0.0,0.0,3.9671,4.1528,4.5019,4.7497,4.5599,4.7913,5.0001,4.8256,4.9169,4.9463,4.6636,4.4857,4.3028,4.0833,4.015,0.0,3.7719,3.8219,3.918,4.0391,4.2031,4.3418,4.4316,4.4394,4.457,4.5,4.4746,4.5321,4.7173,4.7423,4.8153,4.9512,4.6428,4.4386,4.3751,0.0,0.0,0.0,0.0,0.0,0.0,0.0,0.0,0.0,0.0,0.0,0.0,0.0,0.0,0.0,0.0,0.0,0.0,0.0,0.0,0.0,0.0,0.0,0.0,0.0,0.0,0.0,0.0,0.0,2.1897,2.397,0.0,0.0,0.0,0.0,2.734,2.7674,2.8143,2.8777,2.7305,2.6783,2.7401,2.5643,2.6503,3.0239,3.0871,3.3003,3.6641,3.7031,3.7226,3.7226,3.7266,3.7266,3.7285,3.7285,3.7305,3.7285,3.7187,3.666,3.5879,3.541,3.4707,3.4023,3.4453,3.459,3.4766,3.6113,3.6562,3.6601,3.6973,3.6289,3.5312,3.5234,3.4648,0.0,0.0,4.2655,4.4589,4.9394,5.1272,5.1166,4.8714,4.8275,4.8437,4.8275,4.7987,4.8339,5.0522,5.1289,5.0997,4.9271,0.0,4.4186,4.413,4.1296,3.9922,4.2031,4.2754,4.3418,4.4316,4.4394,4.457,4.5,4.5,4.5,4.5189,4.7006,4.7836,4.7478,4.775,4.7278,4.6146,4.2235,0.0,0.0,0.0,0.0,0.0,0.0,0.0,0.0,0.0,0.0,0.0,0.0,0.0,0.0,0.0,0.0,0.0,0.0,0.0,0.0,0.0,0.0,0.0,0.0,0.0,0.0,0.0,0.0,2.3969,2.5091,0.0,2.644,2.7715,2.8533,2.8521,3.0308,3.0925,2.9854,2.9288,2.8506,2.7563,2.5834,2.679,3.0728,3.1092,3.3247,3.707,3.7226,3.7305,3.7305,3.7578,3.7695,3.7715,3.8008,3.8125,3.8125,3.8125,3.7617,3.6836,3.668,3.6426,3.6172,3.6309,3.6367,3.6445,3.6914,3.707,3.7148,3.7559,3.7383,3.707,3.7363,3.7226,3.7499,3.9677,4.1918,4.3953,4.5363,4.7156,4.7998,4.5301,4.5796,4.6592,4.5445,4.6204,4.7551,4.8726,5.0701,5.1245,4.8616,4.7539,4.6144,4.3427,4.2272,4.2187,4.3516,4.3828,4.4258,4.5137,4.4726,4.457,4.5,4.5019,4.5137,4.543,4.6352,4.6841,4.6681,4.6561,4.6377,4.5902,4.3993,4.1483,0.0,0.0,0.0,0.0,0.0,0.0,0.0,0.0,0.0,0.0,0.0,0.0,0.0,0.0,0.0,0.0,0.0,0.0,0.0,0.0,0.0,0.0,0.0,0.0,0.0,2.2271,2.3379,2.4381,2.5569,2.6563,2.711,2.917,3.0419,3.0419,3.2157,3.2648,3.1486,3.0222,2.9039,2.7984,2.6196,2.688,3.0208,3.117,3.327,3.6466,3.7352,3.7734,3.7734,3.8008,3.8144,3.8164,3.8457,3.8574,3.8574,3.8574,3.8242,3.7715,3.7559,3.75,3.75,3.7344,3.7305,3.7324,3.7461,3.7598,3.7773,3.8047,3.8144,3.8223,3.8652,3.8789,3.9014,4.0071,4.1879,4.3521,4.3547,4.5201,4.6388,4.4263,4.4676,4.5317,4.4728,4.5466,4.6497,4.75,4.9243,5.005,4.8262,4.7692,4.6496,4.3694,4.3197,4.3281,4.3887,4.4082,4.4433,4.5156,4.459,4.4336,4.4766,4.4531,4.4746,4.5625,4.5664,4.5859,4.6289,4.5625,4.5176,4.5019,4.4889,4.3098,3.9622,0.0,0.0,0.0,0.0,0.0,0.0,0.0,0.0,0.0,0.0,0.0,0.0,0.0,0.0,0.0,0.0,0.0,0.0,0.0,0.0,0.0,0.0,0.0,2.2592,2.2993,2.3273,2.309,2.5683,2.7188,2.642,3.0461,3.3101,3.3119,3.3119,3.3211,3.3464,2.9945,2.8148,2.8697,2.6634,2.6544,2.8803,3.0851,3.2872,3.4864,3.7302,3.8501,3.8501,3.8594,3.8594,3.8594,3.8594,3.8594,3.8594,3.8574,3.8574,3.8535,3.8105,3.7949,3.7891,3.748,3.7344,3.7402,3.7812,3.8223,3.8574,3.8594,3.8594,3.8672,3.9101,3.9219,3.9667,4.1895,4.2994,4.369,4.4964,4.6045,4.6719,4.6156,4.5027,4.4548,4.6389,4.5642,4.5248,4.714,4.7537,4.7826,4.8838,4.7044,4.5466,4.5544,4.416,0.0,4.3144,4.3476,4.3887,4.4336,4.3965,4.3867,4.4316,4.3574,4.3828,4.5527,4.4863,4.498,4.623,4.5098,4.4219,4.3769,4.4978,4.4753,4.3067,0.0,0.0,0.0,0.0,0.0,0.0,0.0,0.0,0.0,0.0,0.0,0.0,0.0,0.0,0.0,0.0,0.0,0.0,0.0,0.0,0.0,2.3006,2.3928,2.346,2.4088,2.4989,2.6085,2.6993,2.7946,2.9055,3.0339,3.1206,3.1405,3.1422,3.0943,2.9855,2.8864,2.7682,2.6454,2.6076,2.6871,2.8958,2.973,3.113,3.3197,3.5296,3.6349,3.6423,3.8185,3.9023,3.9023,3.9023,3.9023,3.9004,3.8691,3.8574,3.8555,3.8437,3.8398,3.8379,3.8262,3.8223,3.8242,3.8359,3.8476,3.8633,3.8926,3.9023,3.9121,3.957,3.9707,3.986,4.0801,4.1466,4.1919,4.2236,4.2774,4.3156,4.2708,4.2491,4.2599,4.3123,4.3154,4.3339,4.4197,4.4337,4.4875,4.6584,4.658,4.6055,4.4902,4.436,4.4141,4.4453,4.4336,4.4121,4.3926,4.3516,4.3301,4.3437,4.3496,4.3887,4.4707,4.4824,4.5156,4.582,4.5508,4.5273,4.5137,4.5859,4.5462,0.0,0.0,0.0,0.0,0.0,0.0,0.0,0.0,0.0,0.0,0.0,0.0,0.0,0.0,0.0,0.0,0.0,0.0,0.0,0.0,0.0,0.0,2.4235,2.5024,2.473,2.4917,2.5459,2.6365,2.6369,2.6707,2.7837,2.8753,2.9416,2.9549,2.9707,2.9427,2.8596,2.7824,2.6976,2.6052,2.6144,2.6795,2.8109,2.909,3.0245,3.1415,3.3576,3.462,3.4713,3.703,3.8085,3.816,3.9099,3.9492,3.9473,3.9238,3.9121,3.9101,0.0,0.0,0.0,0.0,3.8691,3.8828,3.8828,3.8965,3.916,3.9414,3.9492,3.957,4.0019,4.0156,4.0254,4.0664,4.0976,4.1172,4.1172,4.1348,4.17,4.2256,4.209,4.2014,4.2837,4.2883,4.2773,4.3027,4.3223,0.0,4.4825,4.5434,4.5369,4.4248,4.4277,4.4414,4.4473,4.4258,4.4004,4.373,4.3496,4.334,4.334,4.3242,0.0,0.0,0.0,4.4316,4.457,4.4414,0.0,0.0,0.0,4.6188,4.6918,4.839,0.0,0.0,4.9875,5.0465,0.0,0.0,0.0,0.0,0.0,0.0,0.0,0.0,0.0,0.0,0.0,0.0,0.0,0.0,0.0,0.0,2.5625,2.6306,2.6039,2.5531,2.517,2.513,2.4863,2.4703,2.473,2.6464,2.7585,2.7644,2.7923,2.8232,2.8556,2.6912,0.0,0.0,0.0,2.66,2.6813,2.8696,2.9603,2.9607,3.1919,3.3027,3.3106,3.5271,3.6469,3.6796,3.8766,3.9734,3.9961,3.9922,3.9902,3.9824,3.9023,3.873,3.873,3.873,3.8965,3.9277,3.9277,0.0,0.0,3.9961,3.9961,4.0039,4.0469,4.0586,4.0684,4.1074,4.1172,4.1172,4.1172,4.1172,4.1618,4.3359,4.2789,4.2309,4.4102,4.3758,4.3144,4.3144,4.3457,4.3711,4.3711,4.4141,4.4336,4.3926,4.4258,4.4375,4.3906,4.3808,4.3769,4.3711,4.3672,0.0,4.3691,4.2969,4.3027,4.4238,4.3633,4.3223,4.3223,4.2891,4.2891,4.3223,4.4567,4.6918,5.0162,5.2659,5.4748,5.6178,5.2185,5.2304,0.0,0.0,0.0,0.0,0.0,0.0,0.0,0.0,0.0,0.0,0.0,0.0,0.0,0.0,0.0,2.4522,2.5625,2.6373,2.6319,2.6012,2.5705,2.5464,2.517,2.509,2.5317,2.5547,2.5869,2.6348,2.6443,2.6607,2.6816,2.6516,2.6346,2.6466,2.6627,2.6747,2.6772,2.75,2.7796,2.7812,2.9931,0.0,3.098,3.3399,3.545,3.721,3.76,3.8798,4.0371,4.0039,3.9902,3.9883,3.9707,3.9648,3.9648,3.9648,3.9687,3.9766,3.9766,3.9824,3.9961,4.0293,4.041,4.0488,4.0918,4.1055,0.0,4.1152,4.1172,4.1172,4.1172,4.1172,4.1327,4.1695,4.2053,4.2384,4.2744,4.3192,4.3574,4.3574,4.3652,4.3711,4.3711,4.4375,4.4863,4.4785,4.5137,4.5273,4.4824,4.4473,4.4121,4.375,4.3398,4.334,4.3672,4.3242,4.3203,4.3808,4.4023,4.4141,4.4141,4.4394,4.4414,4.4141,4.6455,4.7613,4.7533,5.1853,5.3246,5.206,5.3212,5.4191,0.0,0.0,0.0,0.0,0.0,0.0,0.0,0.0,0.0,0.0,0.0,2.3703,2.4875,0.0,2.4997,2.5438,2.6012,2.6386,2.6386,2.6266,2.6066,2.5772,2.5611,2.5571,2.5718,2.5865,2.6012,2.6159,2.6306,2.6386,2.6386,2.6573,2.6574,2.66,2.6852,2.7066,2.7068,2.7319,2.7513,2.7551,2.8703,2.9224,2.9321,3.165,3.3338,3.4468,3.6641,3.8176,3.929,4.0221,4.0527,4.0527,4.0527,4.0273,3.9902,3.9902,4.0019,4.0215,4.0215,4.0351,4.0566,4.0781,4.084,4.0879,4.1113,4.1172,4.1172,4.1172,4.1172,4.1172,4.1172,4.1172,4.123,4.1426,4.1973,4.248,4.2695,4.3262,4.3711,4.3711,4.3711,4.3711,4.3711,4.4258,4.4707,4.4707,4.5078,4.5273,4.5058,4.4844,4.4629,4.4394,4.418,4.4141,4.4355,4.3984,4.3828,4.4043,4.4043,4.416,4.4394,4.4375,4.4473,4.4707,4.552,4.6414,4.7143,4.9342,5.0367,5.0367,5.0591,5.1605,0.0,0.0,0.0,0.0,0.0,0.0,0.0,2.2686,2.3515,2.5568,2.5115,2.492,2.7056,2.6271,2.5571,2.6279,2.6386,2.6386,2.6386,2.6386,2.6319,2.6146,2.6079,2.6092,2.6278,2.6587,2.6734,2.6613,2.676,2.68,2.6573,2.6813,2.7,2.6986,2.733,2.7503,2.7466,2.7762,2.7866,2.7759,2.8039,2.8221,2.8221,3.0024,3.0993,3.164,3.6023,3.7896,3.8054,4.0275,4.1172,4.1172,4.1172,4.0742,4.0137,4.0137,4.0351,4.0644,4.0644,4.0627,4.0607,4.1094,4.0919,4.0685,4.1094,4.1172,4.1172,4.1172,4.123,4.1269,4.1191,4.1289,4.1484,4.1738,4.2187,4.2656,4.3008,4.3418,4.3711,4.3711,4.3711,4.3711,4.3711,4.4023,4.4297,4.4394,4.4824,4.5117,4.5039,4.5098,4.5156,4.5156,4.5078,4.5019,4.5019,4.4707,4.4512,4.4512,4.4082,4.4043,4.4492,4.4082,4.418,4.4883,4.4199,4.4753,4.6782,4.6918,4.7635,4.8886,4.7554,4.8275,2.2512,2.2084,2.2098,2.2552,2.2926,2.3581,0.0,2.5117,2.5085,2.6121,2.6195,2.6197,2.6486,2.637,2.6279,2.6373,2.6386,2.6386,2.6386,2.6386,2.6466,2.6694,2.6493,2.6547,2.7068,2.6934,2.6934,2.7176,2.7189,2.7201,2.7175,2.7455,2.7626,2.7601,2.8127,2.8372,2.8125,2.8372,2.8377,2.8136,2.8136,2.8221,2.8234,2.8473,2.9607,3.164,3.6023,3.7896,3.8054,4.0275,4.1172,4.1172,4.1172,4.1113,4.1035,4.1035,4.1055,4.1094,4.1094,3.9905,3.8627,4.0588,3.9864,3.8627,4.0588,4.1172,4.1172,4.1172,4.1445,4.1641,4.1269,4.1719,4.2207,4.1875,4.2422,4.3027,4.3066,4.3418,4.3711,4.3711,4.3711,4.3711,4.3711,4.375,4.3926,4.4336,4.5098,4.5469,4.5078,4.5371,4.5605,4.5605,4.5254,4.5019,4.5019,4.498,4.4961,4.4961,4.4551,4.4512,4.4941,4.4551,4.4375,4.4473,4.4375,4.4224,4.41,4.6352,4.6619,4.5048,4.6701,4.7388,2.4422,2.4008,2.3674,2.4262,2.4636,2.501,2.5571,2.5504,2.59,2.7763,2.7227,2.6768,2.7919,2.7148,2.6386,2.6386,2.6533,2.664,2.664,2.6787,2.7014,2.7295,2.7228,2.7255,2.7495,2.7562,2.7618,2.7497,2.7533,2.7503,2.7522,2.7802,2.8083,2.8207,2.8612,2.881,2.8713,2.8636,2.8537,2.8417,2.823,2.8323,2.8657,2.8484,2.9564,3.1843,3.4965,3.6874,3.8054,4.0275,4.1172,4.1172,4.1172,4.1172,4.1172,4.1172,4.1172,4.1016,3.9707,3.8627,3.7816,3.7498,3.7657,3.8109,3.9319,4.054,4.1582,4.1836,4.2031,4.2129,4.1953,4.2168,4.2441,4.2519,4.2812,4.3144,4.3398,4.3574,4.3711,4.3711,4.3711,4.3711,4.3711,4.3711,4.3769,4.3965,4.4531,4.4961,4.5019,4.541,4.5762,4.6016,4.5879,4.5762,4.5762,4.5547,4.541,4.541,4.5,4.4961,4.5391,4.498,4.4883,4.5137,4.4902,4.4668,4.4473,4.5553,4.5772,4.5137,4.6032,4.6474,2.5024,2.4943,2.4796,2.5464,2.5985,2.6239,2.5945,2.5879,2.6347,2.8224,2.7384,2.6847,2.8296,2.7384,2.6413,2.6493,2.668,2.6854,2.6934,2.7134,2.7375,2.7669,2.7696,2.7736,2.7816,2.81,2.814,2.7843,2.7901,2.7994,2.7906,2.8323,2.8617,2.8845,2.9125,2.9245,2.9165,2.8951,2.8804,2.8724,2.8497,2.8657,2.9152,2.8858,2.9556,3.1189,3.3239,3.5277,3.7321,3.9542,4.0703,4.1172,4.1172,4.1172,4.1172,4.1172,4.1172,4.0841,3.8627,3.757,3.6839,3.5288,3.5517,3.6627,3.8141,3.9721,4.1196,4.2164,4.2519,4.2578,4.2461,4.2695,4.2988,4.3066,4.3262,4.3496,4.3672,4.3808,4.3887,4.3887,4.3984,4.4062,4.4062,4.4062,4.4062,4.4062,4.4355,4.4687,4.498,4.5508,4.5976,4.6269,4.6308,4.6308,4.6308,4.6016,4.584,4.584,4.5449,4.5391,4.584,4.543,4.5351,4.5664,4.5371,4.5137,4.5019,4.5254,4.5547,4.5859,4.5976,4.625,2.3474,2.4008,2.485,2.5732,2.6666,2.7148,2.6854,2.6787,2.6707,2.6519,2.6465,2.6386,2.6465,2.6465,2.648,2.676,2.6814,2.6921,2.7215,2.7255,2.7375,2.7669,2.7696,2.7816,2.8181,2.8221,2.8221,2.8221,2.8516,2.8631,2.8612,2.9179,2.9446,2.9459,2.974,2.9753,2.9472,2.9459,2.9312,2.9032,2.9018,2.9179,2.9459,2.9165,2.9032,2.9179,3.1119,3.3109,3.5328,3.7467,3.9472,4.1172,4.1172,4.1172,4.1172,4.1172,4.1172,4.0841,3.8627,3.6685,3.5163,3.5081,3.3913,3.3268,3.7635,3.905,3.9559,4.176,4.2734,4.2949,4.2539,4.3379,4.4121,4.3281,4.373,4.4238,4.3789,4.4062,4.4375,4.4375,4.4707,4.498,4.498,4.498,4.498,4.498,4.5,4.5,4.5019,4.5762,4.6289,4.6308,4.6308,4.6308,4.6308,4.6289,4.6289,4.6289,4.5879,4.584,4.6269,4.5879,4.5664,4.5683,4.5664,4.5449,4.5019,4.5859,4.6269,4.6289,4.6699,4.7129,2.4836,2.5424,2.6052,2.7216,2.7482,2.7522,2.7428,2.7108,2.6854,2.6947,2.6653,2.6453,2.664,2.652,2.648,2.6774,2.6987,2.7215,2.7509,2.7722,2.7966,2.7976,2.7989,2.8114,2.8221,2.8221,2.8221,2.8221,2.8484,2.8678,2.8838,2.9285,2.9566,2.9766,2.986,2.9873,2.9766,2.9579,2.9526,2.9633,3.002,3.0047,2.978,3.0074,2.9887,2.9413,3.1498,3.2765,3.3367,3.5361,3.6602,3.7291,3.8499,3.904,3.8998,3.9178,3.9271,3.8951,3.6806,3.4833,3.2961,3.1563,3.1622,3.2664,3.4413,3.7014,3.9602,4.0722,4.2188,4.3535,4.3691,4.4062,4.4316,4.4023,4.4394,4.4687,4.4258,4.4512,4.4824,4.4824,4.4922,4.5019,4.5019,4.5019,4.5019,4.5019,4.5273,4.5449,4.5449,4.5957,4.6308,4.6308,4.6308,4.6308,4.6308,4.6308,4.6308,4.6308,4.6172,4.6152,4.6289,4.6172,4.6094,4.6094,4.6094,4.6016,4.5879,4.6445,4.6875,4.7168,4.7578,4.8008,2.5718,2.6253,2.6667,2.7939,2.8003,2.7829,2.7722,2.7402,2.7161,2.7241,2.68,2.648,2.6774,2.6587,2.652,2.6921,2.7228,2.7522,2.7816,2.8016,2.8221,2.8221,2.8221,2.8221,2.8221,2.827,2.8337,2.831,2.8644,2.8951,2.9192,2.9472,2.9726,2.9913,2.9913,2.9913,2.9913,2.9833,2.994,3.0234,3.0608,3.0541,3.0087,3.0354,3.0167,2.9722,3.0983,3.199,3.2722,3.3947,3.4854,3.5543,3.6654,3.7003,3.702,3.7125,3.6761,3.6058,3.4596,3.336,3.2057,2.9877,3.0194,3.1671,3.2745,3.5113,3.7793,3.9747,4.137,4.2773,4.411,4.4512,4.4629,4.4629,4.4941,4.5137,4.4707,4.4961,4.5254,4.5254,4.5391,4.5488,4.5488,4.5488,4.5527,4.5683,4.5937,4.6074,4.5918,4.6406,4.6758,4.6758,4.6621,4.6523,4.6523,4.6387,4.6308,4.6308,4.6308,4.6308,4.6308,4.6308,4.6308,4.6308,4.6308,4.6308,4.6308,4.6719,4.7148,4.7598,4.8008,4.8437,2.6026,2.644,2.6747,2.7953,2.8221,2.8154,2.7789,2.7709,2.7615,2.7308,2.6774,2.644,2.6694,2.6533,2.656,2.7121,2.7482,2.7802,2.8181,2.8221,2.8221,2.8221,2.8221,2.8234,2.8248,2.8425,2.8625,2.8657,2.9098,2.938,2.9472,2.9753,2.9913,2.9913,2.9913,2.9913,2.9913,3.0221,3.0515,3.0795,3.0716,3.0464,3.0159,2.979,2.9657,2.9721,2.9455,3.0798,3.3073,3.3073,3.4073,3.569,3.5502,3.5339,3.529,3.5063,3.4029,3.2684,3.2286,3.2303,3.2237,3.0192,2.9686,3.0348,3.2528,3.3292,3.4329,3.8715,4.009,4.091,4.3606,4.4642,4.5058,4.5058,4.5391,4.5586,4.5156,4.541,4.5703,4.5703,4.6035,4.6308,4.6308,4.6308,4.6445,4.6875,4.6953,4.6816,4.6426,4.707,4.7578,4.7578,4.7207,4.6973,4.6973,4.6582,4.6328,4.6328,4.6308,4.6308,4.6308,4.6308,4.6308,4.6308,4.6308,4.6308,4.6308,4.6719,4.7148,4.7598,4.8008,4.8437,2.6547,2.7188,2.7846,2.8154,2.8221,2.8207,2.8127,2.7856,2.7549,2.7041,2.648,2.5959,2.5598,2.5825,2.6186,2.656,2.7256,2.7805,2.8181,2.8221,2.8221,2.8221,2.8221,2.8328,2.8556,2.8577,2.8818,2.9232,2.9427,2.9494,2.9486,2.9753,2.9913,2.9913,2.9913,2.9913,2.9913,3.0421,3.0715,3.0795,2.9093,2.8091,2.7549,2.5615,2.5674,2.716,2.7384,2.886,3.1125,3.1125,3.1429,3.193,3.326,3.3655,3.3456,3.3624,3.3308,3.2483,3.1007,3.0602,3.0493,2.9985,2.986,3.0003,3.0616,3.1997,3.3644,3.4853,3.7893,4.0989,4.2008,4.3937,4.5508,4.5508,4.584,4.6035,4.5605,4.584,4.6152,4.6152,4.623,4.6308,4.6308,4.6308,4.6445,4.6875,4.7207,4.7383,4.7266,4.7441,4.7578,4.7578,4.748,4.7422,4.7422,4.7012,4.6777,4.6777,4.6484,4.6308,4.6308,4.6308,4.6308,4.6308,4.6308,4.6308,4.6308,4.6719,4.7148,4.7598,4.8008,4.8437,2.7255,2.7762,2.8221,2.8221,2.7448,2.6837,2.7476,2.6674,2.5834,2.599,2.5692,2.5277,2.4943,2.5478,2.6077,2.6381,2.7257,2.798,2.8194,2.8221,2.8221,2.8221,2.8297,2.847,2.8657,2.8878,2.9158,2.9472,2.9486,2.9539,2.9673,2.982,2.9913,2.9913,2.9913,3.0047,3.0301,3.0635,3.0862,3.0982,2.8531,2.7157,2.6677,2.4034,2.4166,2.6466,2.6605,2.8247,3.0742,3.0742,3.0742,3.0794,3.1743,3.2044,3.1873,3.1774,3.1717,3.1511,3.0334,2.9913,2.9913,2.9913,2.9913,2.9913,2.9913,3.0781,3.2115,3.3206,3.5652,3.8191,3.9701,4.2057,4.4083,4.4272,4.5308,4.623,4.5996,4.6133,4.6308,4.6308,4.6308,4.6308,4.6308,4.6308,4.6504,4.7129,4.7422,4.7715,4.8086,4.8144,4.8144,4.8144,4.7969,4.7851,4.7851,4.7461,4.7129,4.6933,4.6699,4.6504,4.6308,4.6308,4.6308,4.6308,4.6308,4.6308,4.6308,4.6543,4.6875,4.7305,4.7734,4.8164,2.802,2.8221,2.8221,2.8221,2.6418,2.5095,2.658,2.5013,2.3668,2.4744,2.473,2.4489,2.4409,2.5157,2.5953,2.6266,2.731,2.8039,2.8136,2.8221,2.8248,2.8301,2.8438,2.8665,2.8745,2.9168,2.9472,2.9553,2.9539,2.9646,2.99,2.9913,2.9913,2.9913,2.9913,3.0194,3.0782,3.0795,3.073,3.0582,2.7872,2.6293,2.5735,2.282,2.3334,2.6363,2.6283,2.8167,3.1223,3.1276,3.1289,3.1263,3.1009,3.0889,3.0782,3.0274,3.0207,3.0327,3.006,2.998,2.9967,2.9927,2.9913,2.9913,2.9913,2.994,3.047,3.2742,3.3665,3.4576,3.7205,3.9737,4.1675,4.1996,4.4011,4.5851,4.5851,4.6026,4.6308,4.6308,4.6308,4.6308,4.6308,4.6308,4.6601,4.7461,4.7578,4.7891,4.875,4.8867,4.8867,4.8867,4.8516,4.8301,4.8301,4.791,4.75,4.7129,4.6992,4.6758,4.6406,4.6328,4.6328,4.6387,4.6387,4.6406,4.6465,4.6406,4.6601,4.7031,4.7402,4.7812,2.8181,2.8221,2.8221,2.8221,2.6418,2.5144,2.683,2.4988,2.3241,2.4193,2.4128,2.3768,2.326,2.4102,2.5104,2.5903,2.6714,2.7467,2.8136,2.8221,2.827,2.8604,2.8644,2.8918,2.9602,2.9574,2.9633,2.982,2.9847,2.986,2.9913,2.9913,2.9913,2.9913,2.9913,3.0194,3.0782,3.0795,2.9778,2.7824,2.5224,2.2739,2.0166,1.7608,1.9083,2.3696,2.3853,2.6723,3.1249,3.149,3.1597,3.1583,3.1543,3.137,3.1142,3.1036,3.0728,3.0354,3.0301,3.0287,3.0247,2.9993,2.9913,2.9913,2.9913,3.0087,3.0378,3.0872,3.2751,3.4787,3.5349,3.7483,3.9547,3.9614,4.1439,4.3264,4.3264,4.4826,4.6308,4.6308,4.6308,4.6308,4.6308,4.6308,4.6601,4.7461,4.7578,4.7891,4.875,4.8867,4.8867,4.8867,4.8789,4.875,4.875,4.834,4.8066,4.7988,4.7324,4.6894,4.6816,4.6484,4.6465,4.6816,4.6816,4.6992,4.7363,4.6992,4.7051,4.7461,4.7539,4.7812,2.8221,2.8221,2.8221,2.8221,2.5543,2.3201,2.4573,2.2563,2.0616,2.1395,2.2306,2.2752,2.2458,2.3544,2.4543,2.517,2.625,2.7304,2.805,2.8197,2.827,2.8631,2.8778,2.9105,2.9636,2.9722,2.9766,2.99,2.9913,2.9913,2.9913,2.9913,2.9913,2.9913,2.9913,3.0194,3.0782,3.0795,2.9554,2.7098,2.4638,2.1819,1.8921,1.7804,1.9544,2.3422,2.4861,2.7818,3.1463,3.161,3.1664,3.1664,3.1664,3.1583,3.1423,3.1116,3.0822,3.0568,3.0421,3.0354,3.0368,3.0368,3.0368,3.0368,3.0368,3.0474,3.0621,3.0768,3.1816,3.298,3.3149,3.5126,3.7067,3.7067,3.8977,4.1079,4.2353,4.3549,4.4738,4.6026,4.6308,4.6308,4.6308,4.6308,4.6601,4.7461,4.7578,4.7891,4.875,4.8867,4.8867,4.8867,4.8867,4.8867,4.8867,4.8672,4.8457,4.8223,4.7832,4.75,4.7285,4.707,4.707,4.7266,4.7266,4.7383,4.7578,4.7363,4.7383,4.7578,4.7578,4.7812,2.6842,2.7448,2.7968,2.6927,2.3898,2.1312,2.1908,1.9667,1.781,1.9027,2.0364,2.1529,2.1991,2.3102,2.4107,2.4629,2.5872,2.7066,2.8056,2.8133,2.8203,2.8644,2.8898,2.9179,2.9539,2.978,2.9913,2.9913,2.9913,2.9913,2.9913,2.9913,2.9913,2.9913,2.9913,3.0194,3.0782,3.0795,2.9276,2.6245,2.4355,2.1848,1.9091,1.9219,2.1206,2.4525,2.6587,2.9078,3.1664,3.1664,3.1664,3.1664,3.1664,3.1664,3.161,3.1156,3.0942,3.0849,3.0621,3.0541,3.0581,3.0808,3.0849,3.0795,3.0795,3.0835,3.0929,3.1156,3.1276,3.137,3.161,3.3135,3.4686,3.5152,3.6791,3.8885,4.1259,4.2264,4.3175,4.5109,4.5939,4.6308,4.6308,4.6308,4.6601,4.7461,4.7578,4.7891,4.875,4.8867,4.8867,4.8867,4.8867,4.8867,4.8867,4.8867,4.8711,4.8359,4.8262,4.8066,4.7734,4.7637,4.7617,4.7715,4.7715,4.7754,4.7851,4.7754,4.7715,4.7715,4.7715,4.7949,2.2428,2.4935,2.7181,2.2944,2.148,2.1013,2.0198,1.757,1.6187,1.9001,1.9397,1.9944,2.2004,2.2699,2.35,2.4904,2.5591,2.6413,2.7988,2.7902,2.7959,2.8898,2.9018,2.9259,2.982,2.99,2.9913,2.9913,2.9913,2.9913,2.9913,2.9913,2.9913,2.9913,2.9913,3.0194,3.0782,3.0795,2.8415,2.379,2.3496,2.1865,1.8896,1.9159,2.2072,2.6853,2.7381,2.9173,3.1664,3.1664,3.1664,3.1664,3.1664,3.1664,3.1664,3.161,3.1423,3.1183,3.1156,3.1142,3.1156,3.1183,3.1009,3.0795,3.0795,3.0982,3.1196,3.1223,3.1423,3.1637,3.1664,3.1853,3.2583,3.4779,3.5509,3.6329,3.8811,4.1079,4.2621,4.2907,4.4738,4.6308,4.6308,4.6308,4.6601,4.7461,4.7578,4.7891,4.875,4.8867,4.8867,4.8867,4.8867,4.8867,4.8867,4.8867,4.8848,4.8808,4.8418,4.8183,4.8144,4.7793,4.7754,4.8144,4.8144,4.834,4.875,4.834,4.8144,4.8144,4.8144,4.8379,2.1439,2.26,2.3555,2.1653,2.0086,1.8788,1.7941,1.632,1.5278,1.6097,1.7636,1.9184,2.046,2.1784,2.2977,2.4293,2.5106,2.5974,2.6988,2.731,2.7696,2.8417,2.8671,2.9085,2.9847,2.9913,2.9913,2.9913,2.9913,2.9913,2.9913,3.0087,3.0181,3.0181,3.0354,3.0635,3.1049,3.0875,2.9077,2.5671,2.5671,2.4082,2.1468,2.3394,2.5417,2.7428,2.9243,3.0691,3.1664,3.1664,3.1664,3.1664,3.1664,3.1664,3.165,3.1463,3.133,3.1223,3.1223,3.1223,3.1249,3.1436,3.141,3.1316,3.1316,3.1396,3.149,3.149,3.1583,3.1664,3.1664,3.1664,3.1948,3.2852,3.3135,3.3779,3.6252,3.7528,3.8611,4.0175,4.2353,4.41,4.41,4.5285,4.6601,4.7461,4.7578,4.7891,4.875,4.8867,4.8867,4.8867,4.8867,4.8867,4.8867,4.8867,4.8867,4.8867,4.8691,4.8594,4.8594,4.8437,4.8418,4.8594,4.8594,4.8691,4.8867,4.8691,4.8594,4.8594,4.832,4.8574,1.9263,2.0135,2.0875,1.9498,1.8268,1.7095,1.5739,1.4844,1.4251,1.4057,1.5682,1.7652,1.9298,2.065,2.206,2.3614,2.4556,2.5405,2.6293,2.6747,2.7255,2.7936,2.8203,2.8684,2.9566,2.982,2.9913,2.9913,2.9913,2.9913,2.9913,3.0194,3.0354,3.0354,3.0635,3.0929,3.1223,3.1022,2.9682,2.7204,2.7204,2.6128,2.4309,2.651,2.7854,2.874,3.076,3.1664,3.1664,3.1664,3.1664,3.1664,3.1664,3.1664,3.1637,3.1436,3.1356,3.1356,3.1356,3.0873,3.0333,3.1407,3.1189,3.0687,3.1474,3.1664,3.1664,3.1664,3.1664,3.1664,3.1664,3.1664,3.169,3.1784,3.1797,3.2287,3.4116,3.5059,3.6045,3.7702,4.0601,4.2676,4.264,4.4649,4.6601,4.7461,4.7578,4.7891,4.875,4.8867,4.8906,4.9043,4.9062,4.9004,4.8867,4.8984,4.9004,4.8867,4.8867,4.857,4.7791,4.7791,4.7791,4.7791,4.7791,4.8181,4.8867,4.8867,4.8867,4.8848,4.8418,4.8535,1.4714,1.7628,2.0096,1.5521,1.5869,1.6516,1.3658,1.2695,1.2639,1.375,1.3729,1.4791,1.8823,1.9519,2.0311,2.3027,2.3892,2.473,2.6186,2.64,2.672,2.7602,2.7709,2.8056,2.8965,2.9579,2.9913,2.9913,2.9913,2.9913,2.9913,3.0194,3.0354,3.0354,3.0635,3.0929,3.1223,3.1223,2.9965,2.757,2.757,2.7334,2.7098,2.7357,2.8823,3.1142,3.1543,3.1664,3.1664,3.1664,3.1664,3.1664,3.1664,3.1664,3.1664,3.1664,3.1664,3.1664,3.1664,3.0007,2.826,3.089,2.9911,2.8356,3.089,3.1664,3.1664,3.1664,3.1664,3.1664,3.1664,3.1664,3.1744,3.2024,3.2104,3.2171,3.2576,3.4514,3.611,3.5876,3.9798,4.3,4.2694,4.4649,4.6601,4.7461,4.7578,4.7891,4.875,4.8867,4.9023,4.9473,4.9512,4.9336,4.8887,4.9258,4.9336,4.8887,4.8867,4.7698,4.5173,4.5079,4.5079,4.5079,4.5079,4.6336,4.8867,4.8867,4.8867,4.8848,4.8418,4.8203,1.3818,1.481,1.5663,1.4041,1.4111,1.4141,1.2917,1.2461,1.2299,1.2359,1.3122,1.4673,1.7444,1.8822,2.0589,2.3713,2.4416,2.4877,2.5945,2.6519,2.7028,2.7615,2.8591,2.9325,2.9606,2.9806,2.9913,2.9913,2.9913,2.9913,2.9913,3.0194,3.0448,3.0648,3.0942,3.1236,3.153,3.1129,3.065,3.0071,2.9878,2.984,2.9943,3.0226,3.0841,3.153,3.1623,3.1664,3.1664,3.1664,3.1664,3.1664,3.1664,3.1664,3.1664,3.1664,3.1664,3.1664,3.1664,3.0007,2.7972,2.8752,2.7287,2.5625,2.826,3.0306,3.1664,3.1664,3.1664,3.1664,3.1664,3.1824,3.1984,3.2078,3.2251,3.2425,3.2616,3.3213,3.3685,3.338,3.5911,3.8655,4.0291,4.2567,4.5078,4.7599,4.8008,4.8223,4.8789,4.9121,4.9375,4.9512,5.0058,5.0098,4.9375,4.9453,4.9336,4.8887,4.8867,4.7698,4.5079,4.4984,4.4211,4.2482,4.4116,4.5361,4.6242,4.8069,4.8867,4.8867,4.9023,4.8945,1.3132,1.3383,1.3519,1.3424,1.32,1.2915,1.2576,1.2305,1.202,1.1687,1.2335,1.366,1.5732,1.6927,1.8524,2.1522,2.2666,2.3625,2.4765,2.5872,2.6881,2.7602,2.8911,2.9713,2.9593,2.9887,3.0034,2.9927,2.9913,2.9913,2.9913,3.01,3.0327,3.0621,3.1022,3.1316,3.1503,3.1249,3.1209,3.1396,3.1209,3.1223,3.1396,3.1583,3.1664,3.1664,3.1664,3.1664,0.0,3.1664,3.1664,3.1664,3.1664,3.108,3.0306,3.1379,3.108,3.021,3.021,2.9135,2.7684,2.6613,2.5302,2.4479,2.7021,2.9625,3.1664,3.1664,3.1664,3.169,3.1797,3.1971,3.2158,3.2385,3.2572,3.2746,3.2853,3.2879,3.2759,3.2345,3.4329,3.6576,3.7897,4.1114,4.4216,4.6385,4.6774,4.6925,4.7343,4.6914,4.6547,4.6694,4.7301,4.7817,4.8159,4.9181,4.9512,4.8906,4.8867,4.7307,4.3737,4.3547,4.2386,3.9787,4.1235,4.2594,4.3547,4.6149,4.7324,4.7284,4.8579,4.9043,0.0,1.3091,1.3322,1.3308,1.299,1.2644,1.2488,1.2128,0.0,1.1633,1.1491,1.1995,1.406,1.4288,1.4982,1.7377,1.9426,2.1331,2.2948,2.4916,2.6613,2.7696,2.8858,2.9459,2.9165,2.9873,3.0247,2.9967,2.9927,2.9913,2.9913,2.9913,3.0047,3.0314,3.0889,3.1209,3.1223,3.1503,3.165,3.1664,3.165,3.165,3.1664,3.1664,3.1664,3.1664,3.1664,3.1664,3.1664,3.1664,3.1664,3.1677,3.1474,2.9924,2.8068,3.0496,2.9816,2.7588,2.778,2.7588,2.6806,2.4192,2.3552,2.4282,2.6822,2.9375,3.15,3.1677,3.1582,3.1471,3.1736,3.1829,3.2001,3.2544,3.2887,3.308,3.336,3.3414,3.324,3.2692,3.4589,3.6223,3.5901,3.9978,4.342,4.411,4.4164,4.4289,4.4648,4.2953,4.1784,4.2212,4.2476,4.3537,4.5647,4.8289,4.9597,4.8906,4.8755,4.6429,4.1428,4.1043,3.969,3.7085,3.7228,3.8601,4.1285,4.3807,4.4876,4.4591,4.7564,4.8672,1.1857,0.0,1.2522,1.2406,1.2298,1.2176,0.0,1.1904,1.1755,1.1497,1.1416,1.203,1.4234,1.4373,1.5159,1.8035,1.8867,2.0179,2.3232,2.6511,2.8751,2.9032,2.99,3.0368,3.0074,3.0234,3.0327,3.0261,3.0047,2.9913,2.9913,2.9913,2.9953,3.002,3.0595,3.0996,3.1223,3.1289,3.145,3.1664,3.1436,3.145,3.1664,3.1664,3.1664,3.1664,3.1664,3.1664,3.1664,3.1664,3.1664,3.1474,2.9529,2.8368,2.7876,2.8464,2.7095,2.5141,2.7095,2.5141,2.1468,1.888,1.9443,2.1668,2.4454,2.6932,2.9297,3.1146,3.0351,2.885,2.8922,2.9334,2.9673,2.9794,3.1614,3.3334,3.34,3.3414,3.3307,3.2946,3.3412,3.4465,3.6305,3.7682,3.926,4.1627,4.1981,4.1998,4.2082,4.2107,4.2146,4.2229,4.2559,4.294,4.3068,4.5514,4.7627,4.8814,4.7008,4.4512,4.1332,3.9318,3.6987,3.4386,3.6475,3.8858,4.1471,4.4395,4.561,4.5345,4.8062,4.9141,1.1369,1.1843,1.2284,1.2271,1.2216,1.2142,1.206,1.1884,1.1687,1.1531,1.1497,1.1844,1.3157,1.3386,1.4301,1.6839,1.8475,2.0809,2.498,2.7826,2.9486,2.9486,3.0261,3.0728,3.0568,3.0555,3.0501,3.0368,3.0087,2.9913,2.9913,2.9913,2.998,3.0114,3.0555,3.0862,3.1022,3.1289,3.1517,3.1664,3.1503,3.1517,3.1664,3.1664,3.1664,3.1664,3.1664,3.1664,3.1664,3.1664,3.0985,2.9816,2.8356,2.6312,2.4366,2.5529,2.4366,2.2321,2.3773,2.1603,1.8275,1.825,1.8356,1.9314,2.3336,2.5351,2.7075,3.0863,3.0009,2.807,2.8187,2.7611,2.7325,2.8759,3.0335,3.1869,3.31,3.3414,3.332,3.304,3.3093,3.3616,3.4913,3.6173,3.7575,3.9189,3.9557,3.9554,3.9554,3.909,3.8811,3.8811,3.9079,3.9556,4.029,4.1505,4.3112,4.5227,4.4021,4.2099,3.9496,3.8066,3.6117,3.3728,3.5174,3.6708,3.8229,4.1075,4.3031,4.4015,4.6489,4.8232,1.1179,1.1762,1.2325,1.2332,1.2291,1.2244,1.2196,1.1891,1.1613,1.1592,1.1606,1.1694,1.1925,1.2443,1.3516,1.5472,1.8724,2.2555,2.6852,2.8778,2.9686,2.9686,3.0421,3.0915,3.0862,3.0862,3.0742,3.0448,3.0154,2.9967,2.9913,2.9913,3.0034,3.0287,3.0621,3.0795,3.0795,3.1383,3.1664,3.1664,3.1664,3.1664,3.1664,3.1664,3.1664,3.1664,3.1664,3.1664,3.1664,3.1664,3.021,2.778,2.7384,2.4269,2.0363,2.2906,2.2028,1.9396,1.9429,1.8068,1.6738,1.9018,1.8348,1.7608,2.2929,2.4437,2.5341,3.0586,2.9857,2.7455,2.7771,2.6025,2.486,2.7421,2.8698,2.9939,3.2284,3.31,3.3334,3.3093,3.324,3.3334,3.3093,3.5097,3.6751,3.678,3.6931,3.7136,3.718,3.587,3.4817,3.4763,3.4763,3.5548,3.7432,3.7254,3.7877,3.99,4.0368,3.9399,3.679,3.6721,3.582,3.3983,3.3935,3.4095,3.4389,3.7026,3.9512,4.1716,4.4323,4.6756,1.1436,1.1999,1.2325,1.1714,1.183,1.2033,1.1782,1.1667,1.1586,1.145,1.1531,1.1816,1.2474,1.3839,1.532,1.6789,2.1116,2.4847,2.6206,2.8796,3.0595,3.0595,3.1156,3.1436,3.1183,3.1156,3.1036,3.0755,3.0461,3.0181,2.9927,2.9913,2.994,2.998,3.0515,3.0795,3.0795,3.1383,3.1664,3.1664,3.1664,3.1664,3.1664,3.1664,3.1664,3.1664,3.1664,3.1664,3.1664,3.1664,3.021,2.7588,2.5335,2.2711,2.0363,2.2906,2.0862,1.6686,1.682,1.6588,1.6455,1.703,1.6948,1.7581,2.3051,2.4457,2.524,3.0631,2.8602,2.4885,2.4916,2.332,2.1785,2.2226,2.5932,2.942,2.9825,3.1768,3.34,3.336,3.3387,3.34,3.336,3.3673,3.4095,3.4367,3.4449,3.4571,3.4816,3.4971,3.503,3.479,3.4763,3.4733,3.4836,3.4395,3.4241,3.4571,3.6706,3.6706,3.4086,3.4,3.3949,3.3881,3.4122,3.4402,3.4696,3.7676,3.9176,3.9297,4.3923,4.6037,1.1294,1.1748,1.2094,1.1925,1.3439,1.4643,1.3165,1.4782,1.5786,1.2885,1.3339,1.4061,1.3127,1.3785,1.5713,1.9471,2.3968,2.7292,2.8118,2.9416,3.0434,3.0755,3.1169,3.1436,3.1463,3.1316,3.1102,3.0808,3.0528,3.0234,2.9927,3.0074,3.0234,3.0381,3.0808,3.1102,3.1263,3.153,3.1664,3.1664,3.1664,3.1664,3.1664,3.1664,3.1664,3.1664,3.1664,3.1664,3.1569,3.021,2.8068,2.5432,2.2799,2.1049,2.0175,2.1343,2.0342,1.8091,1.6874,1.6476,1.6585,1.6802,1.6768,1.7366,2.1497,2.236,2.3147,2.8724,2.7342,2.4327,2.4327,2.1625,1.9253,2.08,2.4187,2.7476,2.9014,3.1592,3.3668,3.3668,3.3788,3.3855,3.3694,3.3801,3.3895,3.3895,3.4162,3.4469,3.475,3.5164,3.5324,3.503,3.4857,3.4576,3.4122,3.3668,3.3414,3.3414,3.4571,3.467,3.3414,3.3414,3.3627,3.4108,3.4095,3.4309,3.4763,3.6211,3.7515,3.8762,4.2311,4.4735,1.1328,1.1674,1.206,1.2372,1.481,1.6444,1.4203,1.7243,1.9054,1.4128,1.508,1.6029,1.3788,1.4112,1.6641,2.2241,2.5884,2.8592,3.001,3.0221,3.0421,3.0942,3.1196,3.1423,3.165,3.1463,3.1183,3.0822,3.0581,3.0301,2.994,3.0194,3.0461,3.0688,3.1036,3.133,3.1557,3.1637,3.1664,3.1664,3.1664,3.1664,3.1664,3.1664,3.1664,3.1664,3.1664,3.1379,3.0592,2.8656,2.5926,2.2809,2.0755,2.0363,2.0853,2.0265,2.0492,2.0682,1.7574,1.6619,1.6768,1.689,1.6822,1.7202,1.9946,2.0528,2.1288,2.6276,2.5577,2.3605,2.4207,2.0747,1.7496,1.9662,2.2235,2.5009,2.7782,3.0766,3.3156,3.378,3.4122,3.4242,3.4028,3.4175,3.4269,3.4122,3.4536,3.4963,3.5257,3.5551,3.5591,3.5231,3.4937,3.4496,3.3828,3.3547,3.3414,3.3414,3.3414,3.3414,3.3414,3.3414,3.3694,3.4309,3.4042,3.4175,3.4763,3.4696,3.5769,3.7753,4.0006,4.2311,1.1918,1.2223,1.2528,1.2834,1.4304,1.522,1.3788,1.6587,1.8358,1.4259,1.5451,1.6518,1.4181,1.5882,1.9326,2.433,2.5802,2.7433,3.0624,3.1129,3.1249,3.157,3.1623,3.165,3.1664,3.165,3.1396,3.0835,3.0768,3.0515,2.994,3.0194,3.0368,3.0394,3.0929,3.1236,3.1263,3.153,3.1664,3.1664,3.1664,3.1664,3.1664,3.1664,3.1664,3.1664,3.1664,3.0306,2.8068,2.7876,2.4851,2.0265,2.0077,2.1441,2.3296,2.0853,2.1667,2.3157,1.8176,1.6619,1.6754,1.6761,1.6659,1.7042,1.9658,2.0326,2.079,2.3768,2.2765,2.1497,2.4132,2.0951,1.7083,1.7293,1.9357,2.2131,2.4906,2.7869,3.0859,3.336,3.4122,3.4309,3.4295,3.4309,3.4402,3.4656,3.4963,3.5271,3.5565,3.5859,3.5819,3.5257,3.4937,3.4402,3.3521,3.3427,3.3414,3.3414,3.3414,3.3414,3.3414,3.3414,3.3694,3.4309,3.4042,3.4175,3.4763,3.4482,3.4452,3.4644,3.691,3.8314,1.1755,1.2135,1.2576,1.2881,1.4514,1.5707,1.4244,1.8882,2.2053,1.7243,1.8443,1.9045,1.4835,1.6603,1.9742,2.2983,2.5275,2.7699,3.0769,3.1223,3.133,3.1637,3.1664,3.1664,3.1664,3.1664,3.1503,3.1089,3.0889,3.0688,3.0474,3.0568,3.0715,3.0889,3.1289,3.1503,3.1503,3.161,3.1757,3.1931,3.1757,3.1664,3.1664,3.1664,3.1664,3.1664,3.1664,3.1175,3.0007,2.6698,2.4172,2.2428,2.265,2.4197,2.6045,2.3542,2.3335,2.353,1.8308,1.6619,1.6748,1.6748,1.6585,1.6604,1.7603,1.7921,1.8343,2.1331,2.0253,1.8777,2.1523,1.9624,1.6978,1.6978,2.0384,2.3981,2.5009,2.9007,3.2634,3.3678,3.4122,3.4269,3.4082,3.4202,3.4362,3.4469,3.4736,3.5164,3.5819,3.5685,3.5444,3.5217,3.4429,3.3788,3.344,3.3587,3.3627,3.3427,3.3414,3.3414,3.3414,3.3414,3.3694,3.4309,3.3841,3.3881,3.4482,3.4189,3.4055,3.4144,3.8248,4.0451,1.1986,1.2298,1.2718,1.3024,1.486,1.6194,1.4682,1.9489,2.2855,1.8091,1.848,1.8581,1.5201,1.6239,1.8795,2.215,2.4502,2.7193,3.0833,3.137,3.1436,3.1637,3.1664,3.1664,3.1664,3.1664,3.1543,3.1249,3.0955,3.0795,3.0795,3.0795,3.0929,3.1209,3.1517,3.1664,3.1664,3.1664,3.181,3.2104,3.1904,3.181,3.181,3.181,3.1757,3.1664,3.1664,3.127,3.0115,2.5722,2.3433,2.3023,2.483,2.6624,2.7747,2.524,2.4446,2.3734,1.8406,1.6693,1.6815,1.6768,1.6578,1.6402,1.6551,1.649,1.6842,1.9078,1.8255,1.7231,1.8965,1.8232,1.7188,1.8118,2.1207,2.4392,2.6137,2.9734,3.2838,3.3678,3.4122,3.4255,3.4055,3.4189,3.4322,3.4322,3.4656,3.5124,3.5725,3.5444,3.5084,3.4817,3.3961,3.3414,3.3414,3.3708,3.3748,3.3427,3.3507,3.3521,3.3414,3.3507,3.3801,3.4309,3.3814,3.3814,3.4322,3.3935,3.3734,3.3835,3.7343,3.9861,1.2759,1.284,1.3037,1.3322,1.5283,1.6618,1.4776,1.7715,1.9749,1.6039,1.4719,1.4489,1.5072,1.4821,1.6416,2.2274,2.3537,2.5641,3.0946,3.1664,3.1664,3.1664,3.1664,3.1664,3.1664,3.1664,3.1543,3.1249,3.0955,3.0795,3.0808,3.0795,3.0929,3.1223,3.1517,3.1664,3.1664,3.1664,3.1824,3.2104,3.2104,3.2104,3.2104,3.2104,3.1944,3.1664,3.1677,3.021,2.7588,2.5045,2.2542,2.0963,2.619,2.8418,2.8346,2.5545,2.4679,2.405,1.8579,1.6849,1.6951,1.6795,1.6646,1.6544,1.67,1.6639,1.6585,1.6897,1.6978,1.6978,1.6978,1.6978,1.7706,2.0488,2.1103,2.2648,2.8088,2.9621,3.0642,3.336,3.4108,3.4309,3.4309,3.4309,3.4309,3.4322,3.4803,3.5191,3.5191,3.5191,3.4857,3.3975,3.3601,3.3414,3.3414,3.3708,3.3748,3.3427,3.3708,3.3748,3.3427,3.3721,3.4028,3.4309,3.4042,3.4028,3.4322,3.3708,3.3414,3.3414,3.3414,3.5204,1.2047,1.2596,1.3643,1.5272,1.6801,1.8356,1.9777,2.0842,2.0891,1.8274,1.7707,1.7034,1.5448,1.683,1.9295,2.2703,2.5104,2.7782,3.127,3.1664,3.1664,3.1664,3.1664,3.1664,3.1664,3.1664,3.1637,3.1543,3.1076,3.1062,3.1677,3.1129,3.1116,3.1824,3.173,3.1664,3.1664,3.1664,3.1917,3.2412,3.2412,3.2305,3.2104,3.2104,3.1944,3.1677,3.1891,3.1468,3.0306,2.7672,2.636,2.6103,2.7865,2.9555,3.059,2.6361,2.481,2.405,1.8579,1.6781,1.6795,1.6639,1.649,1.6402,1.6544,1.6558,1.6585,1.6897,1.6978,1.6978,1.6978,1.8424,2.0079,2.0895,2.4084,2.7261,2.8913,3.091,3.2615,3.3346,3.3627,3.3681,3.3681,3.3681,3.3761,3.3975,3.4162,3.4282,3.4282,3.4456,3.4322,3.3627,3.3467,3.3414,3.3414,3.3708,3.3748,3.3427,3.3708,3.3748,3.3427,3.3721,3.4028,3.4309,3.4042,3.4028,3.4322,3.3708,3.3414,3.3414,3.5253,3.7817,1.2779,1.3295,1.418,1.5694,1.7974,2.053,2.3428,2.2464,2.0354,1.8182,1.7529,1.7049,1.5801,1.78,2.0437,2.3084,2.5927,2.8752,3.1379,3.1664,3.1664,3.1664,3.1664,3.1664,3.1664,3.1664,3.1664,3.1664,3.1236,3.1249,3.1891,3.1423,3.1436,3.2078,3.2051,3.2011,3.2011,3.1904,3.2131,3.2719,3.2696,3.2452,3.2278,3.2278,3.2118,3.1851,3.2024,3.1474,3.0433,2.9729,2.9128,2.8682,2.9935,3.1278,3.1966,2.6933,2.5002,2.4177,1.8602,1.6748,1.6727,1.6571,1.6429,1.6347,1.6551,1.6571,1.6585,1.6897,1.6978,1.7293,1.8327,2.0696,2.2752,2.2752,2.6137,2.9319,2.9319,3.1466,3.31,3.1982,3.2699,3.3414,3.3414,3.3414,3.348,3.3668,3.3801,3.3881,3.3881,3.4042,3.3908,3.3307,3.3454,3.3547,3.3427,3.3814,3.3935,3.3614,3.3788,3.3748,3.3427,3.3828,3.4135,3.4322,3.4148,3.4148,3.4322,3.3708,3.3414,3.3414,3.5054,3.7377,1.419,1.4407,1.4681,1.5276,1.8919,2.2945,2.5218,2.2763,1.9234,1.6774,1.5719,1.5432,1.5981,1.7843,2.033,2.3391,2.6119,2.8752,3.1379,3.1664,3.1664,3.1664,3.1664,3.1664,3.1664,3.1664,3.1664,3.1664,3.1396,3.1383,3.173,3.1677,3.1784,3.2131,3.2358,3.2562,3.2562,3.2198,3.2358,3.2933,3.2652,3.2616,3.2643,3.2643,3.2398,3.2144,3.2144,3.1043,2.933,3.1296,3.1086,2.9767,3.2069,3.3146,3.2659,2.725,2.5215,2.4363,1.8662,1.6768,1.6748,1.6592,1.6463,1.6422,1.6673,1.6659,1.6619,1.6904,1.6978,1.7601,2.0079,2.2752,2.4804,2.4804,2.7159,2.9217,2.9014,3.105,3.2284,2.9837,3.1567,3.3414,3.3414,3.3414,3.3414,3.3414,3.3654,3.3841,3.3841,3.3868,3.3668,3.308,3.3534,3.3761,3.344,3.3948,3.4162,3.3908,3.3881,3.3761,3.3467,3.4015,3.4322,3.4322,3.4322,3.4322,3.4322,3.3708,3.3414,3.3414,3.3414,3.5037,1.2963,1.3627,1.4804,1.6928,2.174,2.5047,2.1631,2.1886,2.2104,1.9346,1.7232,1.5927,1.6056,1.8136,2.0703,2.3461,2.6119,2.8752,3.1379,3.1664,3.1664,3.1664,3.1664,3.1664,3.1664,3.1664,3.1664,3.1664,3.1396,3.1557,3.2318,3.1704,3.1664,3.2425,3.2064,3.1864,3.1864,3.1797,3.2064,3.2639,3.2332,3.2318,3.2643,3.2643,3.2519,3.2452,3.2452,3.2583,3.2816,3.2563,3.2491,3.2481,3.2868,3.3013,3.2484,2.7196,2.5215,2.4383,1.8902,1.6931,1.6904,1.6748,1.6761,1.6822,1.6768,1.6815,1.6897,1.6965,1.6978,1.7188,1.7706,1.9871,2.2027,2.2027,2.5727,2.871,2.6546,2.8291,3.004,2.942,3.1567,3.3414,3.3414,3.3414,3.3414,3.3414,3.3467,3.3507,3.3507,3.3734,3.3748,3.336,3.3668,3.3761,3.344,3.3761,3.3948,3.3895,3.3881,3.3855,3.3788,3.4122,3.4322,3.4322,3.4322,3.4322,3.4322,3.3708,3.3414,3.3414,3.3414,3.4937,1.3349,1.3926,1.5066,1.7788,2.1902,2.4638,2.1792,2.2596,2.313,2.0307,1.7818,1.6083,1.6083,1.8228,2.0853,2.3481,2.6119,2.8752,3.1379,3.1664,3.1664,3.1664,3.1664,3.1664,3.1664,3.1664,3.1664,3.1664,3.153,3.1704,3.2305,3.2038,3.2064,3.2629,3.2385,3.2225,3.2091,3.1944,3.2104,3.2643,3.2238,3.2251,3.2643,3.2643,3.2625,3.2746,3.2746,3.3187,3.3841,3.3213,3.3227,3.3627,3.3467,3.2507,3.0764,2.6708,2.4392,2.2648,1.8424,1.6931,1.687,1.6863,1.6863,1.687,1.6863,1.6917,1.6978,1.6978,1.6978,1.7293,1.8634,2.0079,2.1103,2.1103,2.429,2.6955,2.5522,2.7363,2.9319,2.9319,3.1567,3.3414,3.3414,3.3414,3.3414,3.3414,3.3414,3.3467,3.3614,3.3654,3.3587,3.3427,3.3694,3.3761,3.344,3.3708,3.3948,3.4082,3.3961,3.3948,3.4095,3.4376,3.4469,3.4322,3.4322,3.4322,3.4322,3.3708,3.3414,3.3414,3.3574,3.4414,1.3899,1.4319,1.5042,1.7667,2.0485,2.2551,2.1982,2.2596,2.2516,1.988,1.7642,1.6083,1.6083,1.784,2.0371,2.3394,2.5733,2.8164,3.1284,3.1664,3.1664,3.1664,3.1664,3.1664,3.1664,3.1664,3.1664,3.1664,3.1717,3.1877,3.2158,3.2412,3.267,3.271,3.2759,3.2719,3.2478,3.2171,3.2171,3.2465,3.2278,3.2358,3.2692,3.2692,3.2826,3.3053,3.316,3.3521,3.4015,3.3641,3.3681,3.3948,3.3841,3.22,2.9623,2.6342,2.3775,2.131,1.8147,1.6931,1.6849,1.7005,1.6992,1.6917,1.6992,1.7032,1.7046,1.6992,1.6978,1.7496,1.9767,2.0384,2.0384,2.0384,2.2442,2.4495,2.4495,2.7057,2.9319,2.9319,3.1567,3.3414,3.3414,3.3414,3.3414,3.3414,3.3414,3.3521,3.3841,3.3694,3.3547,3.3494,3.3774,3.3814,3.344,3.3708,3.4015,3.4295,3.4095,3.4095,3.4389,3.4629,3.4643,3.4402,3.4402,3.4376,3.4322,3.3761,3.3494,3.3494,3.3761,3.3948,1.2725,1.3532,1.4585,1.5577,1.7954,1.9429,1.7158,1.8656,1.9782,1.7154,1.6374,1.6083,1.6083,1.6374,1.8228,2.3101,2.4172,2.6108,3.0985,3.1664,3.1664,3.1664,3.1664,3.1664,3.1664,3.1664,3.1664,3.1664,3.1904,3.2171,3.2478,3.2616,3.2666,3.2919,3.2465,3.2198,3.2158,3.1877,3.1877,3.2171,3.2385,3.2772,3.3293,3.3293,3.332,3.3387,3.3908,3.4336,3.4603,3.4055,3.4002,3.4215,3.3681,3.324,3.2284,2.7057,2.5009,2.3906,1.8888,1.7148,1.7161,1.7311,1.7439,1.748,1.7236,1.7256,1.7311,1.7053,1.6978,1.7083,1.7496,1.7601,1.7601,1.7601,1.9662,2.1622,2.1622,2.5727,2.9319,2.9319,3.1567,3.3414,3.3414,3.3414,3.3414,3.3414,3.3414,3.3521,3.3841,3.4068,3.4108,3.3855,3.4082,3.4028,3.3454,3.3708,3.4015,3.4295,3.4282,3.4389,3.4696,3.4736,3.475,3.471,3.471,3.4576,3.4322,3.3988,3.3828,3.3828,3.3868,3.4162,1.3044,1.3824,1.4577,1.5242,1.7578,1.8986,1.6229,1.7892,1.9298,1.6665,1.6083,1.6083,1.6083,1.6083,1.7353,2.1049,2.2906,2.5238,2.8943,3.0795,3.173,3.1891,3.1904,3.1984,3.2144,3.2011,3.1904,3.1904,3.2024,3.2238,3.2629,3.2706,3.2839,3.2973,3.2572,3.2278,3.2104,3.181,3.1904,3.2358,3.2826,3.2442,3.1185,3.1585,3.2494,3.3935,3.4202,3.4496,3.4736,3.4309,3.4202,3.4282,3.3841,3.2641,3.0647,2.6649,2.4254,2.2526,1.8635,1.7317,1.7358,1.7595,1.767,1.7623,1.7487,1.7494,1.7487,1.7182,1.71,1.708,1.7005,1.6978,1.6978,1.6978,2.0279,2.3362,2.3362,2.6546,2.9736,3.1265,3.2585,3.3414,3.3414,3.3414,3.3414,3.3414,3.3561,3.3788,3.4095,3.4242,3.4269,3.4148,3.4095,3.3895,3.3454,3.3534,3.3748,3.4055,3.4229,3.4456,3.475,3.4763,3.4763,3.4763,3.4763,3.4616,3.4322,3.4028,3.3801,3.3627,3.3801,3.4028,1.3234,1.3804,1.4251,1.5045,1.6912,1.7969,1.6153,1.7404,1.8364,1.6467,1.6083,1.6083,1.6083,1.6083,1.7154,2.047,2.2614,2.5045,2.8356,3.0561,3.1864,3.2078,3.2171,3.2305,3.2616,3.2278,3.2104,3.2104,3.2171,3.2318,3.2629,3.2893,3.3093,3.3093,3.2732,3.2478,3.2318,3.2104,3.2265,3.2772,3.3307,3.2175,2.9791,3.0165,3.1566,3.3473,3.3473,3.398,3.4736,3.4442,3.4282,3.4175,3.3881,3.1972,2.9014,2.624,2.3597,2.0977,1.8316,1.7446,1.7521,1.7772,1.7792,1.7704,1.7663,1.765,1.7589,1.7277,1.7195,1.7161,1.7019,1.6978,1.6978,1.6978,2.1207,2.5625,2.6955,2.8901,3.0962,3.3,3.3414,3.3414,3.3414,3.3414,3.3414,3.3414,3.3681,3.3988,3.4282,3.4322,3.4322,3.4322,3.4055,3.3761,3.344,3.3414,3.3547,3.3868,3.4162,3.4456,3.475,3.4763,3.4763,3.4763,3.4683,3.4509,3.4202,3.3988,3.3761,3.3534,3.3855,3.4042,1.2576,1.2807,1.3139,1.4448,1.4879,1.5162,1.578,1.6048,1.6103,1.6049,1.6083,1.6083,1.6083,1.6083,1.7741,2.2906,2.3773,2.5722,3.0795,3.1808,3.2078,3.2104,3.2345,3.2629,3.2643,3.2278,3.2104,3.2104,3.2358,3.2629,3.2643,3.308,3.3387,3.3387,3.2839,3.2666,3.2933,3.2919,3.3066,3.3374,3.3708,3.2673,3.0306,3.0435,3.0681,3.113,3.113,3.2505,3.4736,3.4442,3.4162,3.3881,3.3561,3.1781,2.9014,2.624,2.3597,2.0977,1.8316,1.7514,1.7663,1.7812,1.786,1.7826,1.7684,1.765,1.7589,1.7277,1.7195,1.7161,1.7019,1.6978,1.6978,1.6978,2.1207,2.6649,3.1869,3.31,3.3213,3.3414,3.3414,3.3414,3.3414,3.3414,3.3414,3.3414,3.3681,3.3988,3.4282,3.4322,3.4322,3.4322,3.4055,3.3761,3.344,3.3414,3.3547,3.3868,3.4162,3.4456,3.475,3.4763,3.4763,3.475,3.4482,3.4202,3.3908,3.3895,3.3881,3.3868,3.4162,3.4456,1.2528,1.2732,1.2935,1.381,1.4462,1.4957,1.5228,1.5655,1.6042,1.6198,1.6151,1.6083,1.6083,1.6083,1.7253,2.0853,2.2799,2.5141,2.8752,3.0837,3.2171,3.2372,3.2639,3.2893,3.308,3.2666,3.2465,3.2652,3.2585,3.2723,3.2812,3.32,3.3414,3.3414,3.3026,3.2879,3.2973,3.316,3.2563,3.1265,3.1536,2.9417,2.5223,2.7052,2.7952,2.8135,2.9808,3.2158,3.4736,3.4442,3.4148,3.3855,3.3534,3.1668,2.9014,2.624,2.3597,2.0961,1.8202,1.7372,1.7507,1.7561,1.765,1.7717,1.7663,1.7717,1.7724,1.7426,1.7338,1.7283,1.7039,1.6978,1.7908,2.1414,2.3775,2.6751,3.2183,3.3414,3.3414,3.3414,3.3414,3.3414,3.3414,3.3414,3.3414,3.3414,3.3681,3.3921,3.4028,3.4202,3.4242,3.4055,3.3948,3.3761,3.344,3.3414,3.3454,3.3574,3.3868,3.4095,3.4202,3.4202,3.4202,3.4202,3.3895,3.3788,3.3881,3.3881,3.3881,3.3895,3.4002,3.4202,1.2223,1.2393,1.261,1.3363,1.3892,1.4401,1.5106,1.5499,1.5839,1.6286,1.63,1.6526,1.7414,1.7614,1.8459,2.088,2.2867,2.5259,2.8777,3.107,3.2465,3.2666,3.2946,3.32,3.3387,3.2879,3.2666,3.2959,3.2706,3.2679,3.2959,3.3253,3.332,3.3133,3.3227,3.2775,3.156,3.211,3.1121,2.8722,2.8879,2.7162,2.372,2.5517,2.6872,2.7899,2.958,3.1936,3.4589,3.4295,3.4002,3.3708,3.3494,3.1668,2.9014,2.624,2.3597,2.0952,1.813,1.729,1.7419,1.7419,1.7521,1.765,1.765,1.7717,1.7964,1.8553,1.876,1.8657,1.8393,1.7706,1.8432,2.3878,2.5215,2.6751,3.2183,3.3414,3.3414,3.3414,3.3414,3.3414,3.3414,3.3414,3.3414,3.3414,3.3681,3.3881,3.3881,3.4055,3.4095,3.3908,3.3788,3.3641,3.3427,3.3414,3.3414,3.3414,3.3708,3.3881,3.3881,3.3881,3.3881,3.3881,3.3574,3.3507,3.3721,3.3721,3.3788,3.3895,3.3988,3.4349,0.0,0.0,0.0,1.3091,1.3044,1.3268,1.5303,1.5343,1.5242,1.6279,1.649,1.7298,2.0031,2.0528,2.1312,2.3571,2.417,2.6179,3.1417,3.2612,3.2973,3.2973,3.324,3.3414,3.3414,3.2879,3.2666,3.2973,3.2719,3.2679,3.2973,3.3253,3.3146,3.2683,3.3327,3.2161,2.8754,2.9746,2.8862,2.5992,2.6195,2.6306,2.6391,2.617,2.7671,3.0423,3.0176,3.1652,3.4179,3.4002,3.3694,3.3414,3.3414,3.1668,2.9014,2.624,2.3588,2.0944,1.813,1.7283,1.7405,1.7405,1.7514,1.754,1.7629,1.754,1.8153,2.0741,2.1403,2.1218,2.1154,1.9044,1.8432,2.3878,2.5215,2.6751,3.2183,3.3414,3.3414,3.34,3.34,3.3414,3.34,3.34,3.3414,3.3414,3.3681,3.3868,3.3868,3.3868,3.3868,3.3868,3.3587,3.3414,3.3414,3.3414,3.3414,3.3414,3.3708,3.3868,3.3868,3.3868,3.3868,3.3868,3.3574,3.3414,3.3414,3.3414,3.3574,3.3908,3.4202,3.4963,1.1619,0.0,0.0,0.0,0.0,0.0,1.3627,1.4136,1.4719,1.5547,1.5716,1.6076,1.7422,1.9229,2.1401,2.3978,2.6101,2.8634,3.2023,3.2746,3.2973,3.2973,3.324,3.3414,3.3414,3.2879,3.2746,3.3253,3.2826,3.2759,3.3267,3.3374,3.3334,3.3173,3.1554,3.0334,2.965,2.8103,2.5955,2.3322,2.5205,2.5059,2.3179,2.705,2.9376,3.0164,3.2018,3.211,3.1174,3.3081,3.3694,3.3414,3.3414,3.1668,2.9014,2.624,2.3503,2.0762,1.7973,1.7066,1.71,1.71,1.7277,1.746,1.7351,1.7473,1.8125,2.0702,2.1302,2.1218,2.1154,1.9044,1.8432,2.3878,2.5215,2.6751,3.2183,3.3414,3.3347,3.3133,3.3267,3.3347,3.3133,3.3267,3.3414,3.3414,3.3494,3.3547,3.3547,3.3547,3.3547,3.3547,3.3467,3.3414,3.3414,3.3414,3.3414,3.3414,3.3494,3.3547,3.3547,3.3547,3.3547,3.3547,3.3454,3.3414,3.3414,3.3414,3.3681,3.4215,3.4723,3.5244,1.1742,1.1755,1.1837,1.1959,0.0,0.0,1.36,1.4061,1.4638,1.5825,1.6062,1.6592,1.8151,1.9758,2.2091,2.5829,2.786,2.9845,3.2438,3.2973,3.316,3.316,3.3307,3.3414,3.3414,3.3,3.2919,3.3374,3.2986,3.2933,3.3387,3.3414,3.336,3.324,3.0843,2.9147,2.8027,2.552,2.2974,2.0365,2.2885,2.3852,2.3615,2.783,3.0442,3.1697,3.1844,3.1096,2.9656,3.0064,3.0172,3.0129,3.1252,3.0748,2.9014,2.624,2.4187,2.2235,1.8327,1.6978,1.6978,1.6978,1.7134,1.7311,1.7216,1.7317,1.8166,2.1951,2.298,2.2889,2.2883,1.9871,1.8432,2.3878,2.5215,2.6751,3.2183,3.3414,3.336,3.3187,3.3293,3.336,3.3187,3.3293,3.3414,3.3414,3.3414,3.3414,3.3414,3.3414,3.3414,3.3414,3.3414,3.3414,3.3414,3.3414,3.3414,3.3414,3.3414,3.3467,3.3601,3.3614,3.3668,3.3788,3.3788,3.3686,3.3673,3.3534,3.3721,3.4336,3.4923,3.5351,1.1979,1.1993,1.2162,1.2372,1.2189,0.0,1.4217,1.438,1.4611,1.6246,1.6598,1.7345,1.9971,2.061,2.2442,2.7381,2.8523,2.9711,3.2643,3.3253,3.3414,3.3414,3.3414,3.3414,3.3414,3.3146,3.3093,3.3387,3.2862,3.2835,3.34,3.31,3.2881,3.263,3.0477,2.784,2.4849,2.2513,2.0046,1.765,2.008,2.2915,2.5916,2.8188,3.0997,3.3713,3.0656,2.9319,2.9014,2.6035,2.4906,2.542,2.819,2.9319,2.9014,2.6546,2.542,2.4495,1.9253,1.7293,1.6978,1.6978,1.7073,1.7188,1.7175,1.7182,1.8335,2.3833,2.5459,2.5625,2.5317,2.131,1.8738,2.3568,2.5009,2.6649,3.1768,3.32,3.3427,3.3454,3.344,3.3414,3.3414,3.3414,3.3414,3.3414,3.3414,3.3414,3.3414,3.3414,3.3414,3.3414,3.3414,3.3414,3.3414,3.3414,3.3414,3.3414,3.344,3.3574,3.3828,3.3895,3.4042,3.4269,3.4219,3.4233,3.3974,3.3726,3.3868,3.4376,3.4937,3.5338,1.2379,1.2305,1.2345,1.204,1.2352,0.0,1.2488,1.2847,1.339,1.398,1.4197,1.4641,1.571,1.7874,1.9789,2.0732,2.334,2.7153,3.2589,3.3374,3.3414,3.3414,3.3414,3.3414,3.3414,3.3146,3.3093,3.3387,3.1315,3.1001,3.33,3.1265,3.0117,3.0069,2.7561,2.4993,2.223,1.9631,1.8028,1.765,2.008,2.2738,2.5579,2.8109,3.0886,3.3293,3.057,2.9319,2.8913,2.3981,2.3165,2.542,2.819,2.9319,2.9217,2.871,2.7057,2.4701,2.1414,1.8843,1.6978,1.6978,1.7073,1.7168,1.706,1.71,1.8321,2.3672,2.6783,2.7986,2.5727,2.2752,2.0592,2.1622,2.3568,2.6137,2.942,3.1882,3.3494,3.3748,3.3587,3.3414,3.3414,3.3414,3.3414,3.3414,3.3414,3.3414,3.3414,3.3414,3.3414,3.3414,3.3414,3.3414,3.3414,3.3414,3.3414,3.3414,3.3654,3.3708,3.3507,3.3975,3.4148,3.3975,3.408,3.4095,3.4206,3.467,3.4776,3.4566,3.503,3.5231,1.2617,1.2447,1.2467,1.2318,1.24,0.0,0.0,1.2956,1.3254,1.3933,1.4129,1.4299,1.4672,1.5884,1.7381,1.8737,2.0736,2.3652,2.7841,2.8958,2.9307,2.9307,3.0533,3.1365,3.1365,3.2468,3.2642,3.1454,3.004,2.9319,2.9307,2.7975,2.7261,2.7261,2.4697,2.272,2.1546,1.8642,1.7311,1.7528,2.0059,2.196,2.3408,2.7418,2.9319,2.9206,2.7873,2.6444,2.4906,2.08,1.9871,2.1518,2.5625,2.7261,2.7261,2.7261,2.6342,2.4598,2.0488,1.8118,1.6978,1.6978,1.7026,1.7073,1.7005,1.9,2.2047,2.6066,2.819,2.871,2.5932,2.3165,2.1103,2.1069,2.324,2.5901,2.8661,3.1605,3.3734,3.4042,3.3975,3.3814,3.3668,3.3521,3.3414,3.3414,3.3414,3.3414,3.3414,3.3414,3.3414,3.3414,3.3414,3.3414,3.3414,3.3414,3.348,3.3641,3.3801,3.3948,3.4068,3.4376,3.4536,3.4536,3.4609,3.4689,3.4763,3.5204,3.5191,3.4763,3.5057,3.5191,1.2969,1.2739,1.2745,1.2698,1.2501,1.2515,0.0,0.0,0.0,1.4061,1.4224,1.4224,1.4224,1.4272,1.5027,1.737,1.8409,1.9458,2.1229,2.2481,2.3653,2.4689,2.7447,2.9237,2.9137,3.1101,3.1575,2.951,2.8177,2.6819,2.5307,2.4701,2.4392,2.4392,2.227,2.0999,2.0701,1.8306,1.7154,1.7419,1.9415,2.0592,2.1207,2.5727,2.6751,2.5215,2.4598,2.3465,2.1622,1.8327,1.7293,1.8327,2.3259,2.5215,2.5215,2.583,2.5625,2.4495,1.9462,1.7391,1.6978,1.6978,1.6978,1.7083,1.7601,2.131,2.5727,2.8495,2.9724,2.9319,2.6035,2.3597,2.1648,2.0542,2.2873,2.5892,2.8121,3.1415,3.4055,3.4349,3.4362,3.4153,3.4082,3.3686,3.3447,3.3393,3.3393,3.3367,3.3414,3.3353,3.3393,3.3393,3.3447,3.3473,3.3473,3.3473,3.3593,3.3948,3.3953,3.4179,3.4656,3.4619,3.4897,3.5191,3.5232,3.5245,3.5191,3.5498,3.5364,3.4857,3.5084,3.5191,1.3777,1.3593,1.3505,1.2718,1.2888,1.3037,1.2244,0.0,1.2535,1.2393,0.0,1.2366,1.2366,0.0,0.0,1.2888,1.3943,1.4719,1.4583,1.5495,1.8022,2.3014,2.7007,2.9055,2.8523,2.8703,2.8959,2.9237,2.4196,2.2298,2.5062,2.2855,2.1622,2.1622,2.136,2.0181,1.7843,1.7463,1.7256,1.7419,1.7438,1.8738,2.1103,2.1725,2.3156,2.5112,2.2648,2.2752,2.429,1.9149,1.8424,2.0895,2.3981,2.5215,2.5522,2.7986,2.7261,2.4804,2.1725,1.9044,1.6978,1.6978,1.6978,1.7496,1.9871,2.2752,2.5727,2.8495,3.1063,3.1768,2.6546,2.5046,2.3682,1.8663,2.1759,2.5815,2.5954,3.0315,3.4362,3.4656,3.4379,3.4156,3.4499,3.3937,3.3429,3.3409,3.3369,3.3391,3.344,3.3426,3.3369,3.3369,3.3722,3.3881,3.3881,3.3881,3.3997,3.4037,3.4163,3.4255,3.4389,3.4382,3.4661,3.5191,3.5232,3.5245,3.5191,3.5245,3.5219,3.5151,3.5177,3.5191,1.3817,1.3797,1.3824,1.318,1.3214,1.3241,1.263,1.2433,1.2345,1.2223,0.0,0.0,0.0,0.0,0.0,0.0,1.3159,1.3661,1.3207,1.4122,1.5674,1.8093,2.1245,2.3966,2.5769,2.7344,2.7136,2.4724,2.1713,2.0114,2.0438,1.9357,1.8738,1.8738,1.8798,1.8335,1.7419,1.727,1.727,1.7419,1.7202,1.7685,1.8738,2.0384,2.0895,2.0488,2.0895,2.0903,2.0279,1.7908,1.7706,1.894,2.1725,2.2855,2.2958,2.4084,2.3775,2.2442,1.9662,1.8013,1.6978,1.6978,1.8103,1.9935,2.2639,2.542,2.819,3.095,3.2485,3.2485,2.8596,2.6511,2.4441,2.0447,2.1439,2.3837,2.5406,2.9051,3.2575,3.4411,3.479,3.4752,3.4885,3.4044,3.3418,3.336,3.3422,3.3382,3.3365,3.3356,3.3718,3.4353,3.4604,3.4671,3.4671,3.4366,3.4174,3.4215,3.4861,3.5152,3.4843,3.4832,3.4952,3.5191,3.5192,3.5205,3.5191,3.5205,3.5285,3.5444,3.5444,3.5364,1.3342,1.3618,1.4069,1.2656,1.2834,1.3227,1.2807,1.2528,1.2338,1.2298,1.2352,0.0,0.0,0.0,1.2372,1.2433,0.0,1.3241,1.2834,1.3593,1.4204,1.4245,1.6848,1.9968,2.3458,2.4763,2.4073,2.1035,1.9371,1.8105,1.7035,1.6978,1.6978,1.6978,1.7019,1.7161,1.7419,1.727,1.727,1.7419,1.7222,1.708,1.7083,1.9044,1.8835,1.7083,1.9149,1.8843,1.6978,1.6978,1.6978,1.7188,1.9149,1.9975,2.0079,2.0791,2.1103,2.0696,1.7908,1.6978,1.6978,1.6978,1.8909,2.1647,2.4373,2.7159,2.9825,3.2598,3.3467,3.2917,3.0148,2.7475,2.4874,2.2065,2.1599,2.243,2.5367,2.8384,3.1421,3.4334,3.5057,3.5191,3.5191,3.449,3.3873,3.393,3.366,3.3403,3.3439,3.3722,3.4242,3.5121,3.5216,3.5193,3.5156,3.4767,3.4729,3.4953,3.5485,3.5697,3.5205,3.5231,3.535,3.5669,3.535,3.5231,3.5192,3.5231,3.5351,3.5631,3.5631,3.5565,1.2284,1.3154,1.4107,1.0602,1.1446,1.299,1.2257,1.2298,1.2454,1.2318,1.2515,1.2671,1.2515,1.2488,1.2454,1.2318,1.2556,0.0,0.0,1.2589,1.2847,1.2996,1.5988,1.9333,2.2747,2.0038,1.8567,1.9896,1.686,1.5513,1.6904,1.6978,1.6978,1.6978,1.7114,1.7263,1.7419,1.727,1.727,1.7419,1.7127,1.6985,1.6978,1.7083,1.7083,1.6978,1.7083,1.7083,1.6978,1.6978,1.6978,1.6978,1.7083,1.7083,1.7496,2.0071,2.1103,2.0696,1.7908,1.6978,1.6978,1.6978,1.8909,2.1647,2.4373,2.7159,2.9825,3.2598,3.3627,3.3245,3.0527,2.7961,2.5351,2.2466,2.2025,2.2913,2.5683,2.8669,3.1698,3.4636,3.5191,3.5191,3.5191,3.5177,3.5175,3.5129,3.4136,3.3447,3.3407,3.4432,3.5197,3.5256,3.5179,3.5217,3.5252,3.5171,3.5668,3.6775,3.5764,3.5218,3.5245,3.5218,3.5696,3.6821,3.5709,3.5218,3.5245,3.5218,3.5351,3.5752,3.5752,3.5899,1.2154,1.2255,1.225,0.8628,0.9587,1.1243,1.049,1.1615,1.2732,1.2481,1.2671,1.2807,1.2549,1.2583,1.2603,1.2454,1.2596,1.2657,0.0,1.2515,1.2596,1.2651,1.5699,1.7542,1.6877,1.7853,1.8191,1.7314,1.6194,1.592,1.6924,1.6978,1.6978,1.6978,1.7026,1.7121,1.727,1.7216,1.7216,1.727,1.7168,1.7073,1.6978,1.6978,1.6978,1.6978,1.6978,1.6978,1.6978,1.6978,1.6978,1.6978,1.6978,1.6978,1.7083,1.8013,1.8432,1.8222,1.7293,1.6978,1.6978,1.6978,2.0119,2.3948,2.4877,2.8382,3.2222,3.3452,3.3801,3.3718,3.2969,2.9467,2.5885,2.4854,2.3386,2.2957,2.5821,2.8625,3.1505,3.461,3.5044,3.4963,3.5164,3.5191,3.5216,3.5156,3.4867,3.4606,3.4616,3.4931,3.5186,3.5192,3.5818,3.6355,3.6288,3.6315,3.6221,3.5792,3.5365,3.5205,3.5232,3.5244,3.5576,3.6353,3.6138,3.5778,3.5511,3.5298,3.5511,3.6033,3.6168,3.6208,1.1111,1.0489,0.971,0.6327,0.7306,0.9166,0.9446,1.0742,1.2164,1.2956,1.3132,1.3268,1.3492,1.3139,1.2868,1.303,1.2827,1.2617,0.0,1.2501,1.2501,1.2501,1.4502,1.528,1.3768,1.537,1.6348,1.5945,1.5554,1.5845,1.6924,1.6978,1.6978,1.6978,1.6978,1.7046,1.7188,1.7141,1.7141,1.7195,1.7141,1.7066,1.6978,1.6978,1.6978,1.6978,1.6978,1.6978,1.6978,1.6978,1.6978,1.6978,1.6978,1.6978,1.6978,1.6978,1.6978,1.6978,1.6978,1.6978,1.6978,1.6978,2.0725,2.5257,2.5265,2.9244,3.3641,3.3948,3.4122,3.4242,3.4429,3.0411,2.6209,2.6209,2.4171,2.2966,2.588,2.8603,3.1384,3.4597,3.4963,3.4857,3.5151,3.5191,3.5242,3.5186,3.516,3.516,3.516,3.516,3.5216,3.5218,3.6233,3.6852,3.6896,3.6585,3.5953,3.5271,3.5179,3.5152,3.5204,3.5178,3.5538,3.6423,3.6436,3.6208,3.5939,3.5497,3.5497,3.5912,3.6154,3.6247]}]]